GFSWCAN_500_spd_000.txt.gz
Wind_Speed
73 61 43 35 35 29 30 26 24 24 24 22 19 17 18 18 19 20 17 16 18 16 20 20 25 24 23 20 21 23 27 41 44 46 48 39 30 36 38 38 53 53 50 53 52 53 43 41 34 35 29 32 36 39
54 37 34 36 29 19 18 19 20 21 21 17 15 15 15 15 12 11 13 12 13 13 18 19 22 26 25 22 19 19 21 38 41 49 43 45 43 36 44 37 44 48 50 46 47 48 51 47 37 34 28 31 32 29
43 40 35 27 21 14 17 18 19 18 14 13 11 11 10 8 8 9 9 9 11 10 15 18 19 24 25 23 21 20 24 37 42 46 45 39 34 43 42 39 41 48 44 44 39 39 38 37 42 47 36 34 33 34
39 32 27 21 15 14 18 17 15 13 11 9 7 5 5 4 3 3 5 7 9 11 16 19 22 22 21 20 27 27 31 38 42 41 43 40 37 34 39 45 42 49 39 38 36 33 33 29 34 37 40 34 36 36
37 32 26 20 16 18 15 14 12 9 7 7 5 4 2 3 4 4 7 12 12 14 15 15 17 18 19 27 31 32 36 41 38 39 37 38 38 36 34 33 37 37 39 36 32 29 29 37 40 40 43 37 38 43
36 29 24 20 17 15 15 13 10 8 8 7 5 5 5 7 9 9 7 11 10 15 17 18 16 21 28 25 25 31 39 39 35 40 35 28 35 37 37 35 34 30 30 31 28 28 28 18 40 42 46 48 46 47
35 28 23 19 17 16 15 13 12 11 9 11 11 11 9 8 7 12 8 16 17 18 17 16 22 22 19 20 27 31 40 24 43 44 43 12 35 35 32 32 27 26 30 29 25 23 25 19 32 43 42 43 46 51
32 25 22 19 17 16 16 14 14 14 15 13 11 10 11 14 11 15 20 19 18 18 23 23 21 18 14 17 26 27 40 39 44 46 32 15 18 38 33 30 32 30 31 31 33 22 24 29 39 41 46 41 42 53
27 24 22 20 19 17 16 15 15 16 15 14 12 13 23 18 18 22 18 20 23 21 19 18 20 17 15 19 28 30 30 30 39 40 14 16 30 30 29 29 30 31 30 28 32 30 29 31 17 28 33 35 45 36
27 25 22 21 22 20 18 18 17 19 19 18 16 16 19 23 20 20 22 26 21 12 16 16 13 15 15 22 24 25 26 25 22 33 24 24 16 25 28 29 32 35 34 29 25 19 15 40 31 32 24 22 34 26
27 23 23 23 23 22 20 19 18 20 21 20 22 22 23 24 23 25 27 22 18 21 19 19 18 16 20 20 21 22 22 29 28 27 13 30 17 22 23 23 24 35 34 30 27 28 28 31 30 23 27 30 25 24
27 25 25 25 24 23 23 23 23 24 23 24 24 22 21 19 18 17 19 25 20 20 20 23 20 15 18 20 19 17 24 25 21 25 14 17 27 10 23 34 32 30 30 25 32 40 31 26 14 17 16 17 19 15
30 27 25 25 25 24 22 21 20 20 21 21 21 21 20 19 14 14 17 25 17 9 10 16 18 19 16 21 20 21 20 16 16 21 23 11 12 17 6 16 30 33 37 32 28 18 13 13 11 8 8 8 11 14
29 27 26 26 24 25 24 29 30 31 25 26 22 22 20 15 13 13 11 12 13 10 13 11 13 15 13 20 22 21 17 15 12 17 17 13 10 6 9 12 16 11 8 13 21 18 15 11 12 13 13 13 14 15
28 26 25 24 25 26 26 29 27 26 21 20 21 22 18 13 10 10 12 10 9 9 13 13 15 12 14 15 14 15 19 14 9 10 13 11 11 11 7 11 10 8 13 12 11 9 11 14 15 14 14 15 18 19
29 28 25 23 24 26 27 28 26 20 18 18 24 21 21 19 18 14 9 9 13 17 16 14 17 12 11 11 13 17 11 16 13 5 11 10 12 10 8 7 9 11 11 11 10 11 12 13 15 17 19 21 20 19
30 30 28 25 22 21 23 25 23 17 18 21 19 17 14 15 15 13 15 17 17 16 14 10 15 14 20 15 16 7 14 11 16 16 16 10 14 13 10 9 11 13 11 12 12 13 15 16 15 16 18 19 19 21
24 25 26 25 23 23 23 23 23 24 23 20 19 20 19 16 14 11 12 13 14 14 9 9 11 6 12 16 16 16 20 9 13 15 17 15 14 13 13 12 12 15 16 13 10 12 14 16 16 17 18 20 22 24
20 22 23 24 21 19 19 18 19 20 22 23 24 23 23 22 23 22 24 21 18 15 12 14 15 13 10 10 6 10 13 14 11 8 7 7 10 10 10 9 7 6 8 10 12 14 16 17 17 17 17 18 21 20
18 18 20 21 20 19 19 20 20 21 20 19 20 22 22 22 23 22 22 22 24 21 20 19 21 19 18 17 15 13 12 11 10 9 8 9 6 5 5 8 9 10 12 14 16 18 20 20 21 21 20 21 21 21
26 23 20 20 20 19 19 19 20 20 20 19 19 20 20 21 20 21 21 19 20 16 18 19 20 19 15 12 9 8 8 7 5 5 6 5 7 8 10 12 13 15 16 17 17 18 20 21 22 23 24 25 25 25
26 27 27 27 26 23 20 19 18 19 19 20 20 19 19 18 18 18 17 18 17 16 14 14 13 11 10 8 4 2 2 3 5 5 8 10 12 14 15 17 17 17 18 19 20 20 20 22 22 23 24 24 25 27
22 22 19 20 23 28 28 23 20 19 19 18 19 19 22 23 23 22 21 21 19 19 18 16 14 11 11 11 9 5 4 4 5 7 9 10 12 13 16 17 19 20 21 23 24 26 27 25 25 27 28 30 31 33
21 18 17 21 24 26 23 26 18 20 23 21 20 19 18 19 19 18 18 16 13 14 14 11 9 9 8 8 7 6 6 6 6 8 9 11 13 14 16 18 19 21 23 24 25 27 28 29 30 31 32 33 34 36
19 21 23 26 27 28 27 25 23 22 22 19 18 15 14 14 16 17 17 16 15 13 12 11 10 8 6 6 5 6 7 8 9 11 12 14 16 17 18 20 22 23 25 27 28 29 31 32 33 33 35 36 37 38
18 21 23 24 24 22 21 21 20 19 19 18 17 18 19 17 17 18 17 15 14 12 10 8 7 6 6 6 8 10 12 14 17 20 23 24 25 27 28 29 30 31 31 34 35 36 37 39 40 41 41 42 43 43
15 15 16 17 19 20 21 20 17 15 13 13 12 12 12 10 9 9 8 8 7 8 9 12 13 12 11 11 13 17 21 23 26 28 32 36 36 35 35 36 37 38 40 40 42 42 44 45 46 47 48 48 50 51
12 11 12 14 17 18 18 14 13 13 12 13 13 12 13 14 17 16 15 19 23 25 24 18 15 19 22 25 27 27 29 32 35 38 40 41 41 40 42 42 42 43 44 43 45 47 48 49 50 52 53 54 55 56
13 10 10 12 14 15 16 16 16 13 12 14 15 18 18 15 14 15 17 19 23 22 22 22 25 28 31 32 34 35 36 38 40 41 42 41 42 42 42 43 44 46 47 49 50 50 52 54 55 56 57 58 59 59
15 15 16 16 17 16 14 13 14 13 11 12 16 20 20 19 14 18 18 21 25 23 26 34 35 36 36 37 37 38 39 39 40 42 42 43 44 44 45 45 46 47 48 50 51 52 53 54 55 56 57 58 58 59
17 17 17 19 18 18 16 15 14 15 15 16 17 21 21 21 21 21 20 20 22 25 30 33 35 37 38 39 40 41 42 43 43 43 44 45 46 47 48 49 49 48 47 45 44 43 43 44 45 46 47 48 50 51
22 22 22 22 22 21 20 17 16 18 19 20 21 21 22 23 23 24 25 27 29 31 33 35 37 39 40 42 43 44 45 46 47 46 46 45 43 41 38 36 34 34 34 34 34 35 37 38 39 41 42 44 45 46
19 20 20 20 20 19 20 20 20 21 22 23 25 26 28 29 31 32 33 35 37 39 41 43 45 46 47 47 46 44 41 38 35 33 31 30 29 29 29 29 29 29 30 30 30 30 31 33 35 37 39 39 37 35

GFSWCAN_500_spd_003.txt.gz
Wind_Speed
60 59 57 49 38 29 24 18 16 17 16 17 18 17 15 14 15 16 16 16 17 15 14 18 25 27 26 25 23 17 25 27 32 28 35 53 39 48 43 41 56 57 58 56 45 42 41 42 40 39 40 38 34 31
54 53 48 40 32 24 18 20 18 16 17 16 14 13 13 18 15 12 11 16 14 16 14 15 26 25 22 21 22 26 26 26 36 22 31 41 31 38 41 36 38 54 58 52 35 36 45 47 46 36 33 33 28 27
48 51 44 32 27 24 27 23 19 17 14 12 11 8 10 8 6 5 6 8 10 10 13 14 22 24 23 22 19 19 25 26 40 35 40 41 38 32 50 34 34 48 41 42 39 48 49 48 40 35 34 32 30 33
46 46 39 28 23 22 21 20 16 13 10 8 6 5 4 5 3 2 4 5 5 6 11 14 18 22 23 22 20 18 18 24 39 37 44 48 42 20 55 38 44 38 50 45 58 60 53 51 39 29 31 33 33 34
43 37 31 23 21 21 22 20 16 12 10 8 6 4 3 3 5 3 3 5 4 3 11 12 15 17 17 22 23 22 20 22 38 36 48 51 46 29 51 33 61 31 43 30 37 49 47 39 33 30 30 34 39 40
35 31 25 21 21 23 22 19 17 13 9 9 8 7 8 9 9 10 6 6 5 10 14 16 16 17 21 22 23 22 20 24 37 35 47 44 44 27 41 38 57 36 37 51 51 31 29 32 31 29 27 30 35 40
33 28 25 24 24 22 22 20 16 15 15 14 13 11 11 11 10 7 8 6 9 13 17 16 15 13 14 15 18 21 20 33 33 24 33 32 30 34 37 27 45 44 35 32 29 33 32 27 26 31 30 30 36 44
31 30 29 27 25 22 22 20 18 17 16 15 16 18 14 8 11 11 10 11 12 12 12 12 18 13 10 6 14 16 21 33 16 33 31 10 8 28 35 32 31 31 33 28 31 31 28 29 33 34 33 34 37 51
30 30 29 27 25 24 24 24 22 20 19 18 18 15 13 17 16 12 17 19 15 13 14 18 13 9 22 5 7 16 21 18 29 31 23 8 6 22 31 30 28 28 29 28 30 31 32 30 24 28 37 39 49 53
33 29 24 23 23 23 23 24 24 23 21 16 15 16 15 16 20 27 23 18 14 10 6 7 12 11 19 14 18 25 18 16 22 31 13 5 5 10 32 27 30 32 30 29 29 27 32 26 25 25 44 33 23 45
35 32 28 24 23 23 24 25 25 25 25 20 19 21 22 24 21 21 21 19 17 15 16 9 11 18 22 23 27 20 12 10 28 11 6 7 3 12 29 29 28 30 30 29 24 19 17 20 23 24 29 24 18 18
34 31 30 29 24 22 23 24 24 23 23 23 22 22 21 18 23 22 19 19 18 10 9 6 16 20 25 31 20 20 21 19 19 13 13 15 8 6 18 22 26 28 29 27 20 22 16 23 27 25 23 29 33 30
33 37 34 33 32 29 26 29 26 25 23 22 20 19 22 28 23 23 23 20 9 10 10 15 19 24 29 16 16 12 4 13 26 10 19 20 15 13 15 15 23 24 19 27 33 29 28 31 22 21 25 30 25 20
27 28 29 29 28 28 25 25 27 20 21 19 19 19 20 19 17 16 14 12 6 7 10 13 13 11 16 15 19 25 17 19 12 18 20 13 12 6 6 11 6 9 15 26 27 27 32 33 21 18 16 20 25 22
27 26 25 25 25 26 24 22 19 25 19 19 21 17 17 14 10 8 10 10 12 14 21 19 15 14 15 24 11 14 14 11 11 13 10 10 11 10 6 4 4 2 10 12 22 26 26 21 18 13 11 13 15 18
26 26 25 26 24 23 24 23 22 19 12 14 17 13 11 10 8 8 10 12 14 17 16 11 13 14 12 11 13 15 14 16 18 15 13 8 10 9 5 5 1 2 4 9 10 8 17 15 17 17 17 16 15 17
22 23 24 24 23 23 26 26 23 17 18 15 12 11 10 10 11 12 15 14 12 15 13 12 14 16 12 15 16 18 17 13 11 16 17 14 9 8 6 4 2 1 1 2 5 7 6 8 10 14 16 15 17 19
18 19 20 20 21 22 21 21 22 25 26 26 24 22 16 14 13 14 16 13 8 10 10 11 15 17 24 21 20 19 20 18 19 18 15 9 9 10 8 6 4 4 6 10 9 8 7 8 9 11 12 14 18 19
18 17 16 17 18 19 20 18 18 19 22 23 24 28 29 27 21 18 13 8 5 2 10 11 12 16 15 15 15 12 11 11 9 8 7 5 7 10 10 11 12 9 6 4 7 10 11 13 14 16 18 19 22 23
28 23 19 16 17 17 18 20 18 19 22 21 23 26 28 28 28 26 23 19 18 17 15 12 11 12 11 12 11 9 7 5 4 3 3 5 6 5 5 4 3 5 8 12 14 16 16 16 17 20 21 23 24 25
23 27 29 20 18 19 20 20 21 20 19 20 22 23 23 24 24 25 23 24 25 23 18 13 13 13 11 8 7 8 7 5 4 4 4 5 6 8 9 10 12 14 16 17 18 18 18 18 18 19 20 23 26 28
21 21 26 24 23 20 19 20 21 21 21 25 25 25 25 24 24 23 23 21 19 18 18 17 15 13 10 8 6 3 1 4 6 6 7 8 10 11 13 16 17 18 19 20 21 22 21 22 23 24 25 26 27 29
23 21 17 16 20 22 24 22 19 19 20 26 25 22 23 24 22 20 21 22 21 19 17 16 13 12 9 7 5 4 5 7 7 8 9 11 12 14 16 17 18 19 21 21 24 25 26 27 28 30 31 30 31 32
21 18 19 23 23 22 21 20 17 15 16 17 16 17 19 18 16 16 14 11 11 9 9 8 8 6 6 6 5 5 5 6 7 9 10 11 12 14 17 19 21 21 22 25 26 26 27 29 30 31 32 33 34 35
18 21 24 24 21 21 19 17 16 17 18 17 15 15 16 15 13 13 13 12 10 9 7 6 7 8 8 7 6 5 6 7 8 9 11 14 17 20 22 24 22 23 26 29 32 34 35 36 37 39 39 41 41 42
13 17 20 20 19 17 15 14 13 12 13 13 13 14 15 13 10 9 10 11 10 9 10 12 11 10 11 12 14 16 16 16 21 24 24 26 27 30 34 36 38 40 41 41 40 41 41 43 45 47 49 50 51 51
9 13 15 17 17 16 12 13 13 13 11 10 11 13 15 17 20 15 11 16 23 21 14 14 17 15 15 17 20 24 28 30 31 33 35 37 36 35 39 41 40 38 42 40 41 43 42 44 45 47 49 51 53 54
14 13 14 15 15 15 14 14 13 11 10 10 10 14 18 17 15 16 10 11 17 15 15 17 19 22 26 34 38 36 33 35 35 35 37 41 40 38 38 41 42 43 44 44 46 47 49 50 51 53 54 56 57 59
14 14 14 15 12 12 13 14 15 14 13 13 16 18 20 19 17 14 17 17 19 20 21 24 29 32 39 41 41 42 41 39 39 40 41 42 43 45 46 46 47 48 49 51 52 52 53 54 54 55 55 55 56 56
16 18 16 15 16 16 16 16 16 17 18 19 17 18 18 19 20 20 20 20 22 24 26 29 32 34 38 41 43 45 46 45 44 44 45 44 44 45 45 46 46 46 45 44 42 42 38 38 38 40 41 43 45 48
19 19 19 18 18 17 17 19 20 21 23 23 23 23 24 24 24 26 28 30 33 36 39 42 44 45 46 45 43 41 41 38 35 33 32 31 30 29 28 27 26 27 27 28 30 31 31 30 30 31 33 36 39 41
19 20 20 19 19 21 22 21 20 23 25 25 27 28 29 30 32 33 36 40 43 45 44 43 40 37 36 35 33 30 27 26 25 24 23 24 24 24 23 24 24 25 26 24 23 23 24 25 27 31 34 38 38 35
19 20 20 20 21 22 22 23 23 26 27 28 29 30 31 32 35 39 41 41 39 37 34 33 31 29 29 30 30 28 25 23 23 23 22 22 21 21 22 22 21 20 21 22 23 23 23 25 27 29 31 34 32 31

GFSWCAN_500_spd_006.txt.gz
Wind_Speed
58 54 54 52 47 40 33 32 31 28 24 21 19 18 16 14 12 14 15 17 20 21 14 17 18 17 25 21 19 13 17 27 30 35 46 40 56 60 56 59 54 62 62 62 51 43 41 46 41 24 43 45 37 40
56 53 48 43 37 33 30 29 28 25 21 19 16 14 14 13 15 15 14 13 17 16 12 19 14 15 22 23 23 17 16 25 24 29 37 49 49 59 52 44 50 67 65 60 54 55 40 35 50 47 49 45 39 38
50 46 41 36 33 31 33 31 27 23 18 16 13 11 9 7 6 4 5 7 9 12 16 16 12 13 25 27 27 36 21 20 20 26 27 48 41 48 62 53 60 61 49 42 45 47 39 54 52 49 45 45 44 44
40 40 39 36 35 34 31 28 26 20 17 15 12 10 8 6 2 2 1 2 5 6 6 6 6 13 20 22 21 20 23 27 27 31 32 35 43 34 40 57 50 58 45 38 34 46 55 51 54 55 53 41 40 38
39 43 42 38 34 31 30 26 24 21 18 14 13 12 10 7 4 4 6 7 5 7 1 1 5 12 17 17 13 13 20 25 37 36 35 35 41 30 29 42 48 49 49 46 45 52 55 54 52 48 40 38 34 33
40 40 38 38 34 33 30 26 24 23 21 19 17 15 15 13 12 10 6 6 5 8 8 10 12 13 14 12 9 9 10 21 39 37 38 41 27 22 34 48 43 47 46 43 53 59 64 57 50 45 37 38 35 31
40 36 37 36 32 31 28 24 23 22 18 16 14 13 15 13 11 12 10 11 10 9 8 10 12 11 10 6 2 5 6 12 32 27 28 31 17 20 33 25 35 37 54 53 49 26 38 47 43 39 38 37 29 31
43 38 36 33 30 30 29 27 24 21 24 24 21 20 17 15 15 18 18 15 13 11 10 10 11 15 19 19 12 4 12 21 19 15 18 27 4 20 22 27 17 21 37 18 26 24 24 40 44 34 28 29 31 32
39 37 34 33 30 28 28 28 24 22 21 20 19 17 16 20 23 24 24 23 19 15 15 13 7 22 5 15 5 16 27 19 23 20 24 16 15 13 24 22 27 32 12 27 14 15 24 29 33 32 31 29 31 31
39 39 34 31 30 30 30 31 30 28 26 22 22 21 20 24 25 19 18 21 22 20 16 11 12 22 20 12 25 21 18 21 24 32 14 9 3 4 19 22 23 21 20 19 21 22 24 26 25 24 23 23 23 23
33 36 37 34 32 29 28 28 27 25 30 25 23 26 25 23 21 23 27 25 22 28 24 10 8 18 11 16 18 16 14 17 16 14 8 6 12 12 18 22 24 24 24 24 21 21 23 22 23 19 19 28 30 32
33 34 33 32 28 27 28 27 25 22 23 31 29 29 33 28 31 30 29 26 32 16 12 14 18 31 24 25 22 15 10 12 10 14 4 7 13 20 20 21 24 23 23 23 16 21 17 17 17 12 13 13 21 28
30 30 30 30 27 20 22 18 19 17 20 26 22 21 36 33 31 29 33 24 21 19 18 21 22 18 19 25 22 16 15 11 6 17 24 25 25 23 15 17 10 9 17 17 20 15 12 8 11 15 14 13 17 14
31 30 28 29 26 21 18 18 14 15 15 13 13 14 22 24 22 25 28 29 24 16 10 6 7 30 13 15 20 17 18 20 28 26 26 23 22 17 17 12 8 13 12 15 14 18 22 17 15 18 18 16 21 24
26 27 28 27 27 26 21 17 13 11 11 10 8 13 15 16 18 18 26 26 17 22 14 13 14 17 19 16 21 29 25 24 22 22 20 22 20 17 14 11 11 10 9 13 16 15 15 18 18 18 19 19 20 19
22 23 23 24 23 24 23 23 24 18 12 9 10 8 10 12 15 14 17 20 13 24 20 17 15 20 27 23 28 29 24 20 19 19 17 20 14 14 18 14 11 7 8 11 13 16 26 24 19 17 14 11 11 14
19 20 21 21 21 20 22 25 25 24 20 13 7 6 9 11 13 11 13 18 16 20 22 19 20 29 33 30 23 27 29 22 17 13 15 12 12 9 9 8 11 7 6 5 4 6 7 16 21 16 18 19 20 19
21 19 18 19 20 20 20 22 25 28 29 26 20 15 12 11 13 8 7 13 16 18 23 25 27 29 28 24 27 20 16 20 18 15 9 7 8 5 3 3 5 2 3 3 6 5 6 5 6 10 14 15 21 25
30 22 20 20 20 21 20 21 24 27 30 31 29 23 19 14 10 8 8 11 14 19 19 18 18 20 20 16 15 14 13 12 12 10 6 4 4 2 5 7 7 7 9 2 3 5 7 8 10 12 15 15 18 21
27 24 21 22 23 23 22 22 21 24 25 26 29 29 29 23 17 14 12 16 17 18 16 13 13 14 13 11 8 6 6 6 6 4 1 4 4 4 6 5 8 7 7 9 11 11 12 14 16 19 20 24 25 27
19 21 21 19 19 21 22 24 27 27 25 25 26 27 26 24 23 23 19 19 13 10 10 10 11 10 8 5 4 4 4 6 6 7 6 5 6 8 10 12 13 13 15 18 19 19 20 20 22 23 22 22 24 27
22 19 19 17 16 17 20 21 26 23 22 25 25 26 26 26 26 24 25 22 22 20 18 15 12 11 10 8 6 6 7 9 8 7 8 7 9 10 12 13 14 17 18 19 21 22 22 20 23 25 27 27 28 30
23 19 14 12 12 16 17 16 17 14 15 17 21 19 19 18 17 16 14 15 14 12 11 9 7 8 7 5 5 6 7 8 10 10 10 10 10 12 13 14 15 15 19 20 23 23 24 24 25 27 29 29 32 33
19 16 11 11 15 18 17 18 16 15 15 15 14 14 16 17 17 15 14 12 11 12 12 12 12 10 9 9 11 12 13 14 13 13 15 16 19 20 18 19 22 19 21 25 28 28 29 30 31 32 34 36 37 38
14 14 14 14 15 15 14 13 15 16 17 17 18 17 17 19 18 15 18 21 14 8 7 9 10 11 12 13 14 15 15 17 20 21 21 22 28 33 33 32 33 33 35 35 39 41 41 41 41 43 42 44 43 45
11 13 16 16 14 13 14 14 10 9 10 11 12 14 15 8 19 19 18 18 18 21 20 18 17 17 18 19 20 21 21 23 29 34 35 33 33 36 39 42 45 45 44 43 42 42 42 42 43 44 45 45 47 48
9 13 13 13 14 15 16 17 16 11 11 11 12 15 18 17 19 22 23 22 24 24 30 28 26 25 24 25 28 30 34 37 41 41 42 41 39 35 34 37 39 40 43 43 44 44 45 46 46 47 49 50 52 53
13 16 32 20 25 21 16 17 17 16 16 16 16 18 19 21 21 22 23 22 21 22 24 25 27 29 32 35 37 38 40 41 43 44 47 49 49 47 43 42 43 43 45 45 47 49 50 50 51 51 51 52 52 52
17 15 16 20 16 14 15 17 18 19 20 20 19 19 19 20 21 22 23 24 26 28 31 33 34 35 36 37 38 39 38 34 35 35 35 37 38 39 40 40 40 41 40 41 40 36 35 35 34 34 35 36 37 38
15 15 15 15 16 17 18 19 21 22 23 24 24 24 23 24 25 28 30 32 35 36 36 35 33 31 30 28 27 31 31 29 28 26 25 24 24 23 22 23 23 24 26 27 28 29 29 29 28 27 28 29 32 34
15 15 15 16 17 19 20 20 21 24 24 25 25 26 26 27 30 34 37 37 35 34 34 32 31 29 27 26 27 28 30 28 27 25 24 22 22 21 21 21 21 22 23 23 24 24 25 26 26 26 26 27 29 31
16 17 17 16 16 18 19 20 21 24 25 25 27 31 34 36 39 40 36 30 29 30 32 32 31 29 28 27 25 24 25 26 25 24 23 22 21 21 21 21 21 21 21 22 23 23 23 23 22 23 24 25 26 28
16 17 16 17 19 19 20 21 23 23 24 26 29 31 33 35 38 40 40 34 28 28 33 36 35 32 30 28 26 23 21 22 22 21 20 20 20 20 20 21 21 20 21 22 23 23 24 24 24 23 23 24 25 26

GFSWCAN_500_spd_009.txt.gz
Wind_Speed
63 55 51 54 51 47 42 40 39 34 29 25 23 22 18 17 14 13 15 16 16 18 14 19 18 13 15 17 16 17 17 19 24 26 30 45 44 48 56 79 68 66 61 51 42 46 53 57 50 55 57 57 57 54
59 50 47 52 49 42 38 36 34 31 26 23 22 20 17 16 13 13 13 10 12 14 13 19 15 12 14 16 20 15 14 15 23 19 20 25 44 41 45 67 77 59 58 50 52 51 53 58 51 53 62 61 57 52
55 46 48 48 45 40 37 35 34 32 28 24 21 19 16 12 10 7 5 7 8 6 9 13 13 12 11 12 17 12 13 10 21 20 14 24 30 36 41 57 63 71 62 50 63 64 47 56 56 65 61 55 51 45
50 43 44 43 43 41 37 37 34 32 30 26 23 20 18 13 11 9 9 9 9 9 6 5 2 3 8 9 9 13 10 10 22 5 23 30 29 31 40 42 62 63 64 49 54 65 48 34 46 60 60 65 40 46
47 42 40 40 41 40 38 36 36 34 29 26 24 22 20 17 13 12 12 13 13 11 5 5 6 7 9 8 10 5 9 17 12 9 24 27 30 32 35 37 62 54 60 54 55 42 39 50 66 31 44 33 51 52
48 40 41 42 39 36 36 35 35 34 31 28 26 25 22 19 17 17 17 18 17 16 13 12 12 10 9 11 10 9 14 13 16 16 21 28 34 32 29 40 48 61 66 57 55 57 64 64 61 62 60 51 43 39
46 45 43 41 40 40 39 37 35 34 33 29 25 22 21 22 21 20 19 18 16 14 11 13 9 10 17 12 9 6 9 5 7 16 24 21 26 41 21 28 51 58 54 57 62 63 61 57 55 58 59 53 43 42
42 42 41 39 39 39 39 37 34 31 30 28 27 26 26 23 18 17 17 17 19 14 13 12 19 18 22 25 14 12 6 6 8 10 19 28 15 20 10 22 18 29 28 43 49 58 55 44 33 46 52 44 45 40
36 37 35 36 36 34 31 34 35 32 31 30 25 26 25 27 23 22 23 28 28 24 20 14 12 11 7 11 19 19 23 19 8 25 31 16 15 4 9 18 15 18 29 44 29 40 50 33 23 40 50 43 34 26
35 34 34 32 30 28 27 29 33 28 30 37 37 36 34 39 40 40 32 38 27 26 17 23 31 26 25 23 18 16 21 22 21 21 16 9 5 10 11 12 15 21 25 27 17 10 27 36 27 28 39 42 34 26
34 33 30 30 26 23 22 22 24 26 23 32 34 39 37 31 32 44 44 37 27 21 14 15 13 17 14 11 15 19 20 21 22 11 10 13 18 18 13 11 10 14 18 20 19 15 15 25 27 18 17 20 27 31
30 32 33 32 26 20 19 20 20 19 23 27 29 32 33 27 33 40 44 33 25 20 12 18 22 14 10 15 18 17 19 19 12 12 16 26 21 21 20 15 16 10 13 13 14 16 18 20 19 21 23 25 30 27
29 31 30 29 29 27 21 17 16 18 17 21 22 25 23 20 30 36 50 33 15 13 14 25 25 13 21 19 14 16 19 15 23 33 38 34 24 22 25 15 13 11 6 10 14 10 12 14 16 21 13 15 18 15
26 28 28 26 28 26 23 20 16 14 16 18 19 20 20 23 39 43 32 38 20 19 17 21 13 15 18 20 22 27 28 32 29 35 36 28 24 22 21 17 19 15 13 10 10 4 7 19 9 9 11 12 13 10
22 23 25 25 23 23 26 26 19 14 16 15 16 19 20 22 32 33 30 28 25 24 26 24 17 17 21 31 37 36 36 35 32 30 27 20 21 23 17 13 13 13 10 9 10 8 7 11 9 8 10 9 11 11
23 21 21 22 21 24 27 28 31 22 10 10 14 18 19 18 23 29 28 28 28 26 29 23 22 25 26 29 27 27 28 26 27 22 22 21 19 22 21 18 13 7 7 9 11 19 14 12 13 11 12 12 12 12
23 21 21 21 21 22 25 28 24 24 21 20 17 18 17 19 22 27 25 24 24 21 28 31 35 39 33 25 29 24 24 22 20 17 18 14 16 13 10 23 14 16 14 11 8 7 9 7 14 17 19 17 15 15
23 23 22 20 19 21 23 23 29 30 27 23 21 17 15 15 16 19 19 21 23 23 22 30 32 29 33 31 21 23 21 20 13 12 11 8 8 6 4 3 4 6 12 9 9 3 7 5 4 5 10 13 12 15
21 23 24 24 24 22 21 21 23 28 30 28 25 18 15 15 14 14 18 19 17 18 17 13 19 24 24 21 17 16 12 11 10 10 11 11 11 12 8 2 3 4 4 4 7 9 10 9 9 9 10 12 16 17
21 21 20 22 23 23 22 21 23 27 28 31 31 29 23 20 21 19 16 16 16 12 7 9 12 15 14 14 12 11 12 11 11 10 7 6 4 2 5 4 6 8 8 9 11 13 14 17 19 18 17 19 22 21
17 17 20 21 18 20 22 22 22 24 23 25 26 26 29 30 27 22 21 22 15 9 9 12 12 9 7 5 6 7 8 9 8 5 6 7 9 9 9 9 10 10 13 16 17 16 17 20 22 23 22 23 26 28
16 18 20 17 16 15 17 18 18 19 18 21 23 23 23 23 23 21 21 15 13 14 15 15 14 12 11 11 10 9 9 9 10 10 9 8 9 11 12 13 15 17 18 20 22 22 19 20 23 25 25 26 28 29
17 17 16 14 13 16 17 16 16 15 14 16 18 19 20 20 20 21 17 14 14 13 11 11 11 10 10 10 10 10 10 12 13 13 13 14 15 16 15 15 16 17 19 21 23 26 26 22 23 25 27 27 29 31
15 15 13 11 12 14 14 15 15 16 15 14 15 21 17 17 22 21 22 20 18 16 19 23 22 21 19 19 19 19 20 20 18 17 21 22 20 22 26 27 29 31 30 31 32 34 34 35 36 38 39 38 41 42
9 10 11 11 12 15 18 14 11 12 14 15 18 22 24 22 16 20 22 23 22 22 21 23 24 27 24 24 24 25 25 27 30 30 28 28 32 35 36 36 38 41 42 41 41 42 42 43 43 44 44 43 42 43
8 7 9 9 8 15 19 18 14 13 15 16 16 15 19 19 21 23 23 25 26 25 24 24 26 27 27 27 29 30 30 30 35 38 39 40 41 42 43 43 42 44 43 43 44 43 43 43 45 46 47 48 48 49
15 19 25 21 19 14 17 19 19 19 18 18 17 19 21 22 23 24 25 26 27 28 29 30 31 33 34 36 38 37 37 36 40 42 43 44 44 41 38 39 41 44 45 44 44 44 44 45 45 47 48 49 49 50
18 17 15 15 16 20 23 23 21 20 22 23 23 24 25 26 27 28 30 31 32 33 33 32 30 29 29 30 28 25 20 21 25 28 31 32 30 27 29 30 28 26 26 28 30 32 34 34 34 34 34 34 34 34
19 19 19 21 21 19 19 21 22 23 24 25 25 25 26 27 29 30 31 31 23 24 27 29 29 29 28 27 27 25 21 26 27 26 28 29 28 28 28 29 29 28 27 24 23 23 24 25 27 27 28 28 28 29
13 15 14 15 16 17 17 18 20 21 22 22 23 25 26 27 28 30 32 33 25 25 28 31 34 33 31 30 28 27 23 24 25 25 25 24 24 23 23 23 23 23 22 22 21 21 23 24 24 25 25 26 25 26
11 13 13 14 14 15 16 18 18 19 23 27 28 29 29 30 32 33 33 33 33 29 29 31 32 33 33 31 28 28 25 22 22 22 22 22 21 21 21 22 22 21 21 21 22 23 24 25 25 25 25 25 24 24
13 14 14 14 15 16 17 18 18 20 22 26 26 29 31 32 33 36 35 33 35 35 34 32 31 31 31 31 29 28 28 26 24 24 24 23 23 23 24 23 23 23 23 24 25 26 26 26 26 26 26 25 24 23
12 14 16 17 20 21 20 20 23 25 25 25 28 29 30 32 33 36 40 38 37 38 37 36 34 31 30 30 29 28 28 28 28 26 25 25 24 23 23 24 25 25 25 25 25 25 25 24 24 25 25 24 22 21

GFSWCAN_500_spd_012.txt.gz
Wind_Speed
55 50 50 48 44 42 41 44 41 39 37 32 28 25 22 19 17 15 15 15 18 12 13 14 15 15 13 16 16 15 14 14 13 16 23 40 31 35 46 70 81 75 76 64 66 44 53 63 62 63 55 53 59 59
55 52 50 45 40 41 42 44 42 36 34 34 32 29 24 19 18 16 15 13 12 9 12 12 13 13 16 15 12 11 13 14 19 22 18 25 33 32 30 57 56 61 69 72 53 35 55 60 57 51 59 53 58 60
52 49 44 43 42 44 47 46 45 43 39 35 32 29 27 22 20 17 15 14 11 8 10 9 9 9 11 8 2 10 13 11 10 11 7 13 17 25 26 45 50 51 60 68 64 44 46 67 69 56 66 62 61 62
46 43 47 46 48 47 47 46 44 43 41 38 35 33 27 24 21 21 20 18 16 10 11 9 4 2 8 5 3 2 9 9 10 10 16 7 19 24 14 37 41 41 41 62 66 51 45 69 68 65 65 66 64 62
40 37 38 38 40 43 43 44 42 42 38 34 33 31 27 25 25 23 24 23 21 18 12 13 16 12 9 5 4 3 2 5 9 9 12 5 9 18 2 31 28 39 38 38 61 50 49 58 66 70 61 59 66 63
37 34 33 36 37 41 46 42 40 38 35 34 31 28 25 24 23 22 22 21 19 17 14 12 18 14 10 9 8 5 6 2 7 2 13 10 10 18 15 24 26 30 40 40 60 38 48 52 53 58 45 55 61 51
35 33 29 30 34 36 40 36 43 40 46 33 31 35 33 30 27 24 24 21 20 15 10 8 9 17 13 9 8 1 2 4 6 14 19 13 11 17 13 35 18 32 42 38 62 48 40 50 52 40 54 33 64 57
34 35 30 27 29 29 33 34 36 36 41 45 42 39 35 31 28 31 29 28 23 16 12 15 16 13 12 6 6 1 3 8 15 17 26 17 8 16 21 28 29 28 34 43 47 51 39 50 50 30 29 40 37 41
30 34 35 31 27 28 27 29 31 34 35 39 44 28 40 51 37 37 37 29 24 23 22 26 19 12 13 17 11 13 18 18 20 24 20 18 19 15 10 11 21 25 33 38 37 57 48 39 47 39 36 34 40 47
29 32 32 28 29 26 27 29 28 28 33 34 38 28 40 50 40 35 29 32 23 21 26 31 23 19 23 26 27 25 23 21 17 13 15 9 9 12 19 12 20 22 34 34 35 45 51 50 46 39 33 35 33 42
27 29 31 29 27 26 23 21 22 24 27 31 33 35 32 41 53 46 32 32 25 31 28 21 19 16 16 17 20 21 21 19 13 9 10 13 13 14 18 21 26 25 27 28 26 28 39 44 45 40 53 50 35 35
25 26 28 28 26 24 22 18 20 21 22 24 30 24 28 40 51 49 30 30 31 26 29 20 17 14 18 24 25 23 21 16 15 15 19 19 18 16 20 19 25 25 25 26 21 20 22 19 28 38 43 55 37 35
25 24 24 25 25 27 24 19 13 16 19 23 24 23 32 38 44 36 27 29 28 29 24 22 20 17 17 23 25 28 31 35 36 30 30 27 23 23 21 19 23 19 18 19 18 18 17 10 12 14 19 20 18 20
26 23 23 23 25 27 27 21 13 9 12 18 21 33 35 42 39 32 27 29 22 20 19 18 17 18 22 31 44 43 40 37 34 31 32 29 26 23 22 23 20 12 15 13 11 20 17 14 11 13 17 14 14 16
26 24 23 23 26 29 27 22 12 11 17 13 19 32 34 34 31 25 28 29 25 23 19 21 24 30 35 38 36 34 33 36 29 26 22 22 20 21 29 31 28 20 17 16 10 13 11 8 6 8 10 12 10 12
27 25 22 23 23 27 28 25 24 14 16 18 19 24 25 24 24 22 28 31 33 30 24 26 27 30 34 33 31 31 30 28 24 17 25 24 23 20 15 10 9 9 13 21 19 11 9 5 6 6 5 5 6 10
26 26 26 24 23 23 28 24 16 11 15 19 20 19 21 24 24 25 25 31 25 32 25 22 33 29 28 29 27 24 23 19 16 19 14 19 21 20 19 20 18 17 11 8 11 7 5 5 8 10 13 13 14 15
22 24 26 26 24 23 25 23 22 20 19 18 15 17 17 19 21 22 26 27 25 26 23 23 29 32 30 27 23 20 16 15 10 8 9 10 8 5 5 8 9 9 7 5 3 6 10 8 4 5 6 10 16 18
19 20 24 25 24 27 24 29 30 31 28 25 23 21 15 15 15 19 19 19 22 22 16 13 16 21 23 20 18 16 14 10 9 11 11 12 7 5 2 3 4 3 1 5 8 8 7 7 7 8 10 11 11 13
15 17 19 23 24 20 19 23 22 24 25 29 31 26 21 20 21 21 21 20 19 15 10 6 11 14 11 11 10 9 7 6 5 5 6 8 7 7 9 10 8 5 4 7 12 16 17 16 16 17 19 18 19 21
14 15 16 20 20 18 15 17 18 21 22 21 23 24 24 23 18 16 17 18 17 15 15 16 16 16 14 12 11 8 7 7 8 9 9 7 7 8 8 8 8 10 11 12 14 18 20 20 20 21 22 22 22 22
14 14 15 17 17 16 16 17 17 17 18 21 20 21 21 22 24 24 24 17 15 15 18 19 18 18 17 17 16 15 14 12 11 11 10 10 12 13 12 13 15 16 15 14 15 17 20 21 20 21 23 26 27 27
14 15 14 14 12 13 16 17 16 15 14 16 16 17 15 17 19 22 19 17 17 15 15 17 18 16 14 16 17 16 16 18 19 17 17 19 19 21 23 23 22 23 26 27 27 29 29 30 30 30 31 31 31 31
13 13 13 12 14 16 11 7 10 13 16 19 14 20 24 18 18 21 20 20 20 20 20 18 18 18 18 18 20 24 24 23 23 25 25 25 26 29 32 34 36 38 39 40 39 40 41 41 41 41 40 41 42 42
13 11 7 4 12 13 13 13 16 17 18 19 21 22 21 21 20 22 23 23 24 24 24 25 26 26 26 26 24 24 29 32 32 30 30 33 33 32 35 38 41 44 47 49 50 50 50 50 49 50 49 45 43 43
15 18 18 19 15 17 19 20 18 20 21 21 22 23 24 26 26 27 29 30 30 27 25 25 25 26 27 27 27 26 27 29 31 32 31 28 26 27 28 30 30 31 31 33 36 40 44 48 49 49 48 48 48 49
15 13 15 14 16 19 20 22 23 22 22 23 24 26 27 27 27 29 29 32 31 27 25 27 28 29 28 26 25 25 26 27 25 18 17 21 22 23 23 23 23 24 26 28 29 30 29 28 29 31 33 36 38 40
10 11 13 14 14 16 17 18 18 17 19 22 25 27 29 29 30 32 32 31 30 28 27 28 31 33 31 29 28 27 27 27 25 25 22 20 21 22 23 25 25 24 24 22 23 24 24 23 22 21 21 23 24 25
9 9 11 12 14 16 16 15 16 18 20 22 24 26 27 29 31 32 34 34 33 35 34 32 31 32 33 29 28 28 28 27 25 25 25 24 23 24 24 22 22 23 23 22 22 21 21 22 22 23 23 24 25 26
13 12 13 16 16 16 18 18 19 21 22 24 25 26 26 27 29 30 32 35 35 33 33 32 32 32 32 31 27 26 26 26 26 25 24 24 24 24 24 24 24 25 25 24 24 24 24 24 24 24 24 25 25 25
14 16 17 15 14 14 15 17 17 19 20 19 20 24 26 27 29 32 35 35 36 35 33 33 32 33 33 32 31 30 28 26 26 26 26 25 25 25 25 25 26 25 25 24 24 23 23 23 23 23 23 24 24 24
13 14 17 18 18 18 19 20 21 20 19 21 23 26 28 29 31 32 32 35 37 39 38 35 34 34 34 33 31 31 31 30 30 29 28 27 26 26 27 26 25 25 24 23 22 21 21 21 21 21 22 23 24 24
15 15 16 19 20 22 23 24 24 23 23 24 25 26 29 31 33 34 34 36 38 39 38 37 36 35 35 35 33 32 32 32 32 32 32 32 31 28 27 26 25 24 23 22 21 20 19 19 20 21 21 23 23 23

GFSWCAN_500_spd_015.txt.gz
Wind_Speed
40 41 40 46 49 53 52 49 49 48 48 46 42 37 32 27 24 22 19 17 15 10 13 12 10 11 11 10 7 11 16 21 21 17 17 19 20 34 37 42 55 70 81 90 89 87 78 75 69 55 48 60 67 61
40 39 37 38 43 50 53 53 52 50 49 46 43 41 37 33 30 26 23 20 16 14 15 11 9 7 9 13 8 9 12 15 9 11 11 7 16 30 24 23 30 50 66 80 76 85 81 62 58 60 49 40 47 59
40 38 35 35 41 45 47 51 56 57 51 42 38 40 38 34 29 25 22 19 15 13 15 11 9 2 3 3 5 4 2 5 7 5 9 8 12 14 25 28 23 32 46 53 51 62 80 57 55 55 56 52 46 44
36 37 36 34 37 40 45 46 49 53 59 49 45 38 34 31 31 28 26 22 22 16 14 13 14 14 14 11 5 5 1 2 6 5 3 8 12 15 18 24 18 29 38 47 49 41 58 59 54 54 60 61 59 57
34 36 34 31 31 34 39 42 46 48 49 44 36 41 38 34 29 28 27 26 24 19 15 17 18 16 13 12 9 6 6 12 7 1 3 5 10 18 21 16 17 30 25 38 38 52 39 60 48 59 63 60 62 64
33 32 35 32 30 30 33 38 40 45 47 56 36 49 34 33 28 25 20 20 16 16 14 13 13 11 7 6 14 14 12 5 2 1 11 9 9 11 12 8 14 16 27 27 43 47 50 52 35 31 54 51 63 64
32 33 33 33 32 31 30 33 36 38 43 46 46 44 33 36 33 29 27 23 20 16 20 17 12 11 11 12 9 6 3 3 2 9 7 4 3 5 7 10 12 27 36 35 44 49 55 58 34 53 61 60 56 63
31 31 31 33 31 31 27 28 30 31 37 42 38 43 31 31 30 30 27 25 23 22 25 23 18 16 14 16 11 7 8 7 5 14 10 8 10 7 14 19 9 24 27 25 36 61 59 52 24 28 44 55 58 58
30 28 29 32 32 30 29 28 25 28 33 36 35 36 27 27 31 34 33 33 37 28 29 26 17 20 22 16 16 15 14 13 11 13 15 14 6 6 11 10 19 17 28 29 29 57 62 62 28 31 36 37 41 45
31 29 29 31 30 28 26 27 22 22 29 31 31 28 23 23 25 26 32 32 30 33 26 21 21 20 18 22 23 18 11 14 16 14 14 12 5 10 16 10 15 25 23 20 12 44 66 70 34 40 30 34 38 33
30 30 27 27 27 27 24 25 17 14 24 25 29 25 19 28 34 35 32 32 34 31 31 26 23 23 25 25 24 24 21 17 15 13 14 15 19 13 10 27 24 24 24 21 15 16 54 46 34 34 40 44 38 29
30 28 27 26 26 25 25 23 17 8 15 25 23 18 24 33 39 37 36 29 25 24 24 21 20 18 22 21 20 20 20 22 24 22 25 26 21 25 23 34 22 23 18 20 15 17 20 33 41 39 32 31 34 34
28 26 24 24 26 28 24 21 14 14 11 21 20 23 29 39 38 34 30 25 23 27 23 25 25 31 34 37 41 38 36 31 37 38 37 29 26 23 24 26 24 20 22 23 20 17 13 11 12 19 23 29 32 40
26 25 25 26 28 29 24 17 13 10 13 12 18 27 34 38 35 30 24 24 24 22 26 35 36 35 34 35 37 36 35 38 36 35 35 30 24 23 26 22 21 25 29 22 20 19 16 16 12 11 15 19 25 31
25 27 25 26 29 29 20 13 10 14 13 11 20 27 30 32 27 33 26 26 24 21 26 28 29 31 29 32 32 36 39 37 33 32 23 27 25 26 23 21 16 16 19 15 18 15 13 13 11 9 12 12 14 16
24 26 27 28 27 26 21 19 16 13 10 15 26 26 27 23 31 29 28 26 24 21 24 22 22 25 27 29 30 35 29 29 27 22 23 19 28 23 16 18 18 11 12 17 13 8 9 12 12 15 14 15 12 10
21 21 23 28 33 31 27 23 17 10 8 16 19 20 25 27 25 24 29 33 33 26 17 13 12 17 20 23 23 25 23 18 17 16 16 17 16 20 20 18 14 10 7 7 6 6 5 5 3 7 8 9 8 8
17 19 20 22 25 27 30 28 17 17 18 16 20 22 21 22 24 23 24 27 27 25 23 21 17 14 16 22 17 18 16 14 10 8 9 10 11 13 14 13 12 9 7 7 8 9 9 6 5 5 3 3 5 7
17 17 18 19 20 23 22 21 23 26 26 23 23 23 22 21 21 24 25 24 25 24 18 16 12 12 14 13 11 10 9 7 7 7 6 9 11 12 16 13 7 3 3 6 9 9 8 8 7 7 7 7 9 11
16 17 17 16 19 21 17 18 20 23 25 25 25 22 20 20 22 21 20 19 20 15 12 11 11 10 8 7 6 4 4 4 6 8 7 6 5 6 9 11 13 14 15 16 15 14 15 14 15 16 17 19 19 19
15 15 16 17 20 20 16 12 13 17 20 19 21 16 19 20 17 16 16 17 15 13 12 13 14 12 10 8 8 8 8 7 7 8 9 9 10 10 10 10 12 15 17 18 20 22 21 20 20 21 21 22 23 25
15 16 15 15 14 12 11 11 14 17 20 19 17 18 19 16 17 18 19 18 17 17 17 16 16 15 14 13 14 14 14 13 13 14 15 15 16 17 16 16 17 18 20 22 24 25 26 27 27 27 27 27 28 29
13 13 13 15 17 15 11 12 15 16 19 20 20 18 20 20 20 21 22 22 22 21 21 19 16 17 18 18 17 18 19 21 22 22 22 23 24 25 26 27 28 28 27 28 30 32 33 34 36 38 39 39 38 37
13 10 11 14 13 16 15 15 16 17 19 20 22 21 21 21 21 22 24 25 26 23 19 19 20 20 20 22 24 25 26 27 27 27 27 29 30 31 32 33 34 35 35 36 38 39 40 41 42 43 44 46 49 51
17 15 8 14 12 12 13 14 17 19 21 25 26 27 27 28 29 30 29 28 28 26 22 22 22 22 24 24 24 24 25 26 27 27 26 26 29 33 35 36 36 36 33 31 31 31 31 32 32 33 36 38 40 42
12 11 11 12 12 13 14 15 15 18 21 22 23 24 26 28 29 31 31 31 29 28 27 26 25 24 24 26 27 27 26 23 21 20 22 23 22 22 23 23 25 26 26 25 25 27 28 30 32 33 33 33 33 32
8 8 8 9 10 11 12 13 15 18 18 20 22 25 27 29 30 30 32 34 34 33 29 27 26 25 25 26 28 29 27 24 21 21 20 20 21 21 23 24 24 25 25 25 26 27 27 27 27 26 27 27 27 27
7 7 8 10 11 12 13 15 17 17 19 21 23 25 28 30 31 33 33 32 32 34 35 35 33 31 29 29 30 30 31 31 29 25 22 22 21 21 21 20 21 21 20 21 23 24 24 24 24 24 25 26 25 26
10 11 11 12 13 14 16 19 21 21 21 22 23 24 27 28 30 32 33 32 32 34 35 33 31 30 30 29 30 30 30 30 30 30 29 28 27 26 24 24 24 23 24 24 25 24 24 24 23 24 25 25 25 24
5 8 10 14 16 18 20 22 22 24 24 24 25 25 26 25 26 30 34 37 36 36 36 33 32 32 30 30 31 31 30 30 30 29 29 29 29 29 29 29 27 26 26 26 26 26 25 25 24 24 24 23 22 22
12 12 13 15 16 17 18 18 18 18 15 18 21 22 24 26 28 31 35 37 38 38 39 38 38 36 32 31 33 33 32 31 31 31 31 31 31 30 30 29 28 28 27 26 25 25 25 25 24 23 22 21 21 22
14 15 16 15 15 16 18 19 19 18 17 19 22 24 28 31 32 34 35 36 38 40 40 40 40 37 33 35 37 36 37 38 39 39 38 36 35 33 31 29 27 26 25 24 23 22 21 21 21 21 20 21 21 22
14 15 15 16 17 19 20 21 22 22 23 23 24 27 30 34 35 35 36 37 39 39 39 40 40 38 36 38 40 41 43 43 42 40 37 35 32 29 26 25 23 22 21 20 20 19 19 18 18 18 19 20 21 22

GFSWCAN_500_spd_018.txt.gz
Wind_Speed
39 37 40 34 31 35 43 46 50 55 67 57 46 48 49 45 41 39 34 30 25 21 21 17 11 8 7 6 6 5 6 8 7 9 14 19 21 29 38 42 54 73 86 95 97 98 101 93 88 85 82 77 73 69
38 36 40 38 33 31 36 43 45 53 58 61 58 54 45 44 40 38 38 33 28 26 20 16 9 5 7 5 6 5 8 11 7 4 6 9 12 15 14 23 35 54 73 80 94 102 94 90 87 84 82 77 75 70
37 35 36 40 39 36 37 40 42 48 50 59 46 45 44 39 39 36 33 31 26 23 22 19 14 11 6 2 1 3 1 3 3 2 7 6 5 7 13 16 30 33 46 60 75 95 94 96 82 82 78 72 71 59
39 35 35 37 39 38 39 40 38 41 49 52 38 35 36 37 36 34 33 29 25 20 16 15 16 14 13 11 7 6 5 4 6 4 4 3 5 2 5 11 24 25 31 37 50 66 78 86 88 73 55 63 38 37
40 36 34 35 37 37 38 39 34 36 45 51 42 39 34 37 35 34 31 27 22 20 16 14 13 12 14 14 11 8 12 8 5 3 2 1 5 9 12 12 12 32 28 31 31 38 51 61 69 77 63 53 44 44
40 36 33 33 34 38 37 36 28 30 40 45 42 37 36 34 36 37 32 29 23 19 19 18 18 14 10 12 12 10 12 7 8 6 3 6 5 9 7 3 14 25 25 33 42 42 34 38 46 56 59 57 47 52
38 35 34 33 33 37 37 32 23 25 35 41 41 38 38 31 36 39 38 28 27 28 29 27 27 24 17 15 11 10 9 3 3 3 2 2 5 9 9 6 11 12 29 26 42 47 49 47 48 48 61 53 51 47
38 35 34 32 31 32 33 33 21 21 30 37 36 29 34 31 31 32 32 29 28 27 26 21 22 22 20 20 20 16 12 8 9 8 7 9 9 14 11 8 4 9 22 12 37 48 47 50 61 53 56 52 51 56
36 34 32 30 30 30 29 27 17 15 24 32 31 27 26 25 23 24 29 33 31 33 33 28 24 20 20 17 12 12 14 10 12 12 14 11 9 8 4 5 2 9 11 14 27 42 41 53 53 52 59 71 59 61
33 33 30 30 28 28 28 22 10 10 21 30 30 29 22 18 18 18 27 27 33 29 27 24 23 23 24 23 22 21 19 17 18 19 16 12 11 9 2 5 4 6 8 23 34 47 36 37 42 53 55 46 55 53
32 31 29 29 29 30 28 16 7 8 16 28 32 30 19 16 23 26 27 30 28 28 22 20 19 20 20 22 24 24 22 21 23 23 26 26 13 16 5 12 13 19 18 21 38 48 44 26 44 39 36 31 35 30
31 30 28 29 31 28 21 12 6 7 13 25 28 19 13 19 29 28 29 32 30 29 29 31 32 32 35 39 36 37 35 34 40 35 29 28 22 14 13 17 13 18 17 25 16 38 48 31 28 21 36 17 11 16
29 30 30 30 29 26 17 8 5 11 16 24 22 18 21 29 34 30 29 32 29 29 30 28 31 34 34 34 37 44 43 40 43 37 36 35 26 16 16 10 22 14 16 13 19 24 41 34 24 28 47 41 20 22
25 30 32 30 27 23 18 14 9 17 19 21 12 25 31 38 33 28 21 22 25 22 27 27 30 32 31 32 36 42 41 43 43 43 41 33 28 26 18 13 17 19 19 21 19 21 27 26 26 15 20 19 27 32
20 23 29 33 28 24 19 13 17 20 19 16 19 26 32 32 29 30 20 15 18 23 25 21 23 22 22 30 33 37 39 38 37 30 28 32 28 23 25 27 35 32 29 24 21 16 17 14 9 9 17 16 18 19
22 22 26 26 30 24 19 20 22 22 16 15 25 26 26 25 25 27 29 29 23 17 15 13 14 15 21 25 30 33 32 28 23 23 27 25 25 24 24 20 14 17 23 23 20 18 15 13 13 12 16 14 14 15
20 20 21 23 26 27 31 29 24 13 12 13 18 22 22 20 19 19 23 25 31 24 26 21 12 16 19 25 28 21 20 18 18 15 16 19 17 18 19 20 19 15 11 9 11 8 5 4 3 1 4 8 10 11
18 20 19 19 18 19 22 21 21 23 24 21 17 21 22 23 21 20 19 20 21 19 18 18 19 14 15 16 15 11 9 11 11 10 11 12 11 11 13 14 11 8 7 8 9 10 9 9 8 7 7 7 5 4
16 17 18 17 15 15 17 14 19 21 24 23 24 22 21 21 22 24 24 21 19 20 20 16 13 11 9 9 7 6 8 10 12 12 12 14 14 14 14 13 11 9 7 6 7 7 7 6 7 8 9 10 11 12
15 15 14 15 13 15 12 12 21 22 22 19 18 19 18 18 19 19 18 16 15 15 14 14 14 12 11 8 8 9 9 10 11 14 14 12 13 15 16 17 16 15 13 12 12 12 13 14 14 15 16 17 17 18
14 14 13 13 12 11 11 16 21 22 20 20 17 18 19 19 18 20 20 20 22 19 18 18 18 18 17 16 15 15 16 16 16 15 14 15 17 17 18 20 21 22 21 20 19 19 19 19 20 21 22 23 25 26
11 11 12 15 16 14 12 13 16 17 18 20 20 21 22 23 22 23 23 22 20 19 19 19 20 20 20 20 21 22 22 23 23 23 24 23 22 22 23 24 24 25 25 25 26 27 29 29 30 30 30 31 32 33
7 9 13 15 18 17 16 17 19 19 19 20 21 22 24 25 26 26 27 26 25 24 20 19 21 22 22 21 21 20 19 20 21 23 25 28 30 32 33 34 34 34 33 32 32 32 34 35 37 38 39 40 41 42
8 12 14 12 13 13 14 15 16 17 19 20 21 23 24 25 26 27 29 29 29 27 25 25 25 24 24 25 24 25 24 23 23 23 24 25 27 30 32 32 34 36 38 39 37 37 36 35 34 33 32 32 33 35
10 10 10 9 10 11 12 13 15 16 18 19 20 22 24 25 25 26 26 27 28 28 28 27 26 26 25 26 26 25 24 24 25 25 25 25 25 25 26 27 27 26 26 25 25 26 26 28 28 28 28 29 30 31
8 8 9 10 11 12 14 15 16 18 20 22 23 24 24 25 25 26 28 30 30 30 30 30 28 27 26 26 26 24 24 23 23 23 24 25 25 24 23 24 24 24 25 27 27 28 28 29 30 31 31 30 29 28
9 10 11 12 13 15 17 18 19 19 21 23 24 24 25 27 29 30 31 32 34 35 35 34 33 31 30 29 27 25 24 23 22 23 23 22 23 24 25 25 25 24 25 26 26 27 28 28 29 29 30 30 30 30
9 10 12 13 15 17 18 18 20 19 21 21 20 23 26 29 31 33 33 33 32 32 33 33 32 32 31 30 27 27 28 28 27 25 23 23 23 23 23 23 24 25 26 27 28 29 30 30 29 29 29 28 29 29
12 13 14 15 17 18 19 21 23 25 27 23 21 24 26 28 30 31 33 35 35 34 35 35 34 32 30 29 28 31 33 32 31 31 32 32 31 30 30 28 28 27 27 27 28 27 27 28 28 28 28 28 29 29
12 14 16 18 18 19 19 21 23 26 27 24 23 26 27 28 31 33 34 36 36 36 38 37 36 35 34 34 35 37 39 38 38 38 38 37 36 35 34 32 31 29 29 28 27 27 26 26 26 26 26 26 25 25
11 11 13 15 16 18 20 21 22 22 24 25 25 26 27 30 32 34 36 37 37 38 40 38 38 38 37 38 41 43 44 44 44 42 38 33 30 28 27 26 26 25 24 23 23 23 22 22 22 22 22 22 22 21
10 11 12 14 17 19 20 22 23 23 23 23 24 26 27 31 32 32 37 38 38 39 40 40 42 41 40 42 45 47 48 47 42 36 29 26 24 24 23 23 22 21 21 20 20 20 20 20 20 20 19 19 18 19
12 12 14 15 17 20 22 23 23 23 24 25 27 29 30 30 32 33 37 38 38 41 42 42 43 43 43 46 49 50 46 38 31 26 25 23 23 24 23 22 21 21 21 20 19 18 17 16 16 15 16 17 18 19

GFSWCAN_500_spd_021.txt.gz
Wind_Speed
42 45 45 40 39 41 44 45 46 37 42 49 53 53 50 50 43 42 37 37 32 29 28 23 18 11 8 6 5 3 2 1 4 11 14 18 19 25 34 42 54 72 86 95 96 96 94 85 80 79 76 73 68 64
41 44 45 40 37 38 40 44 46 34 38 48 51 48 46 44 44 41 37 32 30 25 20 20 19 16 9 5 1 4 4 3 2 4 7 9 12 17 20 26 43 57 72 83 96 101 95 92 86 81 79 75 70 67
40 42 43 38 36 38 38 41 43 30 35 45 50 45 45 42 42 38 37 33 27 24 22 19 18 17 12 10 7 6 4 3 3 2 4 7 7 8 9 15 26 37 48 69 82 95 96 98 93 90 84 78 74 70
39 41 43 37 36 38 39 40 36 25 33 41 48 47 43 38 41 36 31 33 31 29 27 24 20 20 16 13 10 9 6 7 7 5 5 4 5 6 7 7 8 21 33 47 64 74 85 92 94 94 88 83 77 72
37 41 41 37 37 37 37 37 27 23 28 38 45 43 42 41 37 33 27 28 31 30 27 26 19 17 15 15 16 15 12 11 10 6 2 1 4 5 3 3 3 11 19 35 44 54 70 73 89 94 89 85 81 76
37 40 38 39 37 36 36 34 24 20 26 35 39 40 39 40 33 31 30 34 36 30 27 26 25 19 15 14 13 15 17 16 15 13 10 8 11 11 6 1 7 18 19 21 29 42 52 58 68 75 79 80 76 77
37 38 38 39 36 34 33 29 19 18 24 32 36 37 34 34 28 28 29 30 34 33 29 26 22 18 19 20 20 20 17 16 14 13 13 15 17 22 11 5 11 11 14 18 23 34 41 46 45 48 47 48 52 54
37 36 39 37 36 34 32 25 17 11 21 28 33 34 33 29 24 22 24 23 27 31 28 28 24 21 19 18 18 17 17 19 18 17 17 19 20 19 16 18 9 10 10 11 19 32 45 45 43 35 30 41 50 50
36 36 37 36 36 33 29 19 12 10 20 26 30 34 30 23 17 16 17 22 26 29 27 25 25 25 24 22 20 20 20 22 23 22 24 20 20 17 16 13 8 3 6 0 11 32 48 51 44 42 45 47 51 50
32 35 36 36 34 31 26 13 6 11 18 29 34 29 14 18 15 15 17 26 30 31 28 26 27 28 27 25 29 36 38 30 33 31 25 14 15 23 22 21 21 7 5 7 26 40 51 40 37 24 49 38 47 51
28 33 37 36 32 27 22 12 6 12 21 30 34 28 13 15 19 27 34 34 35 32 34 32 30 28 30 33 31 33 37 42 39 37 39 30 25 24 30 30 28 28 16 16 23 38 27 28 45 30 54 42 40 54
25 32 38 37 30 21 19 12 12 17 21 30 27 16 18 20 26 27 29 29 30 30 26 30 30 33 34 43 48 46 47 49 52 40 32 31 25 24 16 21 22 28 20 29 31 24 33 28 21 22 15 39 22 40
24 29 33 34 29 19 16 12 17 14 27 27 18 13 21 22 23 28 25 26 26 28 24 28 28 28 31 37 39 41 44 45 46 46 46 46 26 22 18 28 13 20 16 23 26 16 23 9 13 12 21 26 21 29
22 26 28 31 25 19 16 17 20 24 25 21 13 22 29 24 23 19 23 24 23 19 22 26 26 24 26 30 36 40 39 40 38 38 36 32 33 17 15 19 19 26 27 34 19 28 16 10 5 20 23 23 19 15
20 20 23 25 26 18 11 12 19 25 26 22 18 22 26 30 20 18 18 19 22 22 24 23 23 22 18 20 26 29 34 35 36 28 23 29 28 27 22 18 20 23 23 32 30 31 18 19 21 14 7 15 13 15
18 19 19 20 21 22 24 25 29 23 16 16 23 25 25 24 22 18 16 16 19 23 24 26 22 19 18 20 20 23 24 26 24 20 19 20 24 25 24 22 22 18 12 13 15 12 11 16 17 16 12 10 13 18
15 17 17 18 19 19 27 29 23 18 18 20 24 22 22 21 22 21 20 19 20 19 16 19 18 20 24 21 17 18 19 16 14 15 18 19 18 18 18 18 18 18 17 15 14 11 9 7 6 8 5 3 3 4
14 16 17 15 13 13 20 23 23 22 19 18 18 19 21 23 24 22 22 22 21 20 19 18 20 20 21 19 18 15 13 14 14 13 12 13 16 17 16 16 13 10 8 8 8 9 8 7 7 7 6 5 2 4
16 16 15 14 11 10 15 18 22 22 20 21 20 22 21 22 22 22 22 21 20 19 18 20 22 22 20 18 17 18 19 17 17 19 19 19 16 13 13 13 11 10 10 8 8 8 8 9 10 8 8 9 10 11
16 16 15 13 11 10 13 16 15 18 21 21 21 22 22 22 23 23 25 25 24 24 22 20 18 19 19 19 18 18 17 18 19 19 20 20 20 21 20 19 18 17 15 15 14 14 13 13 14 16 17 15 15 16
14 12 12 14 14 12 15 15 16 19 19 21 22 22 22 23 24 24 25 26 26 24 21 20 20 20 20 20 19 19 20 21 22 23 24 25 26 25 25 25 24 24 23 21 21 22 22 22 22 21 22 23 24 25
8 10 11 13 12 13 14 14 16 18 18 19 20 21 21 21 22 23 25 25 26 26 25 23 22 22 21 21 21 20 21 21 22 23 26 28 29 29 30 30 31 31 32 32 31 31 31 32 32 32 33 33 34 34
12 11 11 12 11 13 13 14 15 16 17 19 20 21 22 23 23 24 24 26 27 28 27 26 26 25 25 23 22 22 23 23 23 23 22 22 24 26 28 29 29 30 31 32 34 35 36 38 39 40 40 39 39 39
9 11 10 11 12 13 15 16 17 18 20 21 22 22 21 22 23 24 25 27 30 32 33 31 29 28 28 27 27 26 26 26 26 26 26 25 25 25 25 25 25 26 26 26 26 25 25 26 29 33 36 37 37 36
9 11 12 13 15 16 17 18 20 21 21 21 21 20 19 20 21 23 25 28 31 33 34 34 32 31 30 29 28 27 25 24 25 25 25 25 25 26 26 26 26 27 27 27 26 26 25 26 25 25 26 27 27 28
12 13 14 15 16 18 19 20 21 22 23 23 22 19 19 20 22 25 27 29 31 34 34 35 34 33 32 30 26 23 22 24 25 27 26 27 27 27 27 27 27 27 27 28 27 27 27 26 25 24 24 24 25 26
12 13 14 15 17 19 20 21 22 22 22 24 22 20 22 24 25 28 31 31 32 33 33 33 33 32 31 29 26 25 25 27 29 29 29 29 29 30 30 30 30 30 29 29 30 29 28 27 27 27 27 27 27 27
11 11 13 15 18 19 20 21 23 24 25 27 26 23 26 27 28 31 32 33 34 35 33 32 33 32 32 31 30 30 31 34 36 37 35 33 32 32 32 31 32 33 33 33 32 30 30 29 29 28 27 27 28 28
14 15 17 18 19 19 21 23 25 26 27 28 29 30 30 30 30 32 33 33 37 39 37 35 35 35 35 35 35 35 38 40 43 43 41 38 36 32 30 28 26 26 26 27 28 28 28 28 27 27 27 26 26 26
15 15 16 18 19 19 21 22 23 25 28 29 28 28 30 30 31 32 31 32 39 41 39 39 39 38 38 40 39 41 44 46 44 39 34 29 25 22 21 20 20 20 20 20 20 21 22 22 22 23 23 23 23 23
14 14 15 16 18 19 21 22 23 24 26 27 27 27 28 30 31 32 32 32 38 40 41 42 41 40 42 42 44 47 47 44 37 28 23 22 20 20 21 21 21 21 20 18 18 17 17 18 18 18 19 19 19 20
15 14 14 15 17 18 21 22 23 24 26 28 28 29 30 31 32 32 32 34 39 42 44 43 43 45 44 46 48 46 40 36 28 25 27 24 22 21 21 22 22 22 22 21 20 19 17 15 15 16 15 15 15 15
14 15 15 17 19 21 24 24 24 25 28 30 30 31 33 34 33 33 36 38 41 44 44 44 46 46 48 48 44 40 34 33 30 29 29 27 26 26 24 23 23 22 22 21 19 17 16 16 15 15 15 15 15 15

GFSWCAN_500_spd_024.txt.gz
Wind_Speed
40 38 39 41 41 40 40 39 40 38 26 35 43 48 44 46 40 44 48 43 37 32 32 27 30 22 14 10 8 5 3 3 6 12 15 15 13 17 38 46 53 78 90 86 86 87 87 83 81 79 74 76 68 68
38 37 39 41 40 40 39 38 37 32 25 32 41 43 41 43 42 40 37 30 30 32 29 25 24 21 19 15 10 9 4 0 5 7 9 11 13 15 18 31 45 62 79 88 89 94 88 87 84 82 77 79 70 67
36 37 39 41 39 40 37 37 35 28 23 30 38 40 41 39 37 36 35 27 26 29 25 20 20 21 20 17 14 11 10 5 4 2 4 5 8 10 11 19 32 49 60 80 90 92 94 89 84 84 82 77 75 71
35 37 39 39 40 39 36 36 32 23 20 28 35 36 37 36 33 31 35 31 25 22 26 24 20 20 16 17 17 14 12 10 9 7 4 3 3 3 8 12 18 28 44 59 77 87 91 93 91 87 83 82 77 74
33 37 40 38 40 36 36 34 27 21 18 25 31 34 33 33 30 30 30 32 29 27 24 22 23 21 20 20 20 17 15 15 11 6 3 2 2 3 4 7 9 17 24 42 56 65 80 87 90 89 85 84 78 75
33 36 38 39 37 36 34 31 22 17 16 24 32 33 32 28 28 30 28 30 29 29 28 25 23 21 23 23 21 19 19 18 18 16 14 13 14 10 5 6 5 3 4 20 35 52 66 74 84 86 87 85 82 79
32 36 37 39 38 35 32 27 17 10 18 26 29 31 27 26 29 30 28 24 27 27 29 28 27 24 22 22 23 20 19 19 20 18 15 16 16 16 5 3 10 10 7 6 14 39 49 57 65 77 81 79 79 77
31 34 37 40 36 33 31 19 11 11 21 26 26 26 26 28 30 27 25 20 21 25 25 28 28 28 28 29 30 27 27 27 25 23 23 20 12 14 10 8 10 13 15 13 14 14 33 53 58 65 66 69 68 66
30 33 37 39 31 31 28 18 9 17 23 31 27 22 24 24 22 23 22 26 27 26 27 28 26 26 29 29 27 30 32 34 32 38 38 39 37 29 26 26 16 18 15 14 14 17 28 49 54 50 48 46 46 46
29 30 35 36 30 27 23 15 14 21 27 28 27 19 15 19 21 19 16 26 29 34 32 31 33 37 44 46 48 56 55 53 49 44 39 37 33 27 33 29 20 3 7 5 4 17 22 38 45 44 44 39 42 30
24 28 32 31 28 23 19 17 20 21 28 36 30 12 14 18 15 16 24 30 32 30 32 36 35 34 36 41 41 46 50 47 49 51 49 42 36 33 33 37 34 26 23 19 13 12 33 44 49 38 38 35 46 48
21 25 28 24 22 19 22 19 19 20 31 38 35 10 12 11 19 20 25 27 30 28 26 32 33 31 31 32 40 40 42 45 44 48 52 50 44 38 27 26 26 19 19 39 29 27 32 19 29 33 43 35 34 48
19 20 24 25 18 17 19 18 16 17 25 25 27 10 4 16 20 21 20 24 27 26 26 26 27 27 27 31 31 34 36 39 37 41 44 41 40 44 32 19 19 20 21 20 21 20 14 18 26 25 20 13 28 29
18 17 19 20 24 21 15 14 11 14 26 22 14 16 21 19 17 16 14 15 19 23 24 25 24 20 23 20 21 27 31 34 38 39 38 32 32 33 36 43 37 27 19 18 19 23 18 20 21 22 19 28 24 28
15 15 16 18 19 23 20 13 24 27 20 13 11 15 17 17 18 16 14 11 15 17 20 23 22 21 25 22 22 23 24 27 30 31 29 28 30 29 29 27 30 32 32 35 31 23 21 30 34 32 29 26 23 21
14 15 14 13 13 19 21 24 22 19 18 19 20 21 21 23 22 20 17 16 16 14 14 18 20 19 21 21 23 23 19 20 21 20 19 21 22 23 24 22 21 16 15 15 20 26 21 16 18 18 14 10 12 15
14 14 14 13 10 14 21 23 25 16 14 17 17 14 14 16 15 15 15 15 14 15 16 15 14 17 19 21 22 21 21 21 19 18 18 18 18 18 17 17 16 17 17 16 14 13 10 13 15 11 9 7 7 8
16 16 14 12 12 13 18 20 19 20 19 20 18 19 18 19 19 18 17 18 17 17 15 15 17 20 19 19 19 19 19 19 20 20 19 18 18 19 19 15 12 10 11 9 8 7 5 5 4 3 2 2 3 3
15 14 15 14 11 11 15 16 16 17 20 23 23 23 24 25 23 23 23 22 20 20 20 20 19 18 18 18 19 20 19 20 22 23 23 23 22 23 22 19 17 14 11 11 11 11 11 10 9 8 8 7 8 8
11 10 11 12 13 12 11 14 16 17 19 20 21 21 21 21 21 23 25 26 27 28 25 21 19 19 19 19 20 21 23 23 21 21 22 23 24 24 25 24 22 22 21 18 16 16 17 18 18 17 17 17 16 15
6 7 10 11 11 11 12 13 15 16 17 18 20 21 21 22 22 22 23 24 24 25 25 24 23 21 19 19 20 21 22 24 25 26 26 23 22 23 24 25 26 27 27 26 26 26 24 22 23 23 23 24 24 23
6 8 9 10 10 11 11 14 16 18 19 20 20 20 20 21 22 22 22 22 25 28 30 31 30 27 24 24 23 23 23 24 25 25 24 24 23 22 21 22 23 24 26 27 29 31 32 33 32 32 33 34 34 34
8 8 9 10 12 13 15 16 18 20 21 21 21 20 19 20 21 21 21 22 23 26 28 28 30 29 26 27 27 25 24 24 23 23 23 23 23 24 24 23 22 21 21 22 24 26 27 29 31 33 33 34 34 35
9 10 12 13 14 16 17 18 18 19 19 20 21 20 19 19 21 22 23 24 25 26 29 30 31 32 29 29 29 27 26 24 23 23 24 25 25 25 25 25 25 24 23 21 21 22 23 24 26 27 28 28 28 28
11 12 13 14 16 17 18 18 19 20 20 21 23 20 19 21 23 24 24 26 27 29 32 33 31 31 31 29 29 27 26 26 26 28 28 28 28 28 28 27 27 27 26 25 24 23 23 22 22 23 24 26 27 28
11 13 14 16 17 19 19 19 20 20 21 21 21 21 21 23 24 23 25 29 31 31 34 37 33 31 33 32 32 31 30 29 29 31 32 32 33 33 33 33 33 31 31 30 29 27 26 25 25 24 24 24 26 27
12 13 15 16 17 18 19 20 21 22 23 24 24 25 25 25 25 25 27 29 29 31 34 37 34 35 37 35 32 32 32 31 33 35 36 37 36 35 35 34 34 33 33 32 32 31 30 29 28 27 26 26 26 25
11 12 13 15 16 18 20 22 24 24 25 26 28 29 31 30 30 30 32 32 35 35 36 38 38 40 38 36 36 36 35 38 39 39 37 33 29 25 24 23 23 24 24 25 26 26 27 27 27 27 27 26 26 26
12 13 14 16 17 19 21 24 26 27 27 28 28 30 31 32 33 32 32 31 31 33 36 39 42 40 38 38 37 39 41 41 37 34 31 25 24 21 18 16 16 15 15 15 16 17 18 19 19 20 20 22 23 23
14 16 16 16 18 19 20 23 24 24 25 27 28 28 29 30 32 35 32 30 31 34 36 41 40 39 40 41 44 42 37 36 34 32 27 25 25 22 21 20 19 18 17 16 16 16 16 16 17 17 17 17 18 19
15 15 15 16 18 20 21 23 24 26 27 28 29 29 29 29 30 32 31 34 37 38 39 38 38 39 41 41 40 41 40 37 34 32 30 28 27 25 23 23 22 21 20 20 19 18 19 18 17 16 15 15 14 14
14 14 15 16 18 19 19 22 24 25 27 28 29 30 30 29 30 30 34 38 39 39 37 39 40 41 40 39 38 37 37 37 36 33 30 27 25 24 23 22 21 21 21 20 20 20 18 17 16 14 13 13 12 12
13 14 16 18 19 20 21 22 24 26 27 28 29 29 30 31 31 33 37 39 40 38 38 39 40 39 37 36 37 37 37 37 37 36 33 30 27 25 25 24 23 23 22 20 19 17 16 15 14 13 12 12 12 12

GFSWCAN_500_spd_027.txt.gz
Wind_Speed
29 35 35 37 41 39 40 37 34 34 29 22 30 36 41 39 36 38 39 39 27 27 26 23 23 23 22 21 12 8 7 7 10 12 18 20 23 27 40 37 30 57 66 70 73 72 62 41 55 52 54 67 64 66
32 34 34 37 39 38 38 37 35 30 26 21 28 35 41 38 33 35 35 37 29 23 23 22 21 19 20 17 14 14 9 4 5 10 13 15 16 22 32 35 39 46 56 62 67 75 72 65 61 68 80 69 67 70
32 33 34 37 36 37 38 36 33 26 21 20 28 35 39 34 31 33 33 35 29 23 22 21 18 16 16 16 16 13 11 9 6 4 5 11 15 21 19 28 41 52 65 70 78 80 81 80 83 85 80 78 78 65
31 29 33 36 37 39 38 33 29 23 18 20 29 36 32 29 31 31 31 31 30 29 27 23 23 24 23 21 19 16 12 9 8 7 5 4 8 14 18 21 34 47 61 70 82 82 86 89 89 87 83 80 76 72
28 30 34 36 40 40 35 30 23 17 14 24 30 31 27 29 28 29 30 31 33 30 29 26 25 25 25 23 21 21 21 19 18 12 8 3 1 2 7 12 18 30 41 58 68 76 85 86 85 85 81 79 78 74
26 30 33 37 40 36 31 25 17 12 23 28 29 28 27 25 26 28 29 23 25 30 27 28 27 25 26 26 24 24 26 29 28 25 19 10 11 12 1 7 15 19 29 42 53 62 74 87 92 90 86 87 80 76
25 30 33 37 34 27 23 19 15 24 27 29 26 23 21 23 29 30 28 25 23 24 22 25 25 21 22 23 23 27 29 28 26 23 22 12 6 10 5 12 22 20 22 32 40 52 64 75 81 89 90 86 81 79
24 29 32 32 26 23 17 15 20 27 27 25 21 17 21 24 28 29 30 27 24 20 20 24 27 29 31 35 39 38 36 36 35 32 26 20 19 22 26 20 18 24 18 14 19 34 42 56 70 78 81 84 82 77
23 26 27 26 23 19 14 18 21 26 22 18 16 13 22 27 26 23 25 28 28 29 31 35 35 37 37 41 44 49 51 47 38 37 37 32 25 23 22 29 18 12 17 13 10 16 22 41 53 63 75 77 76 75
21 22 19 20 19 18 17 21 25 27 21 19 14 16 13 18 22 25 21 21 27 29 31 30 32 37 36 38 39 43 47 50 52 43 39 33 28 24 27 26 29 21 14 12 15 16 21 23 34 51 55 59 66 62
18 18 19 18 17 17 19 21 27 25 29 26 12 11 14 13 14 16 19 20 24 27 30 31 34 34 34 32 33 36 39 44 47 49 47 47 41 27 26 29 27 29 20 14 1 15 17 22 23 38 47 46 46 43
16 17 18 21 20 15 17 22 24 27 24 28 20 15 11 6 8 11 16 19 21 25 27 28 32 34 31 27 29 31 35 37 39 40 48 53 55 39 21 21 23 24 21 18 22 12 20 14 19 25 38 43 40 44
15 16 17 21 23 23 22 19 16 17 21 27 18 22 7 12 13 13 16 18 16 15 18 20 23 27 30 29 25 26 28 32 31 31 37 36 35 40 41 32 28 26 15 20 22 14 14 28 40 44 42 25 31 34
14 14 13 13 17 19 18 10 9 8 21 22 19 12 11 14 15 13 14 17 15 13 14 15 14 20 25 23 21 22 23 23 24 27 32 30 28 27 29 33 36 35 31 27 21 13 11 18 17 21 26 33 34 40
13 14 12 8 12 17 22 18 14 14 15 12 12 11 12 13 15 17 17 17 17 19 19 16 14 14 16 17 19 19 19 19 20 22 22 23 25 29 29 26 24 22 28 30 25 26 21 15 17 22 19 23 31 33
13 13 13 12 10 14 20 21 18 20 17 11 9 11 12 13 14 15 15 16 16 17 16 17 16 14 15 17 19 20 21 21 21 20 19 19 19 19 19 22 26 23 15 15 17 17 17 17 20 24 25 25 24 25
13 15 14 12 12 13 17 16 21 17 17 17 17 15 14 15 15 15 15 16 16 15 15 17 17 16 16 17 17 18 19 20 22 20 19 19 18 17 16 15 12 13 17 20 17 15 10 5 3 6 13 20 22 23
14 13 14 14 11 12 14 16 15 16 16 17 18 18 17 17 19 19 19 19 19 19 19 18 19 21 21 22 22 21 20 20 20 22 22 21 20 20 17 15 13 9 7 7 6 9 9 7 8 5 5 4 2 3
11 11 10 11 12 10 13 14 15 16 17 17 17 17 16 17 17 18 18 19 20 22 24 26 25 24 23 23 23 25 26 25 24 23 21 21 21 21 21 20 19 17 14 11 9 8 9 11 10 9 8 8 8 6
6 6 8 10 11 11 12 13 15 17 19 20 19 18 16 16 17 17 16 18 21 24 25 26 27 28 24 22 23 24 24 25 25 24 24 24 23 22 21 21 21 21 19 19 18 17 15 15 16 16 15 15 15 14
4 6 8 9 10 11 13 15 17 19 19 20 19 19 17 16 18 18 18 19 22 23 25 26 27 28 27 24 26 27 24 23 23 24 24 23 22 21 22 21 22 24 25 23 21 23 25 24 23 23 22 22 22 22
6 7 9 11 13 14 16 17 18 19 19 19 19 19 18 17 18 20 22 22 23 23 23 25 27 27 27 27 26 26 23 21 22 22 20 20 20 20 20 21 21 21 21 24 24 23 23 25 28 29 29 31 31 31
8 10 11 13 14 15 16 18 18 19 20 20 21 22 19 17 18 20 22 20 22 24 24 24 27 27 25 26 28 25 24 23 23 23 25 25 26 24 24 23 22 22 22 22 23 23 25 26 26 27 29 30 32 33
10 12 12 13 14 16 18 18 19 20 20 20 21 21 21 22 23 23 22 22 24 24 25 26 29 31 31 34 34 32 30 28 28 29 29 29 29 30 30 28 28 27 26 25 24 24 24 25 25 26 27 27 28 30
11 12 13 13 15 16 18 18 19 20 21 22 23 22 22 23 24 24 22 25 27 27 30 32 33 32 30 36 37 35 31 32 33 34 33 33 34 36 36 36 35 33 34 33 31 29 28 27 27 26 25 26 26 27
11 12 12 14 15 16 16 17 18 19 19 20 21 22 23 23 24 25 25 29 30 31 33 36 36 36 35 40 36 36 37 36 36 37 38 38 38 37 37 37 37 36 33 32 32 32 31 30 29 28 28 28 27 27
10 11 12 13 13 15 16 18 21 22 22 25 28 29 29 29 30 32 33 30 29 29 30 32 36 33 42 40 39 38 38 36 33 33 32 32 32 28 26 25 24 23 23 23 22 23 24 25 26 26 26 27 29 29
11 12 12 13 14 16 18 21 24 27 29 30 30 32 33 33 31 30 32 30 28 32 34 35 37 38 37 38 38 38 36 34 33 33 33 29 26 24 24 22 18 18 17 17 16 16 16 16 16 16 18 20 22 24
10 13 14 14 16 18 20 23 25 22 26 29 30 30 30 32 32 30 30 32 35 38 38 38 35 36 37 39 33 29 32 34 34 34 32 31 28 26 24 23 22 20 19 17 18 16 15 14 13 13 13 13 14 15
9 14 13 14 16 18 20 22 24 26 27 28 29 30 33 32 30 28 29 33 37 39 39 36 35 36 36 33 33 35 35 35 37 36 35 33 30 27 25 23 22 22 21 20 18 18 18 17 16 16 15 15 14 14
13 12 13 15 17 19 19 21 24 26 27 29 31 30 30 32 30 29 33 36 39 39 37 37 37 35 33 33 35 37 39 40 37 36 35 34 31 28 26 24 22 20 19 18 17 16 16 17 17 16 16 15 14 13
12 12 14 17 18 19 20 21 23 26 29 30 30 31 32 32 31 32 36 39 39 37 36 36 36 34 33 36 37 38 40 40 38 36 35 34 31 28 25 22 21 20 19 19 18 17 16 15 14 14 13 12 12 11
12 13 15 16 18 19 20 22 24 26 28 29 31 32 32 31 31 33 35 38 37 36 37 37 34 31 33 36 38 40 40 38 37 37 35 33 30 28 26 24 22 19 18 17 16 14 13 13 12 11 11 10 10 10

GFSWCAN_500_spd_030.txt.gz
Wind_Speed
45 31 31 30 34 38 39 40 38 36 32 26 24 29 38 38 32 31 31 31 31 31 28 27 28 25 24 23 17 12 7 4 7 7 21 25 20 33 36 24 30 48 53 64 62 54 48 43 49 47 55 58 70 69
32 29 28 30 35 38 41 40 36 34 26 22 23 32 35 32 30 26 29 35 32 33 29 25 27 29 28 25 19 15 11 3 6 11 22 23 20 26 42 34 25 32 45 49 62 60 43 36 51 57 58 62 57 66
26 27 27 32 36 40 40 36 32 22 19 20 28 32 30 30 28 23 27 29 30 32 31 25 23 25 25 25 25 19 13 13 6 11 12 18 17 21 45 44 29 35 34 56 57 69 56 45 48 54 62 62 67 72
25 24 28 33 38 37 31 27 21 18 23 28 31 29 25 24 22 25 26 27 29 30 30 26 23 22 20 17 17 19 17 16 12 12 9 11 13 19 35 56 53 35 47 53 69 65 76 59 58 64 58 59 66 67
23 23 28 33 32 27 21 19 22 25 27 29 28 22 21 24 23 26 26 28 30 29 29 26 22 20 17 17 19 23 25 24 22 21 16 13 5 1 7 21 39 59 62 65 64 71 76 82 75 81 80 69 73 71
19 23 27 27 24 16 16 20 27 31 32 28 19 18 20 24 29 29 25 29 30 29 25 23 24 22 22 22 23 25 23 22 19 14 11 6 3 1 7 13 24 43 56 66 74 77 85 86 86 86 85 80 75 70
16 21 23 22 16 11 18 23 26 33 34 20 16 20 19 21 26 27 33 34 33 29 25 28 31 29 29 30 32 32 31 33 30 28 21 12 14 18 11 8 16 15 23 46 64 77 81 84 87 85 87 85 81 80
15 18 18 16 15 14 19 23 26 29 33 18 13 17 20 22 24 28 27 28 31 31 36 36 37 38 39 42 43 43 42 39 37 35 31 28 20 20 11 13 13 12 19 19 15 39 62 74 86 87 87 86 84 82
14 16 18 15 16 14 18 19 24 26 30 19 12 14 17 23 21 25 27 27 28 31 37 34 28 32 35 38 40 44 45 46 40 37 39 38 31 28 19 26 24 10 10 13 15 14 24 51 62 77 83 83 84 81
14 15 16 20 19 19 17 17 22 22 27 11 15 17 13 15 17 19 18 20 19 24 29 32 32 29 30 30 30 35 39 44 45 41 38 39 41 34 25 20 21 17 8 4 12 17 18 24 34 57 66 73 81 82
14 16 19 17 19 14 14 16 22 21 20 17 18 12 10 10 14 15 13 15 18 19 22 25 27 28 29 25 26 26 29 31 35 38 40 40 42 40 36 29 18 16 14 8 13 21 20 21 20 27 47 62 67 74
13 15 15 16 24 26 26 23 21 19 13 17 23 21 11 7 9 11 13 15 17 19 21 18 18 20 22 22 21 23 25 27 29 31 31 34 33 34 35 37 28 22 14 21 19 16 4 10 12 18 25 41 56 58
12 13 12 11 16 18 23 19 17 15 10 15 21 15 13 12 14 14 15 15 15 17 18 20 22 12 14 16 15 17 23 23 23 24 28 32 33 31 27 31 36 30 21 18 16 5 10 6 2 10 13 21 36 49
12 12 12 11 13 16 20 20 15 15 14 14 14 14 15 15 14 14 14 15 17 17 17 19 19 18 18 18 18 17 18 19 21 22 23 24 27 28 30 25 24 28 25 17 13 10 10 10 7 7 15 24 29 32
14 14 13 13 12 14 18 16 15 12 11 12 13 13 13 14 15 18 19 20 20 20 20 19 19 19 18 18 17 17 19 20 21 22 20 19 20 21 21 23 24 20 19 21 23 22 24 23 20 20 14 31 37 29
14 15 16 14 13 13 15 13 13 16 17 16 16 17 17 19 20 20 21 22 22 22 21 20 19 18 17 17 17 17 17 19 20 21 22 22 19 16 15 16 17 18 19 16 10 11 13 15 18 23 24 24 27 29
14 14 14 13 11 11 12 12 16 16 15 15 15 14 15 17 19 19 18 18 19 20 21 23 23 23 23 23 22 22 21 19 18 18 19 21 22 21 19 15 13 14 15 14 15 15 13 10 9 6 9 18 27 30
12 11 10 11 10 11 12 13 15 16 17 18 18 16 15 16 16 16 16 16 18 20 22 24 24 27 27 25 24 24 25 23 20 21 21 20 21 22 22 22 18 15 13 12 13 11 10 10 10 10 8 5 12 20
7 7 9 10 10 11 13 14 15 16 17 17 18 18 16 15 16 16 15 16 18 21 23 23 23 24 25 27 28 28 28 26 23 21 19 19 19 19 19 19 18 17 17 16 15 14 13 13 12 9 6 5 4 3
4 7 10 11 12 14 15 17 18 19 19 19 18 17 17 15 14 14 16 18 20 22 23 24 24 26 26 27 29 31 31 29 26 24 23 23 23 23 21 20 20 21 19 19 17 18 18 19 18 18 16 15 14 13
7 9 11 13 14 16 17 19 19 19 20 20 18 17 18 16 16 17 19 22 21 20 23 24 24 25 25 25 26 31 31 30 28 26 25 23 23 22 21 20 19 19 21 23 22 21 23 21 22 25 25 24 22 21
9 10 12 14 15 16 18 18 19 20 19 18 19 20 19 19 20 21 23 22 20 22 23 23 24 25 27 26 28 33 34 32 29 26 25 26 26 27 27 27 25 23 22 21 24 23 22 24 26 24 24 29 30 31
10 12 13 15 16 17 18 19 20 20 20 20 20 22 23 22 22 23 24 22 24 23 22 24 27 26 27 29 28 30 35 31 31 31 30 30 30 30 31 31 31 29 28 27 26 25 24 24 25 27 27 27 27 28
11 11 13 13 15 17 18 19 20 21 22 22 23 23 23 23 23 23 25 25 26 27 26 27 29 34 36 35 31 41 37 35 34 34 34 32 32 33 34 35 35 33 33 34 33 31 29 28 28 28 27 28 30 29
9 10 12 13 15 16 17 19 21 21 22 24 25 25 25 25 26 24 24 27 29 29 29 30 32 36 33 35 38 40 38 37 37 34 31 30 30 31 32 34 33 30 29 30 31 32 32 31 31 32 31 30 30 31
9 11 13 15 15 16 18 20 24 21 16 25 36 33 31 22 26 34 31 30 32 31 33 37 39 39 37 35 36 36 36 32 30 31 31 31 30 30 29 29 29 25 24 23 22 22 24 25 26 28 30 31 32 32
10 12 13 14 15 16 14 14 25 25 24 17 34 34 30 28 29 30 33 30 31 34 39 40 40 37 36 36 35 33 33 33 31 31 31 28 29 29 28 28 26 26 23 21 18 16 16 17 18 20 23 25 26 29
9 11 12 13 15 20 20 21 14 28 25 26 29 32 32 34 30 21 41 31 33 38 41 41 37 36 36 34 29 26 27 31 34 34 35 35 32 28 28 27 25 24 23 22 20 18 17 15 14 13 13 14 15 19
9 9 13 14 17 17 18 18 16 26 30 29 29 31 31 29 32 28 32 35 40 42 41 38 39 39 36 32 34 37 38 36 37 37 35 34 32 31 29 27 25 24 22 18 20 19 18 17 15 14 13 12 11 11
13 15 14 14 14 15 17 21 21 25 25 26 30 34 33 29 25 28 34 38 41 42 40 39 38 37 33 31 33 36 39 40 36 37 37 35 33 31 29 27 24 23 21 19 17 16 16 15 15 15 14 14 13 13
11 10 10 13 15 15 15 18 21 26 30 31 31 32 33 38 27 35 39 41 43 41 37 39 39 35 33 35 36 37 40 41 37 35 35 35 32 30 28 26 24 22 20 19 18 17 16 15 15 14 14 14 14 14
11 11 13 15 16 15 17 21 24 26 28 30 28 30 42 35 32 32 36 41 42 40 40 39 37 33 34 36 38 39 38 38 38 37 35 33 31 31 29 26 23 20 18 17 16 14 13 13 12 11 11 10 10 10
11 12 12 13 15 17 21 23 25 26 23 21 27 22 35 35 34 36 38 39 37 37 37 36 33 31 33 36 39 40 39 35 34 35 34 35 34 32 29 25 21 18 16 14 12 11 11 10 8 7 7 7 7 7

GFSWCAN_500_spd_033.txt.gz
Wind_Speed
50 36 26 26 31 37 39 36 31 27 22 22 26 31 33 32 30 29 26 27 30 30 30 26 25 26 26 29 27 20 5 8 11 16 16 17 25 26 19 10 34 44 62 64 54 67 64 61 63 62 61 60 64 64
34 27 26 28 33 34 27 23 24 25 26 27 29 30 28 28 26 27 26 28 30 32 35 28 24 22 19 20 20 18 13 7 8 10 6 15 21 33 30 14 26 32 53 68 62 42 67 52 62 69 71 68 71 70
22 22 23 28 30 21 17 21 29 33 33 29 27 24 28 28 26 26 30 30 33 36 38 30 26 22 17 13 16 20 21 15 5 5 5 15 17 25 31 27 22 33 46 60 70 48 64 50 46 77 74 69 71 73
19 20 23 26 19 14 17 25 30 35 33 24 22 20 26 31 28 32 35 37 37 39 37 32 31 27 19 14 15 17 18 21 21 17 10 8 14 13 21 33 31 29 36 55 59 60 68 62 52 55 81 69 70 74
21 20 22 21 12 13 22 27 29 35 33 21 22 23 23 26 28 33 39 40 42 39 37 37 36 32 26 18 17 17 18 17 17 18 17 13 8 13 28 29 40 45 45 52 65 63 69 72 65 51 62 79 71 73
18 19 20 18 13 14 20 24 26 30 34 16 19 22 22 24 25 30 38 40 37 37 38 40 39 36 33 26 21 22 26 25 20 19 20 18 13 10 7 27 46 52 57 60 62 66 67 64 65 66 52 65 68 73
15 17 18 16 16 16 20 23 24 28 30 17 14 16 22 22 25 25 32 36 30 29 33 38 40 39 40 38 34 32 30 33 30 29 30 26 22 17 14 8 3 12 31 61 74 71 73 71 67 61 66 58 63 69
15 17 19 20 19 18 18 21 24 25 28 11 10 14 16 18 20 22 23 27 29 26 26 33 32 31 35 37 34 32 34 35 34 34 33 32 32 32 28 13 5 8 14 22 35 57 67 74 77 73 67 57 64 63
15 17 19 20 22 21 16 18 20 22 24 12 12 11 13 17 18 18 19 20 22 22 26 28 24 25 26 26 29 30 31 32 33 34 35 38 41 40 34 26 16 11 4 15 22 30 37 63 78 80 83 78 68 61
14 15 16 18 20 18 15 13 12 16 17 15 12 12 9 10 15 16 18 19 18 21 23 23 25 24 23 23 27 26 27 28 28 30 32 32 35 34 32 27 20 20 14 15 12 23 23 43 65 78 86 84 91 88
13 13 13 14 21 25 26 24 21 17 16 13 15 9 8 9 14 16 16 15 16 17 17 18 25 22 19 20 19 21 22 26 27 24 26 28 28 32 33 32 24 12 22 22 2 17 15 16 36 55 67 81 89 90
13 12 12 13 17 20 25 21 19 17 13 10 11 14 14 12 12 11 12 13 15 16 17 19 18 21 21 22 19 17 21 23 25 24 23 24 25 24 27 31 29 23 16 18 22 7 4 9 10 12 18 31 57 76
14 15 14 14 15 16 21 21 18 18 16 16 16 16 15 16 14 14 15 16 16 17 18 19 18 18 18 18 18 16 21 20 19 18 21 22 20 20 21 24 24 22 20 17 16 11 9 11 6 8 16 21 25 39
14 15 15 14 14 15 17 18 17 17 16 15 14 16 13 14 17 19 20 19 18 17 16 16 17 19 20 19 18 18 18 20 20 20 19 18 18 17 16 16 13 16 19 19 14 14 15 13 7 1 3 3 12 19
14 16 17 15 13 13 14 12 15 15 16 17 14 14 17 19 18 17 18 19 20 20 20 22 21 21 19 17 17 18 20 21 20 20 20 19 18 17 15 12 10 9 10 11 12 14 14 13 8 11 10 13 3 3
15 15 14 14 12 11 12 14 14 14 16 18 17 17 17 17 16 16 16 16 17 19 21 21 20 21 21 21 20 19 21 23 22 21 19 18 16 17 16 16 13 12 9 7 10 13 8 6 8 11 14 9 11 19
12 11 11 12 12 12 12 13 15 18 19 20 19 18 18 17 17 16 16 16 17 18 20 20 21 22 22 23 23 24 24 24 24 22 21 22 21 18 17 18 16 14 13 13 11 5 8 11 8 7 11 18 18 17
7 8 10 11 12 13 15 16 18 19 19 20 20 19 17 18 18 18 18 18 19 20 20 20 20 20 21 22 23 26 29 30 28 25 22 21 20 20 19 16 15 15 15 13 13 15 10 5 6 12 10 7 14 18
6 8 10 11 12 14 16 18 19 20 21 20 20 20 21 20 19 19 19 20 23 23 21 22 24 21 21 22 23 24 26 28 29 28 26 24 23 20 20 20 18 17 16 16 16 12 13 15 12 8 8 10 9 0
7 9 11 13 14 16 17 19 19 19 19 19 19 19 19 18 17 18 19 21 21 20 21 22 23 24 26 27 25 25 27 28 32 30 28 27 26 26 25 22 23 22 22 20 17 18 17 17 15 16 14 15 15 11
8 9 12 14 16 18 19 20 20 20 21 21 20 19 20 21 20 20 22 22 21 23 25 26 26 26 27 28 29 30 30 29 35 33 28 27 27 27 26 27 26 25 24 25 24 20 20 21 19 18 18 17 21 20
10 12 14 15 16 17 18 19 19 18 17 18 20 23 21 19 18 17 18 19 21 22 24 26 28 31 32 35 32 28 28 31 36 31 30 29 28 28 28 27 27 26 28 27 28 24 23 25 24 20 20 20 20 23
11 12 13 14 15 16 17 17 17 16 16 16 17 21 24 25 24 25 23 20 21 25 29 32 34 37 39 39 37 31 31 31 31 31 26 24 23 24 25 27 27 25 24 27 29 29 25 25 27 26 24 25 24 23
9 10 11 13 14 16 18 20 18 14 10 14 27 24 23 28 18 18 24 24 27 28 29 34 39 42 42 40 38 35 34 33 30 28 26 26 26 27 28 29 28 26 25 26 26 26 26 25 27 26 27 30 29 26
7 8 10 12 15 16 15 21 24 16 21 27 30 35 38 33 33 25 25 24 31 28 33 35 40 42 40 39 39 36 30 27 29 30 30 30 30 30 31 31 29 26 27 26 25 25 23 23 23 25 25 28 31 30
6 8 10 13 14 15 13 12 15 22 23 27 30 32 34 35 37 17 14 16 32 37 41 44 44 42 40 39 37 32 29 31 31 31 31 30 29 30 31 31 28 27 27 26 24 23 22 20 19 19 19 20 25 28
8 9 10 12 15 22 17 20 27 17 23 33 32 34 34 36 34 35 20 30 35 43 45 44 42 40 40 38 33 28 28 29 32 36 33 31 30 26 26 26 26 27 27 25 24 21 21 19 18 17 14 15 16 19
8 7 9 13 13 16 16 20 22 24 25 27 25 28 30 31 35 34 29 32 42 42 45 44 40 41 39 32 29 33 35 35 36 39 39 37 35 32 30 28 26 23 23 23 21 20 20 19 18 16 15 12 12 12
11 10 8 10 13 15 18 19 20 24 27 29 28 24 22 29 33 35 36 38 40 44 46 42 40 40 37 33 35 38 41 42 41 39 39 38 36 33 31 29 28 25 20 18 19 20 17 16 16 15 14 13 11 10
11 11 10 9 14 10 13 17 22 29 34 36 40 28 12 28 36 43 43 47 47 46 44 43 41 39 36 37 38 39 40 40 38 38 37 35 34 32 31 28 26 25 23 19 16 14 15 13 12 11 11 12 11 10
13 11 10 11 11 12 14 18 18 18 28 29 30 35 41 39 34 37 41 45 48 47 44 43 39 36 37 38 39 39 40 39 36 34 33 34 33 32 30 27 24 21 18 17 15 12 11 11 11 10 10 10 10 10
10 10 10 9 11 12 15 20 22 23 22 26 22 22 40 40 39 39 44 43 45 43 42 38 34 34 38 41 39 34 35 34 34 35 36 35 34 31 27 23 20 17 15 11 10 8 7 7 7 7 7 7 7 7
10 9 10 9 11 18 21 22 24 25 25 25 32 28 28 33 34 37 39 39 39 39 37 32 32 34 37 38 36 34 31 31 33 35 37 38 36 32 27 23 19 14 11 8 4 2 1 3 3 3 2 2 2 2

GFSWCAN_500_spd_036.txt.gz
Wind_Speed
42 37 25 24 30 28 16 22 27 28 27 25 24 28 34 33 28 27 27 28 34 35 32 30 30 27 20 20 21 18 10 12 12 13 19 24 25 32 7 26 45 62 65 69 71 70 66 65 55 56 60 64 57 55
42 23 22 25 25 16 19 27 29 28 26 25 25 29 30 28 28 29 31 38 43 41 39 34 35 32 25 19 19 22 10 14 7 8 26 24 28 30 11 16 30 45 61 71 69 81 66 69 63 52 64 67 58 57
16 20 21 24 20 15 21 26 28 28 23 24 26 26 24 26 27 28 34 40 43 45 42 42 38 38 33 28 23 21 21 11 13 10 17 25 28 29 16 11 22 17 52 64 68 78 73 70 66 47 65 72 65 64
18 18 21 23 17 16 22 27 26 28 22 21 24 23 21 20 27 28 33 37 43 45 47 50 47 42 41 40 33 27 25 23 16 15 13 16 12 12 24 15 12 16 36 57 69 70 81 53 61 53 57 63 71 69
15 18 21 22 19 17 21 25 27 27 23 17 19 20 18 17 26 30 29 34 39 42 43 46 49 49 46 45 42 38 34 29 23 20 17 10 7 7 11 19 21 19 28 51 65 69 77 66 56 58 56 64 68 68
19 19 21 22 20 20 21 23 24 26 24 16 14 16 16 21 24 28 28 29 31 33 33 38 42 45 44 43 39 37 34 31 31 27 29 8 9 9 16 26 29 29 30 45 55 66 66 58 59 51 57 51 58 79
17 19 22 23 24 23 21 20 21 21 20 17 12 11 13 16 19 22 27 30 31 30 27 31 35 37 37 36 36 35 35 35 36 30 18 14 14 5 12 28 38 39 39 36 38 48 75 69 57 56 48 54 67 66
15 18 18 23 25 24 22 19 17 18 15 15 14 9 9 14 15 19 21 22 23 22 25 31 29 27 28 28 30 30 31 29 29 30 31 32 26 11 6 6 9 23 44 50 48 51 64 76 74 64 55 57 49 73
15 17 16 17 21 26 24 19 16 13 14 16 15 7 6 12 15 15 16 17 18 18 26 26 23 23 23 23 23 24 24 24 26 26 27 31 32 32 21 13 8 3 11 31 49 67 65 66 76 76 73 75 70 67
15 16 16 15 18 21 25 23 22 16 17 14 14 8 9 11 14 15 17 15 16 16 18 20 23 22 22 23 21 19 21 21 19 21 21 24 25 27 23 18 9 8 1 11 23 31 41 66 79 78 76 73 79 76
15 17 16 17 16 18 20 23 21 21 17 15 13 13 10 11 13 15 16 16 17 16 15 15 17 19 20 19 20 15 18 21 18 17 15 15 17 20 21 19 14 10 7 14 11 3 9 20 34 57 88 86 81 78
13 17 17 17 17 16 18 21 20 18 16 15 14 13 14 15 14 14 14 15 15 16 16 15 16 17 18 18 17 17 19 19 19 19 14 10 11 12 14 16 17 14 8 9 10 11 4 11 16 20 32 62 94 97
13 15 17 17 16 16 17 17 17 19 19 17 17 16 16 14 11 13 16 19 20 20 19 21 19 17 18 18 19 19 19 19 19 16 16 14 11 10 8 4 8 13 16 19 16 10 8 8 10 11 17 21 38 77
14 15 15 14 14 14 13 15 15 15 16 15 14 15 14 14 15 16 17 17 18 19 20 20 19 20 19 19 20 20 20 20 21 20 17 16 14 11 9 8 9 11 11 12 13 17 13 10 4 9 4 10 22 29
14 13 13 14 13 14 15 15 16 17 18 18 18 18 18 18 18 18 17 17 17 17 19 19 19 19 19 19 18 19 21 21 20 19 18 17 17 17 15 11 10 10 11 16 11 6 9 14 12 7 9 9 7 2
11 10 12 14 14 15 16 17 19 20 20 19 18 18 18 18 17 17 17 17 18 20 19 20 19 18 17 17 17 18 21 22 23 24 22 19 17 18 17 18 16 12 12 10 10 14 9 4 5 9 9 5 7 12
7 9 11 12 14 15 16 18 20 21 22 23 21 18 18 19 19 18 18 18 18 21 21 20 20 22 21 19 20 22 24 24 24 24 25 25 21 19 18 16 17 18 16 15 14 10 9 15 5 9 9 12 11 12
6 8 10 12 14 16 17 19 20 20 20 22 22 21 18 19 19 19 19 20 21 21 19 18 20 23 23 23 25 25 26 27 29 26 26 29 26 20 19 19 16 17 16 14 14 16 13 7 11 16 6 8 13 16
5 6 9 11 13 15 16 18 19 19 19 19 20 21 21 19 17 17 19 21 20 19 21 23 23 23 24 26 28 31 29 28 29 28 28 32 29 25 23 22 23 20 18 16 17 15 15 16 14 12 12 13 15 6
5 8 10 12 14 15 16 16 18 18 17 19 20 20 19 17 18 16 16 20 21 22 20 20 21 24 27 31 32 32 30 28 27 29 34 33 32 30 27 25 23 25 23 20 19 18 19 16 14 15 16 14 11 16
7 9 11 12 13 14 15 16 16 16 15 15 17 17 18 20 18 17 18 16 18 21 21 22 26 28 30 32 32 31 30 30 30 32 31 29 29 29 25 22 18 18 21 20 19 20 20 20 20 18 17 16 17 16
9 9 10 10 11 12 14 16 17 15 16 14 20 24 27 24 20 18 18 13 13 19 20 24 30 32 35 33 28 25 25 26 28 27 23 23 22 25 27 27 24 22 22 23 21 19 19 19 22 25 23 20 15 15
7 7 8 10 12 15 16 20 24 15 10 19 25 25 25 20 22 33 20 23 18 23 27 30 38 41 37 33 32 31 30 29 24 22 24 25 26 28 28 28 28 27 27 28 26 21 20 18 17 24 27 26 22 19
5 7 9 11 13 13 13 13 21 15 20 26 26 26 25 26 21 34 25 10 17 25 32 34 41 42 40 37 36 34 31 26 26 28 29 30 31 33 32 30 29 29 29 29 28 24 22 21 18 18 21 26 28 26
6 8 10 12 14 18 17 12 24 21 15 25 26 27 26 20 31 28 16 7 23 33 35 43 46 46 42 39 36 33 28 27 30 34 34 32 34 34 31 29 29 28 27 26 26 26 25 24 18 17 18 19 23 25
6 7 8 9 12 14 18 11 22 24 28 20 27 24 21 24 27 32 29 28 28 27 38 44 44 41 41 38 34 30 28 27 28 30 32 31 28 26 26 28 29 29 29 27 26 25 24 22 18 16 15 15 15 17
8 8 8 11 14 14 14 15 19 25 30 28 21 18 18 25 27 26 31 32 32 31 38 41 42 43 38 33 31 34 36 36 36 36 34 32 30 28 25 25 26 25 26 25 24 22 21 19 16 17 15 13 13 11
12 10 10 12 14 14 16 15 21 26 25 33 35 20 29 36 37 40 36 38 36 37 45 41 41 39 37 39 40 40 40 40 39 39 37 34 33 32 30 29 27 25 24 22 21 20 18 17 15 13 14 14 12 10
13 12 12 12 15 16 16 20 22 20 23 27 33 33 30 29 36 34 42 41 37 48 47 45 41 37 39 40 40 40 41 41 41 40 38 35 34 34 34 30 26 23 22 20 17 17 16 14 12 10 11 11 10 10
12 10 10 12 13 13 14 17 21 26 30 30 30 35 35 32 34 38 42 46 46 46 43 40 37 39 41 40 39 40 39 38 38 38 38 38 38 36 32 26 23 20 17 15 13 10 11 10 9 7 6 6 6 7
8 9 10 8 11 12 17 21 22 24 28 27 28 32 35 37 40 41 42 44 45 43 40 35 36 38 39 37 36 36 36 36 36 36 36 37 37 34 29 22 18 15 12 9 6 4 5 5 5 7 6 4 4 4
10 10 8 10 11 12 14 16 22 23 26 25 23 29 32 37 37 39 41 43 42 40 32 32 34 34 32 29 31 35 38 37 36 37 38 39 38 34 26 21 16 12 9 8 5 3 2 4 4 4 3 2 3 3
9 10 9 10 9 11 14 20 26 28 29 26 24 28 32 35 36 39 41 42 41 37 30 33 35 36 29 27 29 33 36 38 36 39 39 39 40 37 31 25 21 19 17 14 12 11 10 10 9 8 6 4 3 3

GFSWCAN_500_spd_039.txt.gz
Wind_Speed
40 30 19 24 25 17 20 25 27 28 20 24 22 22 25 23 26 28 31 37 39 39 38 41 39 33 27 24 23 16 11 5 23 10 23 31 31 30 23 20 41 52 57 58 60 70 56 57 56 56 61 60 58 57
35 19 21 25 23 16 21 25 27 30 23 21 19 19 21 23 23 27 32 36 41 44 46 47 45 40 33 25 20 19 11 11 13 17 22 26 32 25 23 32 41 49 57 60 60 60 58 63 57 55 61 62 57 57
23 19 22 24 24 21 21 24 27 29 28 18 19 17 17 21 23 27 29 31 38 43 43 46 48 46 46 41 27 18 13 12 9 16 24 26 29 23 21 28 27 34 42 60 63 68 47 64 65 50 60 62 60 57
18 21 23 25 26 25 23 23 24 28 28 15 17 15 15 19 23 27 29 32 34 37 41 44 46 48 50 50 45 31 23 19 15 12 14 18 20 13 12 12 14 26 40 50 57 60 67 48 64 56 56 59 60 60
20 21 23 26 26 26 25 22 20 23 23 16 16 13 17 17 22 25 27 28 32 36 36 39 40 44 46 48 46 38 34 32 19 16 17 20 15 8 4 3 16 16 32 53 58 57 57 68 54 63 54 64 66 67
20 19 21 24 26 29 29 23 17 17 19 16 16 14 14 15 18 21 23 25 29 34 33 35 35 37 39 40 40 42 40 33 26 23 21 11 9 5 7 8 9 10 6 19 47 60 60 62 68 68 73 49 74 73
18 19 19 19 22 25 27 26 22 19 18 16 17 15 11 13 15 17 18 19 21 25 29 31 33 34 35 35 37 37 36 35 34 31 21 16 3 19 22 17 15 13 12 17 52 57 55 57 66 73 50 74 69 78
17 18 18 17 19 22 25 24 24 21 19 18 20 16 14 13 13 16 16 17 19 20 19 30 27 31 29 28 28 29 30 29 27 27 25 17 12 5 9 18 24 25 28 26 21 48 61 58 58 68 59 58 53 57
16 18 19 18 18 19 21 24 23 23 21 17 19 19 15 14 17 17 17 18 19 19 20 19 20 23 23 23 22 21 23 22 21 20 18 18 10 0 3 4 4 4 13 31 37 31 56 61 63 66 70 77 67 54
16 18 19 18 18 18 18 21 23 23 18 15 16 15 15 17 18 20 21 20 19 19 19 20 18 19 21 21 20 19 21 20 18 16 18 17 16 13 7 3 2 2 3 1 15 34 50 52 62 69 70 70 70 74
15 17 17 18 17 17 17 19 19 19 19 17 16 15 15 15 15 17 17 17 18 19 20 20 19 19 20 19 20 20 18 17 16 15 13 15 16 14 11 8 4 1 4 7 10 17 24 35 55 62 68 77 78 74
13 15 17 16 15 15 15 16 19 20 20 18 17 19 18 14 13 12 14 14 16 18 18 20 21 21 22 22 21 21 21 20 19 19 14 12 13 13 13 11 9 6 2 4 7 9 11 16 22 45 69 71 72 74
12 14 14 14 13 13 15 16 16 18 19 19 19 18 17 16 15 15 14 14 17 19 19 20 21 22 22 22 22 22 23 23 22 19 19 16 11 10 13 14 14 16 16 15 11 9 8 8 12 18 27 41 60 75
11 10 11 13 13 14 14 16 18 20 22 22 23 21 20 18 17 16 17 18 17 18 20 22 21 21 21 19 19 19 21 22 23 23 21 19 19 16 12 13 16 19 18 19 21 20 17 13 12 13 20 26 36 43
8 7 10 12 13 14 16 17 19 21 22 22 22 22 21 19 19 18 18 19 19 18 20 21 19 19 20 20 19 20 21 22 23 22 21 20 20 19 18 15 12 15 15 15 18 19 17 19 16 8 16 15 14 17
5 6 9 10 13 16 17 20 21 21 21 22 20 19 18 18 19 18 16 16 18 20 20 18 17 17 19 19 19 21 22 21 21 24 23 21 20 21 19 18 16 14 15 15 14 16 19 18 17 20 17 12 15 16
3 6 8 10 13 15 18 20 20 21 23 21 19 19 19 19 20 18 18 18 19 19 18 18 19 19 20 20 21 23 24 25 23 23 24 22 21 22 22 18 18 17 16 16 17 15 15 19 19 17 15 19 17 18
2 4 7 11 13 15 16 18 19 19 19 19 21 22 23 21 22 22 19 20 19 15 12 13 16 20 23 25 28 29 29 30 27 24 24 23 24 25 21 20 19 19 18 17 18 18 17 14 16 18 20 21 19 20
2 5 9 11 13 15 16 18 20 21 21 18 18 14 20 21 20 20 20 20 19 17 18 20 22 25 28 30 31 31 31 30 28 27 26 27 28 25 23 22 21 21 20 20 20 20 19 19 19 16 17 19 22 22
3 6 9 11 12 14 16 18 21 21 21 20 19 19 28 23 21 20 19 19 24 21 20 23 22 24 32 35 33 30 28 28 29 29 27 28 27 24 21 19 17 16 16 16 17 17 20 23 22 20 20 19 17 18
6 8 9 10 12 14 15 17 20 21 18 21 23 27 28 23 18 16 16 19 19 21 20 22 25 28 33 38 32 28 27 28 30 29 26 23 22 24 23 19 18 18 19 18 18 19 19 19 22 21 21 20 21 20
6 7 8 9 11 14 15 14 19 20 19 20 21 20 20 21 30 30 27 24 26 21 21 29 32 36 38 32 29 28 29 28 26 22 20 21 22 22 23 25 23 23 23 21 20 20 19 19 21 23 24 22 23 24
5 5 6 8 10 12 14 17 21 20 21 20 24 26 26 21 25 29 27 28 15 23 25 33 38 39 35 32 31 27 28 25 23 24 26 28 29 28 27 28 28 27 26 24 22 20 19 20 20 22 22 24 24 24
4 5 6 8 10 12 16 11 14 25 26 26 20 22 24 23 27 30 28 25 29 33 30 29 37 34 34 32 29 27 27 28 29 31 32 34 33 32 32 31 29 28 27 25 23 22 21 20 18 19 20 23 23 24
5 6 7 9 11 15 16 14 15 25 30 31 29 28 21 19 28 28 37 34 36 38 30 37 36 34 31 28 28 29 30 30 29 29 29 29 28 27 27 29 29 27 25 23 22 22 21 19 18 18 19 20 22 22
8 8 8 8 11 16 17 15 19 24 25 29 29 26 20 28 27 29 37 37 39 38 36 37 35 31 30 32 33 33 34 35 33 31 29 28 27 27 25 24 25 25 24 25 23 21 19 18 17 16 15 16 17 18
11 10 10 10 11 12 14 15 17 22 26 29 31 30 30 38 37 39 39 40 40 40 39 39 34 32 36 37 36 35 36 37 35 33 33 33 33 32 32 31 29 26 23 21 19 18 17 16 15 14 13 14 15 14
13 11 10 10 10 13 14 14 17 20 27 31 32 33 34 37 40 43 42 42 42 43 41 36 34 37 36 34 33 35 36 36 35 35 35 35 35 34 31 29 27 24 23 19 16 15 13 10 11 11 11 11 11 10
13 12 12 13 13 11 11 13 16 18 25 33 36 37 38 41 42 45 42 42 43 43 38 34 38 39 38 31 32 34 38 39 39 40 39 38 36 33 27 24 21 20 17 12 10 10 8 6 6 6 6 7 8 6
13 12 13 12 12 12 11 11 16 20 23 27 31 35 35 38 42 42 41 42 42 39 34 36 40 42 40 33 35 36 38 38 40 42 42 40 37 32 26 21 17 14 10 7 4 3 1 1 2 4 4 3 3 4
11 10 12 12 13 11 9 12 15 20 23 27 29 31 34 36 36 39 41 43 41 37 35 38 38 42 38 33 34 33 32 33 37 40 40 40 36 31 29 25 20 16 12 9 7 5 5 5 5 6 5 3 3 3
11 10 10 11 12 12 14 15 17 20 25 29 32 31 34 37 39 40 42 43 40 36 33 36 36 40 35 31 32 31 30 31 35 38 41 40 40 36 32 29 26 22 19 16 13 12 12 12 10 8 6 4 3 2
11 10 9 10 13 16 17 19 21 23 26 28 29 30 34 37 38 40 41 42 40 35 32 36 36 38 33 30 31 29 29 30 31 33 35 38 39 39 37 35 33 30 28 26 24 22 19 17 14 12 11 10 9 9

GFSWCAN_500_spd_042.txt.gz
Wind_Speed
36 24 23 24 25 25 22 24 25 29 33 25 21 19 19 19 20 22 27 29 34 39 42 46 51 57 37 18 19 16 23 23 18 21 24 29 24 20 22 19 15 38 47 43 45 53 58 55 55 53 52 56 53 54
29 24 24 25 26 28 27 26 24 26 30 27 20 19 16 19 18 23 28 30 34 39 42 45 51 56 55 31 23 17 17 26 28 30 31 33 28 23 22 18 19 30 45 47 49 48 55 56 50 55 55 50 51 54
25 24 22 24 29 29 28 26 23 22 25 24 20 23 13 18 22 22 24 28 31 38 41 42 47 50 54 46 31 22 20 27 24 23 26 27 27 28 22 18 20 35 37 41 39 51 45 56 42 43 50 47 50 54
23 22 21 21 25 28 30 28 23 20 21 21 20 21 18 18 21 22 22 25 28 33 37 39 44 46 46 48 33 27 25 14 19 20 15 23 24 22 17 15 20 35 28 44 45 44 46 51 47 45 46 52 46 53
22 21 20 20 22 27 27 29 27 23 22 22 20 21 18 18 21 23 22 22 27 31 35 34 40 41 41 41 39 38 32 23 26 16 14 12 16 19 14 9 14 32 27 26 50 43 46 44 54 50 49 49 50 50
21 19 19 19 19 24 25 25 27 27 24 23 22 21 18 20 19 20 22 22 24 25 32 29 39 38 38 38 39 39 37 33 32 32 27 21 11 8 10 13 6 21 30 44 46 44 38 46 52 42 45 50 52 53
20 19 19 20 20 21 21 25 26 26 25 23 21 25 19 20 19 21 19 20 22 23 23 28 32 33 34 35 33 34 36 33 31 30 30 27 21 14 7 5 3 4 2 9 42 43 45 50 43 56 51 53 54 58
16 17 19 21 21 21 21 22 25 25 22 20 19 21 22 16 18 19 20 22 23 23 23 23 23 26 26 24 28 28 29 28 27 29 27 25 15 9 7 3 5 9 9 8 15 43 46 41 49 49 50 53 62 49
14 16 18 20 21 19 20 21 21 24 23 20 18 18 18 18 19 20 20 21 21 24 26 26 24 24 22 22 23 24 23 24 25 23 22 23 22 17 12 11 5 4 13 21 18 24 27 44 52 53 52 51 58 60
13 16 17 19 18 18 18 19 22 23 23 22 20 20 19 20 18 19 21 19 19 20 22 23 24 24 24 23 22 23 22 21 21 22 23 21 22 21 18 13 4 3 2 5 15 26 32 24 36 55 53 54 52 55
12 14 15 16 16 16 17 19 19 21 22 23 22 21 21 22 20 17 16 14 16 17 19 21 22 22 22 23 22 22 22 21 21 20 21 21 20 21 20 17 13 11 5 1 4 8 17 27 41 40 45 53 56 61
12 13 13 13 14 16 16 17 19 21 23 23 22 21 21 20 18 17 17 17 18 18 18 20 21 21 22 22 21 20 21 22 24 24 23 21 21 22 22 22 21 18 13 9 6 5 6 14 25 37 50 58 60 61
11 10 10 13 14 14 16 18 20 22 23 24 24 23 21 18 18 17 17 17 18 19 19 21 21 19 19 20 19 18 20 22 22 22 22 23 22 19 20 23 23 24 25 22 19 15 10 9 14 17 27 36 50 64
9 7 10 11 12 13 16 18 21 23 25 25 25 23 22 21 18 18 18 18 19 20 21 20 18 19 20 21 21 20 22 22 23 22 23 23 22 21 18 18 21 22 22 22 22 20 20 19 18 22 20 28 33 38
8 6 8 9 11 14 17 19 21 23 23 23 25 26 26 23 20 19 19 19 19 19 19 18 17 18 20 21 23 24 24 24 25 26 26 26 25 24 23 20 20 20 21 20 20 20 22 21 22 19 17 15 24 30
5 4 6 8 11 14 17 19 21 23 22 21 20 22 24 24 21 19 18 20 21 21 18 16 16 17 20 23 24 27 29 29 28 28 28 27 27 27 25 24 23 19 19 20 21 20 18 21 22 23 23 18 16 24
3 4 5 8 11 14 17 19 21 22 23 22 21 19 24 31 26 21 21 21 22 23 23 21 19 17 19 21 23 26 30 34 33 29 27 25 24 24 25 24 22 20 18 19 19 20 20 19 20 22 19 18 20 20
3 3 6 9 11 14 17 18 20 22 21 21 20 21 25 31 26 24 23 21 23 25 24 22 22 23 23 27 31 33 34 35 32 30 28 27 25 23 23 22 22 22 22 22 23 22 21 20 20 21 21 20 19 17
4 4 8 10 12 14 15 17 18 21 20 21 20 23 24 26 25 25 27 31 32 33 32 28 29 27 29 32 32 38 36 32 32 32 30 27 24 21 15 14 14 15 15 16 18 17 19 21 21 22 22 21 21 19
4 7 9 11 12 13 15 15 18 24 15 21 20 22 25 22 21 28 29 26 28 36 27 30 29 23 31 34 33 41 36 35 31 27 26 22 17 15 15 15 17 19 20 19 21 22 21 20 19 19 21 23 24 23
6 9 10 10 10 12 15 17 17 21 23 25 27 25 24 26 22 23 28 32 34 25 20 35 28 35 38 41 39 36 33 28 25 24 22 20 21 22 23 23 22 22 23 23 21 24 24 23 22 21 21 21 21 22
9 9 9 8 9 11 14 16 15 19 27 28 29 27 28 27 28 26 29 29 33 29 29 31 29 29 36 35 32 28 26 26 25 25 26 26 25 25 25 25 25 25 25 26 24 22 22 23 24 25 24 23 22 22
9 8 7 7 9 11 14 17 18 17 25 27 31 31 28 30 32 30 33 37 36 33 33 30 30 32 32 29 29 30 29 28 28 29 29 29 28 27 27 27 26 25 24 25 24 23 22 24 25 25 25 25 23 22
6 7 8 8 9 11 14 15 14 18 24 27 29 33 29 27 32 31 33 34 34 35 33 32 30 29 28 29 31 30 28 27 27 26 26 27 28 29 29 29 27 26 24 22 22 22 22 22 22 23 23 24 23 21
6 7 8 9 9 11 14 16 17 17 24 27 29 29 29 32 36 37 40 40 38 36 34 31 31 29 32 32 29 26 27 30 31 31 29 29 28 28 28 27 26 25 25 23 21 19 19 20 20 21 21 22 22 22
8 6 7 10 11 11 13 14 16 18 21 27 30 35 40 35 38 43 44 43 42 41 36 32 31 35 34 31 27 29 31 34 33 33 33 33 32 31 31 29 27 25 22 22 21 19 16 16 17 17 18 19 19 18
11 11 9 9 9 10 12 12 14 17 20 24 25 32 36 40 41 41 42 42 42 41 35 31 35 36 34 26 28 31 32 32 34 37 36 35 35 33 31 29 26 24 22 18 15 14 13 12 13 14 14 14 14 14
11 12 11 9 9 10 9 11 15 17 18 23 27 27 33 36 37 38 39 41 42 41 35 34 37 37 33 28 31 31 30 33 37 39 39 38 33 29 27 23 20 16 12 9 6 7 8 9 9 9 9 9 9 10
12 12 11 11 9 8 10 12 14 17 20 24 30 32 33 36 37 37 38 40 41 39 35 37 39 39 32 31 32 31 31 34 38 41 40 37 33 30 26 22 18 14 10 7 4 1 2 3 5 5 5 5 5 6
12 12 12 11 8 9 10 12 15 19 24 29 31 32 35 37 38 37 38 41 41 38 35 38 40 38 33 33 31 31 32 33 36 39 41 39 35 31 28 25 22 18 14 12 10 8 6 6 6 7 7 6 4 4
11 12 12 11 10 9 8 11 15 19 24 27 30 33 36 37 37 37 39 40 40 37 35 38 40 37 31 31 27 29 31 32 33 34 37 40 40 38 34 30 26 24 21 19 16 14 12 12 12 11 10 9 8 7
12 14 15 14 14 13 14 14 14 18 23 27 31 33 33 35 36 38 40 40 39 37 35 37 39 36 29 27 25 29 31 32 33 32 33 35 38 39 39 37 36 33 30 28 26 24 20 17 14 12 10 9 8 6
12 12 13 13 12 13 15 15 16 19 23 27 31 32 31 33 36 38 40 38 37 36 34 35 38 34 27 23 26 30 31 31 30 30 31 31 32 33 35 36 36 36 35 33 31 29 26 24 22 20 19 17 15 13

GFSWCAN_500_spd_045.txt.gz
Wind_Speed
36 31 25 23 25 28 30 29 26 23 22 24 24 23 10 14 20 24 24 26 31 35 42 46 45 34 34 29 34 32 29 21 20 20 21 21 19 20 18 13 16 16 12 16 39 22 18 56 55 57 57 54 56 54
33 29 23 21 21 25 30 31 28 24 23 23 22 23 11 16 20 23 24 25 29 31 37 41 42 36 27 25 24 26 28 22 23 20 21 22 20 15 11 8 4 3 10 17 30 9 36 59 56 54 54 49 51 54
32 26 21 21 21 23 29 29 29 27 25 26 22 22 21 22 23 23 25 27 27 28 30 37 37 36 37 30 21 24 23 23 19 16 17 15 18 17 19 14 6 6 10 21 48 21 45 48 51 49 46 40 47 55
29 23 20 21 22 22 24 27 27 30 29 25 22 24 23 21 25 26 24 24 26 26 27 31 32 33 34 35 33 34 34 35 26 21 12 10 13 14 18 8 8 7 16 21 22 30 27 51 45 45 46 43 43 54
27 21 19 21 22 22 22 24 28 29 28 26 22 23 22 21 23 22 22 23 25 27 28 28 29 30 32 35 34 31 32 35 36 32 24 16 12 10 11 11 11 9 23 28 26 33 36 37 32 36 37 35 38 45
23 18 18 20 22 21 23 23 25 27 26 23 23 21 21 16 20 21 23 24 24 25 26 25 27 31 25 31 30 29 29 29 30 32 32 27 18 10 5 7 11 10 12 23 33 30 32 30 32 39 43 43 42 40
19 16 18 19 21 21 21 22 22 25 25 24 22 22 21 20 20 21 21 21 24 25 25 26 25 22 25 20 27 27 27 28 27 25 28 27 24 16 5 2 4 6 2 10 36 34 35 35 32 37 34 32 37 44
16 14 17 18 19 19 19 20 22 23 23 24 24 24 22 20 18 17 20 22 22 23 24 25 25 25 25 25 26 27 26 28 26 26 26 23 23 17 14 13 7 5 5 5 24 37 41 32 35 39 40 40 36 39
12 13 15 16 16 16 18 20 21 22 24 24 24 24 21 19 18 18 19 20 21 23 24 24 23 23 22 24 25 26 27 28 27 26 24 23 20 19 18 13 13 12 2 12 7 27 32 35 33 39 36 39 47 46
11 13 13 14 14 16 18 19 20 22 24 25 25 24 22 21 20 21 20 19 20 20 20 21 22 22 20 20 21 23 25 27 27 28 27 25 23 20 18 17 15 12 13 9 11 14 24 41 40 43 49 36 46 49
9 11 10 12 13 15 16 18 21 23 24 25 25 24 22 20 18 19 18 17 17 17 18 20 21 20 20 20 19 20 21 23 24 25 23 23 24 24 21 18 14 11 8 6 4 4 15 25 30 33 40 38 41 38
7 9 8 11 12 14 16 19 22 25 25 25 24 22 22 20 18 18 19 19 18 19 20 20 19 18 18 19 19 19 20 23 24 25 25 24 24 22 21 21 19 16 10 6 5 6 9 10 18 29 33 31 29 34
6 7 7 9 10 13 16 19 22 23 22 22 22 23 24 22 20 18 17 17 18 20 20 19 19 20 19 19 19 20 21 22 24 26 27 28 27 26 24 22 19 18 16 14 9 8 10 13 12 13 21 26 28 39
5 5 6 7 9 11 15 18 21 22 22 21 18 20 27 28 23 21 18 17 18 18 18 18 19 18 17 19 20 21 23 26 29 31 30 29 28 28 28 27 25 23 20 17 16 13 9 11 15 15 15 17 22 27
4 4 5 6 9 12 15 18 19 21 22 22 23 20 22 29 24 20 21 22 25 25 25 22 20 20 20 21 23 23 26 27 30 34 34 30 26 26 27 28 29 28 26 24 21 18 16 12 12 15 14 13 15 23
4 4 4 6 9 12 14 16 18 21 22 20 22 23 25 24 24 21 21 23 25 26 27 29 30 27 25 29 30 31 31 32 32 35 32 29 24 23 23 25 28 29 29 27 24 24 23 21 16 12 14 18 17 14
5 4 4 6 9 11 12 14 17 21 23 19 21 23 26 27 22 20 21 25 27 31 35 37 30 31 33 29 27 29 30 30 39 33 30 28 26 23 23 25 26 27 29 29 26 24 23 24 23 21 17 13 16 20
5 5 4 6 9 11 12 14 16 21 21 18 25 24 25 26 23 23 24 23 28 33 31 32 26 28 32 28 22 22 32 40 36 32 29 27 26 26 24 22 20 19 19 20 20 19 20 23 24 24 23 20 19 17
6 6 5 7 9 11 12 15 17 19 21 22 26 26 26 26 28 26 26 30 33 34 31 31 26 24 35 29 29 37 44 41 31 28 26 24 22 20 17 14 14 16 18 19 19 19 18 18 19 20 21 23 22 22
5 5 7 8 9 10 13 15 17 16 22 27 28 31 28 28 28 30 29 30 33 37 29 25 22 32 31 35 37 40 34 29 28 28 27 26 25 23 22 22 21 20 20 22 22 22 21 20 20 20 20 20 19 20
5 7 8 8 9 11 12 14 17 18 21 26 28 28 34 25 29 31 31 30 31 31 28 26 23 27 29 30 31 27 28 28 28 27 27 27 27 26 26 27 27 28 27 26 26 26 27 27 24 22 22 21 19 19
8 8 8 8 9 11 12 15 16 15 20 24 26 28 29 28 30 32 33 33 31 30 29 26 26 24 26 27 28 27 26 26 28 29 29 28 28 28 28 28 27 27 28 28 28 28 28 29 28 26 24 22 21 19
6 6 7 8 10 11 11 14 15 14 16 19 23 28 32 32 34 35 36 35 33 34 33 27 26 27 29 29 29 26 24 25 28 29 30 31 33 33 32 31 30 28 26 26 26 25 26 26 28 27 26 24 21 21
4 5 7 9 10 11 11 14 16 14 15 21 25 31 33 33 40 38 35 34 35 37 34 29 30 32 32 32 28 24 26 26 28 30 31 33 34 36 35 33 32 30 27 25 24 24 22 22 23 24 25 23 22 20
6 6 7 9 10 12 12 12 13 13 16 22 27 31 36 37 37 37 35 37 38 38 33 31 33 33 34 30 25 27 27 26 28 31 33 34 35 34 32 29 26 29 29 27 22 21 20 19 20 21 21 21 20 19
9 9 8 9 9 9 11 12 12 15 19 23 26 31 34 34 38 38 37 39 40 37 31 33 34 34 33 29 30 29 28 29 32 35 37 36 34 31 30 26 22 25 26 22 21 18 16 15 16 17 17 16 16 16
11 11 11 10 10 11 10 9 12 16 19 23 29 32 32 35 37 38 38 40 40 39 33 34 35 34 30 29 29 29 29 30 33 37 39 38 34 29 27 25 21 15 12 11 10 10 10 10 12 12 12 11 11 11
13 13 12 10 9 8 8 9 12 14 18 24 28 31 33 34 35 38 39 40 40 38 34 36 37 34 29 29 27 31 33 33 34 36 39 38 34 27 25 21 15 11 8 7 3 1 3 5 6 6 6 6 6 5
12 12 12 10 9 9 9 9 11 14 18 22 27 30 32 32 35 39 41 40 40 37 34 37 37 31 27 27 30 32 33 33 34 35 38 39 37 30 26 24 20 16 13 10 8 6 6 7 6 5 4 4 4 4
10 10 11 10 9 9 9 9 12 15 19 22 26 30 32 33 33 36 39 39 39 37 35 36 35 29 26 28 31 31 31 32 33 34 35 37 38 37 32 27 24 21 19 17 15 14 14 14 13 11 11 11 10 9
9 10 10 9 10 10 11 13 14 16 19 22 26 28 29 29 33 35 37 37 37 36 33 34 35 28 25 28 30 29 29 29 31 32 33 33 35 36 37 36 34 31 28 25 23 21 20 17 16 15 15 14 13 12
12 13 14 11 12 11 12 12 14 16 19 21 24 26 28 30 34 36 35 34 34 34 32 33 34 26 23 27 28 27 27 29 30 30 30 31 32 33 33 35 35 35 33 31 29 26 23 20 17 15 14 13 12 10
13 13 11 13 16 14 13 13 14 15 20 22 24 26 27 30 32 35 33 31 33 32 31 30 32 28 22 24 26 25 26 27 27 28 28 29 29 31 32 32 32 32 32 31 31 30 28 27 25 23 21 19 17 16

GFSWCAN_500_spd_048.txt.gz
Wind_Speed
36 35 31 26 23 23 24 25 26 31 29 25 19 20 21 15 17 20 18 19 20 22 23 24 25 27 27 24 24 20 19 17 18 17 15 13 10 9 10 9 7 8 12 22 17 16 11 25 45 44 51 55 55 64
33 34 28 24 23 23 23 24 26 29 29 27 20 20 20 18 19 23 21 19 21 21 22 21 22 25 24 28 26 21 18 19 16 19 17 15 13 7 6 3 4 3 1 2 6 6 5 35 40 45 42 48 49 47
32 32 25 22 23 24 23 24 26 27 27 26 22 21 19 16 18 18 20 21 23 21 17 19 21 24 30 28 26 28 26 24 29 17 20 17 13 8 8 7 3 4 6 2 5 5 18 46 48 42 45 43 41 44
30 29 21 21 22 24 23 23 23 25 26 24 22 20 18 16 19 20 21 21 21 20 17 18 23 26 22 29 28 27 27 29 29 28 26 24 22 14 6 4 2 1 3 5 6 11 31 49 34 51 41 37 43 43
29 23 17 19 20 21 21 21 22 23 24 23 21 21 20 19 20 19 18 19 21 22 23 23 23 24 26 26 25 25 25 27 29 28 27 25 22 21 15 7 2 6 6 5 8 17 40 48 39 53 44 38 39 44
26 18 15 17 18 18 20 21 22 23 22 22 24 23 20 20 18 18 18 18 19 20 21 22 24 25 26 25 24 25 24 24 25 25 24 24 27 24 22 18 6 2 8 12 8 18 30 42 34 31 33 37 34 42
23 14 13 14 15 16 17 19 19 21 22 23 23 22 20 18 17 18 17 17 19 19 20 22 22 22 23 24 25 25 26 26 24 23 20 21 21 22 20 15 12 7 4 12 13 19 19 41 42 35 35 37 40 41
19 11 11 11 12 14 16 17 19 22 23 24 23 22 21 19 17 16 16 17 19 19 20 21 22 22 21 20 21 23 25 25 26 27 26 23 20 20 19 19 15 8 11 6 9 13 24 21 32 26 33 43 36 39
16 10 9 8 11 12 14 16 19 21 23 24 24 23 21 19 18 18 19 20 20 21 20 21 22 20 20 20 19 20 22 22 22 23 23 24 24 20 19 19 16 13 12 12 17 4 21 25 25 32 35 40 39 36
12 8 7 7 9 11 13 16 19 21 23 23 23 23 21 20 18 17 18 19 19 19 19 20 20 19 18 19 18 18 20 21 21 22 22 22 22 22 20 19 16 14 14 14 12 11 13 30 31 33 35 29 37 35
9 6 6 7 7 9 12 15 18 20 21 21 21 24 22 21 20 18 16 15 16 17 18 19 19 17 17 18 17 18 19 20 22 24 24 24 24 22 21 17 16 14 10 8 6 7 10 16 25 38 38 33 39 40
8 6 4 6 6 8 12 15 17 19 19 18 17 21 25 21 19 20 21 21 20 20 20 18 16 15 15 15 15 15 17 21 24 25 27 28 27 24 21 19 18 15 13 13 11 8 4 4 11 10 21 34 35 35
7 5 4 5 5 8 12 14 16 19 19 19 18 18 19 23 20 16 15 16 17 19 20 21 20 21 20 19 18 20 24 25 31 31 32 29 29 27 22 21 19 18 15 12 10 10 9 9 8 11 15 19 24 22
6 6 5 4 4 7 11 13 15 20 20 17 20 22 22 22 22 19 18 19 21 21 23 24 26 27 28 22 23 26 29 27 28 30 26 33 32 29 23 19 19 18 17 15 13 13 11 10 10 13 16 15 16 21
5 6 6 4 3 6 10 12 15 19 20 17 22 24 24 24 20 19 18 21 22 22 28 31 32 34 35 28 27 28 26 26 23 26 32 26 26 28 25 22 19 19 19 18 18 16 14 14 13 13 14 16 18 18
6 6 6 5 4 6 9 11 13 18 19 17 22 25 25 23 22 21 23 20 24 30 32 28 36 35 34 25 29 28 15 13 24 25 25 25 23 22 24 26 25 22 20 20 19 18 17 16 15 15 16 16 18 19
6 6 6 5 5 7 10 11 12 14 18 18 21 25 27 25 23 23 24 26 28 31 34 32 31 37 46 21 26 19 22 37 34 27 26 25 23 23 22 23 23 22 20 16 14 13 13 14 16 16 17 18 20 18
5 6 7 5 6 8 10 11 10 10 15 20 21 24 29 25 23 25 24 23 23 27 32 30 26 26 23 18 19 34 36 37 36 28 27 25 24 22 21 20 20 18 18 17 15 13 12 11 11 13 15 18 20 21
5 6 6 6 6 7 9 10 12 12 15 19 21 23 25 25 26 26 26 26 27 28 30 31 31 30 28 29 32 31 29 30 30 29 26 26 26 25 24 23 22 22 22 22 20 19 17 15 13 13 15 16 17 19
5 5 6 6 7 8 8 9 12 13 12 18 20 24 27 28 30 31 30 28 28 29 29 29 26 25 23 24 25 27 29 29 27 25 25 26 26 25 25 24 24 24 24 25 25 25 24 23 20 18 16 16 18 18
4 6 7 8 8 7 8 11 13 12 12 16 21 25 29 28 32 33 30 30 30 29 29 25 22 24 26 27 27 27 26 25 24 26 27 28 28 27 27 26 25 25 25 25 26 26 25 25 25 24 22 20 19 19
6 8 9 8 7 7 9 10 12 15 14 15 21 26 30 29 31 32 31 31 28 31 27 23 25 29 28 28 27 24 23 23 24 29 29 30 32 34 34 34 33 30 30 29 27 26 26 25 24 25 25 23 22 20
7 8 7 6 7 9 9 10 13 13 11 16 21 26 29 29 30 33 31 31 30 30 26 27 31 35 31 28 25 25 27 27 27 29 31 33 34 34 36 37 36 33 29 27 25 25 24 24 23 23 21 21 21 20
4 4 4 5 8 9 9 11 11 12 15 17 20 26 29 29 31 31 31 28 32 30 26 26 32 35 31 28 27 25 27 28 29 30 33 35 35 34 33 30 27 24 22 22 22 19 18 19 19 19 19 18 18 19
3 3 4 5 7 9 9 9 9 9 12 16 21 26 30 30 27 31 33 32 34 31 29 31 33 32 27 27 27 29 30 30 30 33 35 36 36 32 26 26 25 24 22 18 24 27 25 19 17 16 15 13 14 14
6 6 7 8 8 9 9 7 7 10 11 16 22 26 30 29 26 30 35 34 34 32 31 32 33 28 26 27 29 31 32 31 31 33 36 37 34 28 24 24 23 19 17 15 15 15 10 10 11 11 11 9 10 10
9 10 9 8 8 9 8 8 9 11 13 16 21 25 30 30 28 30 35 35 34 33 32 33 31 26 26 29 30 31 31 31 32 34 36 37 35 27 24 23 20 17 12 9 8 4 3 6 7 6 6 6 6 7
10 10 10 9 8 9 9 10 11 12 14 17 21 24 28 28 28 29 32 32 33 33 32 33 30 25 27 29 30 30 31 32 33 33 35 37 39 34 27 23 21 17 13 10 7 7 6 5 4 4 5 4 5 6
10 9 9 9 9 9 10 11 10 14 17 18 20 23 26 25 27 31 32 30 31 32 31 32 29 23 27 29 29 29 30 31 32 35 36 37 39 40 36 29 24 22 20 18 17 15 13 12 12 11 10 9 10 10
8 7 9 9 9 9 10 9 12 14 15 17 19 21 24 27 31 33 35 31 30 30 31 31 29 23 25 28 28 28 29 29 30 31 34 35 36 37 39 39 35 30 27 25 24 22 21 19 17 16 15 13 12 10
7 8 10 11 11 11 11 13 14 14 14 15 17 20 24 26 29 30 30 31 29 30 30 29 29 23 22 26 27 27 27 27 27 28 30 31 33 34 35 36 37 36 32 29 26 24 23 21 20 18 16 14 13 11
9 11 12 11 10 13 13 14 18 16 14 14 16 16 21 23 25 31 35 25 28 28 28 27 27 25 22 23 25 25 25 24 25 25 26 28 29 30 32 33 33 33 33 32 29 26 22 20 18 17 15 15 14 13
11 13 12 12 13 16 14 15 19 21 22 17 17 15 19 22 25 30 32 26 23 26 26 25 25 26 24 21 21 24 23 23 23 23 23 23 24 25 27 28 29 30 30 29 28 27 26 24 23 22 21 19 18 17

GFSWCAN_500_spd_051.txt.gz
Wind_Speed
27 29 31 27 23 23 24 23 24 26 25 26 23 19 20 16 15 17 18 16 17 16 11 12 16 21 24 20 24 22 16 14 16 21 19 17 14 13 13 11 8 6 11 15 17 28 28 25 35 52 57 58 62 70
26 28 29 22 20 21 21 22 22 23 25 25 21 19 20 17 16 17 18 18 18 15 11 13 20 22 20 21 21 22 16 16 14 21 23 17 13 11 13 14 9 3 4 11 17 16 16 6 14 27 37 35 53 62
23 26 25 18 18 19 19 20 21 22 23 24 21 18 17 16 17 17 15 16 18 18 11 14 21 22 22 22 20 21 23 22 22 25 25 24 18 10 9 9 9 6 7 6 7 6 8 3 8 29 35 41 40 59
21 24 20 15 15 16 17 18 20 22 22 22 22 21 18 15 14 13 14 15 17 18 19 20 20 21 24 25 24 21 21 21 23 25 24 23 21 16 13 7 3 4 3 6 9 9 2 5 10 29 28 25 41 31
19 21 14 12 13 13 15 17 19 20 21 22 21 20 20 17 14 15 15 15 18 20 21 20 19 21 23 23 25 26 23 21 21 23 24 23 21 17 17 15 15 10 4 5 7 3 10 4 12 37 27 42 32 34
18 18 11 10 10 11 14 16 18 20 22 22 22 20 18 18 17 16 15 15 17 18 19 20 17 18 20 21 22 24 25 25 25 26 23 23 25 27 26 22 19 18 16 15 13 6 5 7 10 29 35 33 34 37
16 14 8 8 9 10 12 14 17 19 21 21 22 21 19 17 16 15 15 16 17 17 18 19 18 18 19 20 20 20 22 23 24 25 27 29 29 27 26 25 23 21 19 17 15 12 10 11 14 16 35 37 37 36
14 11 7 7 7 9 11 13 17 19 20 19 21 20 19 18 16 15 15 15 16 16 18 20 19 17 17 18 18 18 19 20 22 22 23 24 26 27 27 26 24 24 22 18 14 15 11 12 23 21 23 31 48 38
12 9 6 6 6 7 9 12 15 17 19 17 20 22 20 20 18 15 15 15 16 17 18 17 15 13 15 15 17 17 17 18 21 23 24 24 23 24 26 25 24 24 22 21 18 15 10 9 15 19 21 29 35 44
10 7 5 5 3 5 7 11 15 16 18 17 17 21 21 19 17 15 15 17 16 17 16 14 15 16 16 15 16 16 16 16 19 25 25 25 23 25 28 27 25 22 22 22 22 20 16 2 15 17 29 29 29 39
9 6 5 4 2 3 7 11 15 17 16 17 19 20 19 20 17 17 17 17 19 18 19 18 18 19 18 19 18 17 18 19 21 27 27 26 24 25 26 26 26 24 20 18 18 15 13 9 7 19 23 23 25 30
8 6 6 3 2 3 7 11 13 17 17 16 19 21 20 20 18 17 18 19 20 22 23 23 24 23 26 28 26 21 20 24 24 28 25 22 25 29 31 28 21 21 21 18 16 15 12 10 9 5 12 21 25 34
7 7 6 4 2 3 7 10 12 16 17 15 20 21 20 22 20 18 16 17 22 22 22 28 29 26 29 36 33 16 18 20 27 20 16 22 22 28 26 24 19 17 16 18 16 14 13 11 8 9 9 6 18 31
7 8 7 5 3 3 6 8 10 14 16 14 18 21 22 23 23 22 22 23 21 22 29 29 31 30 30 31 31 14 18 20 15 13 16 20 15 22 21 20 19 17 17 15 17 16 15 14 14 12 12 10 10 15
8 8 7 6 5 4 7 8 8 12 15 13 16 21 24 22 21 24 22 21 23 26 31 31 36 35 34 26 19 14 16 11 13 18 24 18 18 19 18 20 20 20 20 20 18 18 15 17 17 18 16 17 17 16
8 8 7 7 5 5 7 8 9 9 12 16 17 19 24 22 21 22 23 26 25 25 29 32 35 32 23 27 18 24 16 21 24 30 25 22 22 20 19 20 20 19 18 17 17 17 17 16 17 19 20 18 16 20
7 8 8 7 6 6 6 8 9 9 10 16 14 19 21 22 23 24 26 27 27 29 31 32 34 35 31 27 23 28 29 23 25 29 30 26 23 21 21 21 22 22 19 15 13 12 13 13 13 17 20 20 20 19
7 8 8 6 6 6 6 7 8 9 11 12 13 19 21 21 24 27 28 28 28 30 32 33 32 31 29 28 25 25 25 28 28 27 25 22 20 22 23 22 21 21 21 20 19 16 15 15 14 13 14 18 20 22
7 8 7 7 7 7 7 7 8 11 11 12 13 19 23 24 24 28 31 30 29 29 30 32 28 26 28 28 27 26 28 29 28 25 20 20 22 23 23 23 22 21 20 19 19 21 21 19 19 18 17 16 17 20
7 6 6 7 7 7 7 7 9 11 11 12 14 18 22 25 25 29 31 31 29 31 31 28 26 28 31 30 27 26 25 23 26 22 24 27 26 27 27 27 28 26 25 24 22 21 20 22 24 23 22 21 20 18
6 5 6 6 7 7 7 8 9 11 13 13 14 18 23 26 26 29 32 33 28 33 29 27 26 30 32 27 25 24 23 25 23 22 25 27 29 30 32 33 32 28 28 26 27 25 24 22 21 21 23 25 25 23
5 6 7 7 7 7 7 8 9 11 12 11 15 19 23 26 26 28 31 31 28 34 30 28 29 31 29 25 25 24 24 25 26 27 27 28 31 33 33 34 31 27 32 30 30 26 24 23 21 21 20 21 23 24
6 5 5 6 7 7 7 8 9 10 9 12 15 19 24 27 26 25 31 33 35 33 31 29 31 29 23 22 24 27 28 28 28 30 31 32 34 33 33 32 27 22 21 17 17 23 14 16 18 20 19 19 19 20
2 2 3 5 5 7 8 8 8 8 8 10 15 20 23 26 25 25 29 37 36 34 33 32 31 25 26 27 27 27 30 31 31 30 32 35 37 36 31 27 22 21 17 18 17 15 17 23 17 17 18 17 18 18
3 1 1 2 4 6 7 7 7 6 8 11 15 20 23 26 24 25 31 37 37 35 33 34 34 25 25 27 29 31 30 32 33 33 34 36 36 33 28 23 19 21 23 20 13 12 17 21 24 18 14 14 15 15
4 3 4 4 5 6 7 6 6 8 10 13 15 18 21 23 22 26 32 34 33 34 32 32 31 25 27 27 27 29 30 32 33 33 34 35 35 30 24 18 18 16 12 9 3 5 11 16 11 9 10 12 12 12
5 6 7 6 6 6 7 7 8 9 10 13 16 19 21 23 25 30 33 33 30 33 32 32 30 23 26 27 27 28 28 29 32 33 33 35 38 31 24 20 18 15 11 8 4 8 9 10 7 5 6 7 8 8
6 8 8 7 7 8 6 7 8 10 13 19 15 17 20 22 25 29 29 30 30 31 31 30 29 24 25 27 26 26 26 27 28 31 32 36 39 38 31 25 23 22 19 17 15 12 9 9 9 7 8 7 6 6
9 8 8 8 9 9 9 9 8 8 24 17 16 17 18 18 24 29 22 27 37 27 29 29 29 23 22 25 26 27 27 28 28 29 32 34 35 38 38 34 28 26 25 23 21 20 18 16 14 12 10 9 7 6
10 8 9 10 10 11 7 16 15 16 19 20 21 19 17 18 18 25 31 31 27 26 27 28 28 27 22 23 25 25 25 25 26 27 29 31 32 33 34 35 33 32 30 29 28 26 24 22 20 18 16 14 12 10
9 8 9 12 13 14 12 16 19 19 21 25 27 25 20 16 16 23 27 30 31 25 25 25 26 26 24 21 23 24 24 23 23 23 24 25 27 29 30 31 32 31 28 26 25 24 22 21 19 17 15 13 12 10
9 9 10 12 17 12 14 18 17 19 23 25 29 38 25 21 15 20 25 28 30 21 23 25 24 24 23 21 20 22 23 22 21 20 20 21 21 23 24 26 27 28 28 27 26 25 24 22 20 19 17 16 14 12
8 10 13 14 13 13 15 19 18 19 22 26 28 23 24 21 16 20 24 26 31 28 20 22 22 22 21 21 20 19 20 20 20 19 20 20 20 20 20 21 21 22 22 23 23 24 24 24 24 23 22 21 20 18

GFSWCAN_500_spd_054.txt.gz
Wind_Speed
21 15 21 19 14 16 17 19 21 23 24 25 24 21 18 16 17 18 16 17 17 16 14 15 19 21 18 19 18 20 20 19 12 12 15 17 16 15 15 12 9 10 11 16 20 25 28 33 43 55 56 59 63 72
16 15 19 13 12 13 15 17 19 21 22 24 23 22 18 16 16 13 14 16 17 18 16 16 19 20 22 22 21 19 18 19 18 15 19 20 20 20 16 12 11 6 11 16 22 23 23 24 31 38 46 58 66 73
10 14 18 9 9 10 13 16 18 20 22 23 22 21 19 15 13 14 13 14 16 16 13 11 13 19 21 21 23 22 21 18 17 19 23 23 23 20 18 16 13 14 13 14 15 16 17 13 19 23 29 38 41 59
6 13 15 6 7 9 11 15 17 20 21 22 23 20 18 16 15 16 14 15 17 17 18 17 15 14 16 20 22 23 22 23 23 23 23 25 25 24 20 16 14 14 10 9 9 8 8 9 13 18 12 17 28 37
6 13 11 5 7 7 10 13 16 19 19 21 22 19 18 15 14 15 14 15 16 17 18 18 14 15 14 17 19 21 22 23 22 19 24 24 25 25 25 27 22 18 17 13 12 12 7 4 9 9 9 9 18 37
7 12 9 5 6 6 8 11 15 17 18 18 21 19 18 16 14 14 14 15 16 17 15 15 15 15 16 16 17 20 20 20 21 22 23 22 23 26 27 27 27 29 28 20 20 16 13 6 4 2 5 7 19 34
5 11 7 5 5 4 6 9 12 16 17 16 20 19 19 18 17 15 15 15 14 14 14 14 14 14 17 16 15 15 17 18 21 25 28 29 25 24 24 25 28 27 25 30 24 18 16 11 4 6 4 11 17 25
5 10 6 6 4 2 4 8 11 14 16 16 17 20 19 18 16 15 16 17 16 16 18 15 16 14 17 16 15 15 15 14 15 21 27 29 27 25 23 24 26 27 28 25 25 25 19 20 6 7 8 12 17 29
9 9 7 6 3 1 3 7 11 13 15 17 18 18 19 19 17 15 15 17 18 19 19 20 19 17 20 19 21 21 21 18 18 17 23 26 24 21 22 24 25 26 26 28 29 28 29 21 16 4 7 14 16 21
9 9 8 6 3 3 3 7 11 14 14 14 18 20 20 20 19 16 15 16 16 18 20 21 22 22 23 24 25 27 27 23 20 19 23 26 25 23 26 25 23 23 25 22 21 21 23 24 19 10 1 7 16 22
10 9 9 6 4 4 4 6 10 14 15 13 17 19 19 21 19 17 17 18 19 21 20 20 25 26 28 29 28 28 20 19 18 22 21 24 21 20 28 26 24 23 22 21 20 18 19 21 20 19 9 2 5 13
11 9 10 7 6 5 4 6 8 12 15 13 17 21 21 21 20 22 22 26 29 25 26 28 29 30 33 36 38 22 29 20 15 18 16 15 16 20 27 31 31 23 21 21 19 19 18 16 18 18 17 13 5 5
12 10 10 8 7 7 4 4 5 10 13 11 15 20 20 21 19 22 30 23 19 27 23 38 25 29 40 42 36 22 27 10 17 15 16 20 21 23 24 29 30 30 23 22 21 20 20 18 14 15 16 14 12 11
11 11 11 9 8 8 6 5 5 8 11 11 14 16 19 19 24 19 24 22 32 30 31 33 35 38 35 34 35 36 8 14 11 11 18 24 27 25 22 26 26 26 24 22 20 21 21 21 18 12 13 12 10 9
10 11 11 10 9 8 7 5 5 8 9 13 12 14 17 20 22 18 20 29 31 33 30 33 36 34 31 28 26 23 21 21 20 22 20 25 28 25 24 23 20 21 23 21 22 19 19 21 21 17 11 14 15 11
11 12 11 10 9 8 7 5 6 9 9 10 12 13 17 14 18 22 26 28 30 30 28 35 33 31 27 28 26 25 23 21 21 25 28 26 24 21 20 19 19 19 20 22 20 18 17 18 18 19 18 13 15 16
11 11 10 9 9 8 7 6 7 8 9 10 12 14 20 23 26 20 34 33 34 31 32 35 32 27 25 28 28 27 25 24 24 26 26 23 20 19 21 22 20 20 20 19 20 20 17 15 17 16 17 18 17 15
11 10 10 9 9 8 6 7 7 8 10 11 12 14 18 21 20 28 29 31 32 28 34 32 29 28 29 30 31 27 27 27 27 23 25 21 18 21 21 21 21 21 22 24 22 21 20 21 19 18 17 16 19 18
10 10 8 8 8 6 6 7 8 9 11 13 14 16 19 19 18 25 21 34 33 32 35 30 30 30 31 34 31 28 26 27 26 25 25 25 25 26 25 23 25 25 26 25 26 26 23 22 23 23 21 20 19 18
11 8 7 7 7 7 7 7 8 9 11 13 14 13 19 30 14 27 25 29 40 37 36 32 30 30 31 28 24 22 24 25 25 23 27 28 28 30 31 32 30 30 28 21 19 25 24 23 24 24 23 26 25 21
10 8 7 7 7 7 7 8 9 11 12 13 12 15 14 20 25 28 27 28 37 39 36 34 33 34 26 24 25 25 26 26 26 26 27 26 29 30 31 31 29 31 29 15 16 21 21 21 18 22 21 25 27 27
9 8 8 7 8 8 8 8 9 11 11 10 11 14 23 23 26 26 25 29 34 36 35 35 33 32 26 25 25 26 26 26 28 29 29 27 35 33 33 25 32 26 10 10 6 3 11 26 29 22 20 21 23 24
8 8 8 8 7 7 8 9 9 9 9 9 11 14 19 22 24 24 25 33 35 33 33 34 34 31 25 27 26 25 28 29 29 31 31 31 34 36 35 27 22 15 14 21 25 28 29 25 17 23 24 18 19 21
7 6 6 6 5 5 7 8 8 7 7 9 9 18 19 22 25 25 27 35 36 34 31 36 33 30 25 29 29 28 29 30 30 33 34 35 37 37 24 23 29 24 18 16 13 19 23 19 22 17 17 20 17 18
5 4 3 3 3 5 7 7 6 7 8 12 16 18 20 23 24 22 26 30 34 31 29 32 33 32 26 29 29 30 31 31 33 34 36 37 40 32 24 19 17 20 17 13 10 8 14 1 17 16 15 20 16 17
3 1 1 4 5 6 7 7 7 12 4 14 15 18 8 26 26 26 31 33 36 29 31 31 31 31 26 27 28 27 29 29 30 32 35 37 38 32 26 22 18 15 10 4 4 2 8 18 19 20 18 13 11 11
2 2 4 5 5 5 8 10 9 4 13 15 23 11 25 22 21 25 24 27 38 36 37 31 31 31 28 25 26 26 27 28 29 30 32 35 38 38 31 27 22 18 14 9 9 6 7 7 4 5 4 3 6 7
2 4 4 4 5 6 7 9 11 12 19 16 18 20 28 9 33 34 30 27 30 36 33 28 26 28 28 26 25 25 23 23 25 28 30 33 36 37 36 31 27 25 22 18 15 10 8 9 8 6 4 4 3 3
7 7 6 5 7 9 10 10 14 12 8 13 16 24 28 31 33 32 29 28 30 32 31 26 27 28 28 27 24 25 25 25 24 25 26 28 31 33 33 31 31 30 29 27 24 21 19 17 16 15 14 13 11 10
11 10 8 6 8 12 16 17 13 18 15 26 28 25 29 33 36 32 28 26 29 29 29 25 25 25 26 26 23 22 23 23 22 21 22 24 26 27 29 29 29 28 26 24 23 22 21 20 18 17 15 14 13 11
11 10 7 8 14 15 19 18 11 14 19 20 23 26 25 30 31 24 21 24 27 32 28 21 23 24 24 25 24 20 21 21 21 20 20 20 20 21 22 23 25 26 26 25 24 23 22 21 19 18 17 16 14 13
9 9 9 11 13 15 18 13 10 21 24 25 22 24 27 29 18 12 19 19 22 27 29 21 23 22 23 23 22 20 18 19 18 19 19 19 19 20 20 19 20 20 21 23 24 24 24 24 23 22 21 20 18 17
9 11 14 14 22 21 19 15 19 20 22 21 20 23 16 18 15 12 22 24 25 27 24 21 21 22 22 21 20 19 16 17 17 17 17 16 17 19 20 20 20 20 19 19 19 20 21 22 22 23 24 24 24 24

GFSWCAN_500_spd_057.txt.gz
Wind_Speed
43 31 11 14 12 10 11 16 19 19 21 23 24 22 20 17 15 15 15 18 18 18 17 16 19 18 17 18 19 17 15 16 15 12 11 11 10 10 11 10 11 12 15 18 19 20 24 25 32 44 46 51 64 69
36 32 12 12 9 8 10 14 18 18 18 22 22 21 20 16 15 17 16 17 18 17 18 17 19 18 18 19 22 22 22 18 17 15 15 16 17 17 16 14 13 14 16 15 19 21 27 25 26 34 42 48 55 63
35 24 8 11 7 6 9 13 15 17 17 20 20 20 19 17 15 15 15 16 17 17 16 14 11 13 14 15 16 18 19 21 18 19 19 20 20 22 22 22 16 14 15 16 16 20 19 23 26 34 37 39 41 51
32 25 7 9 6 6 9 12 13 15 16 18 18 19 19 17 15 15 16 16 16 16 15 13 12 14 14 14 15 17 19 21 21 22 21 20 20 21 21 22 25 25 18 14 16 19 18 20 21 27 33 34 36 39
38 15 6 8 6 6 8 10 11 14 15 15 17 17 18 17 16 14 15 16 16 15 14 12 11 10 12 11 12 13 15 16 17 19 23 23 22 21 21 20 21 23 25 25 19 14 12 14 17 22 26 25 27 33
33 10 4 7 6 6 6 8 9 12 15 15 16 16 16 17 16 15 15 14 15 15 16 16 14 15 11 19 16 15 14 15 16 19 20 21 20 21 23 22 21 22 24 27 27 26 17 12 10 14 19 20 18 21
32 5 5 7 6 5 7 7 8 10 12 16 17 18 17 16 15 15 15 14 15 15 15 15 18 20 20 22 21 19 21 22 21 18 21 24 23 20 19 24 23 22 22 23 26 27 30 18 14 10 14 14 11 12
22 4 7 7 6 5 6 6 8 11 12 13 18 19 18 19 18 16 16 16 15 16 18 19 20 17 20 21 24 24 21 27 26 22 22 21 23 23 22 22 25 27 25 23 25 26 27 31 22 14 8 13 13 10
15 2 7 7 6 5 7 6 7 11 12 12 17 20 19 21 19 18 17 17 17 17 19 20 15 19 19 20 16 22 30 26 26 27 18 20 22 25 21 21 28 29 31 29 26 25 24 24 30 21 11 10 16 15
6 6 6 8 7 7 8 7 7 9 12 10 15 17 19 19 20 19 19 20 22 21 20 16 17 11 39 22 25 35 33 22 20 21 17 18 20 19 18 21 28 30 30 31 30 26 24 23 22 27 18 9 10 18
4 8 7 9 8 9 9 7 7 7 9 8 13 16 15 17 19 18 18 29 30 21 21 35 31 36 38 36 43 44 37 27 20 20 13 13 15 19 21 25 29 28 29 28 30 27 24 21 21 21 23 22 7 3
6 8 8 9 9 10 10 7 6 6 8 8 12 14 14 17 20 22 18 31 20 33 31 32 30 34 40 43 38 33 33 28 22 19 10 11 17 20 26 28 30 30 29 25 25 25 25 20 18 19 19 21 21 6
9 9 9 11 11 11 12 8 6 5 7 8 12 12 15 17 21 24 26 30 26 35 33 31 28 34 32 31 28 27 25 17 12 12 14 18 14 29 29 29 29 31 29 23 21 23 24 24 20 17 16 16 17 20
10 11 10 13 12 12 14 11 8 7 8 8 12 12 16 18 16 21 22 32 28 31 34 35 29 42 32 26 26 26 21 17 18 17 21 21 26 27 27 27 29 27 26 21 23 20 23 25 20 18 15 14 13 14
11 11 11 12 12 12 13 11 7 8 9 9 12 13 17 20 20 16 21 27 32 33 30 32 35 29 26 25 27 27 25 22 21 21 22 25 25 25 26 25 26 28 25 26 23 22 21 23 22 16 16 14 13 12
12 10 11 12 11 13 13 10 8 9 7 10 12 14 16 21 28 28 29 23 32 32 30 35 31 30 28 27 27 26 26 23 23 25 23 21 25 27 24 24 26 27 26 24 23 23 22 22 23 20 13 14 11 10
10 11 11 10 11 13 12 9 9 8 8 10 13 13 17 21 19 28 17 26 30 33 31 32 30 30 30 27 25 24 24 21 23 27 26 18 19 25 27 27 26 26 26 26 26 26 25 22 22 23 16 12 13 8
10 11 9 10 11 12 11 10 9 8 10 12 13 14 17 21 16 25 24 24 25 33 35 32 32 31 24 26 26 24 23 25 25 26 29 25 27 36 32 28 28 27 26 26 26 26 28 24 22 22 22 16 14 9
10 11 11 10 10 12 11 10 10 9 9 11 13 15 13 12 23 22 23 21 25 34 35 34 37 36 31 26 23 22 24 24 25 25 26 25 28 34 25 27 35 33 29 23 18 16 12 22 23 25 25 24 18 15
11 12 11 10 10 10 10 10 9 9 10 14 16 15 10 17 19 22 22 23 33 36 39 37 35 34 33 27 26 26 26 26 28 27 27 27 29 20 28 41 42 38 31 28 22 19 17 20 11 21 27 24 21 19
12 12 10 9 10 9 9 9 9 10 12 12 14 24 12 23 21 23 26 28 30 30 32 32 34 33 31 25 25 27 26 25 26 27 31 32 32 31 29 33 42 43 31 30 34 32 20 19 23 28 24 18 18 17
12 11 10 9 8 7 9 10 9 10 12 12 13 16 8 20 23 26 26 27 34 34 34 31 30 34 32 27 27 28 26 26 27 29 31 33 34 35 35 29 33 32 20 21 7 9 16 22 16 12 18 23 28 21
11 10 9 9 7 6 8 8 10 11 13 12 10 12 15 19 19 22 24 28 34 34 38 35 27 32 33 28 24 26 28 28 28 31 34 37 38 38 33 26 18 22 18 18 16 22 21 19 22 11 14 18 26 25
9 8 7 6 5 5 7 8 10 11 10 10 12 13 11 20 17 23 20 23 26 32 38 41 35 33 32 31 29 28 30 30 31 32 35 38 41 36 31 24 16 18 26 29 28 20 19 22 14 16 13 19 20 20
6 5 4 4 5 6 8 10 11 12 11 16 17 22 22 21 11 19 20 25 30 37 36 37 33 32 32 30 28 29 29 29 29 31 32 36 39 38 35 31 23 14 11 8 6 5 8 16 17 20 24 25 25 24
5 3 3 4 5 7 8 9 9 13 16 18 14 15 29 33 19 18 23 34 35 38 36 36 33 32 29 28 26 26 26 26 27 29 31 33 37 38 36 33 29 27 18 8 10 4 4 2 7 12 17 22 25 25
4 1 1 3 4 6 8 9 9 16 14 15 12 12 16 14 23 25 32 37 37 30 31 33 34 31 29 28 25 23 24 24 23 24 26 29 33 35 36 36 33 29 26 21 15 13 12 8 6 7 11 9 6 3
2 2 3 4 6 7 9 13 16 18 20 22 12 12 16 22 25 27 32 39 30 28 31 32 27 26 29 28 26 22 20 21 21 21 24 27 29 32 34 32 31 31 31 28 24 21 17 14 12 11 9 8 7 6
6 7 8 9 9 11 13 15 14 19 22 24 23 14 14 21 23 32 30 29 28 29 28 31 26 25 26 29 28 26 24 24 23 22 22 22 24 25 28 30 30 29 27 25 24 23 22 21 20 19 17 15 13 12
11 12 12 11 11 11 16 19 19 19 22 12 16 18 22 25 30 27 22 22 25 27 29 29 26 29 28 28 26 24 22 22 21 21 21 22 23 23 22 23 26 28 28 26 25 24 22 21 19 18 16 15 14 13
14 13 13 13 14 13 15 23 25 27 25 11 12 21 20 21 21 22 20 20 28 32 30 27 25 25 27 25 22 20 18 20 19 20 20 21 21 21 21 21 20 22 24 26 27 27 26 25 24 23 21 19 17 16
13 14 12 12 13 15 20 30 18 19 26 9 18 18 18 19 19 19 22 25 25 25 28 25 19 23 24 22 20 17 16 18 18 17 16 18 20 20 20 19 18 18 18 19 21 23 24 25 26 27 27 26 25 24
10 11 9 13 16 21 24 10 7 12 16 18 16 17 17 16 16 21 24 20 21 24 22 19 19 20 22 20 18 13 12 16 16 16 15 15 17 18 19 18 18 19 18 17 17 17 18 19 20 21 22 23 24 25

GFSWCAN_500_spd_060.txt.gz
Wind_Speed
38 33 32 16 7 7 6 11 15 19 20 20 20 19 18 16 16 15 16 16 18 17 17 17 17 17 16 14 14 13 13 13 13 10 6 7 8 8 7 8 10 14 18 19 19 23 27 23 24 30 45 54 61 70
37 32 31 20 9 5 6 9 12 18 18 18 18 19 17 15 14 14 15 16 17 17 16 15 16 18 16 13 15 15 17 17 15 13 12 11 12 12 13 13 12 11 12 15 20 21 25 23 24 27 30 41 53 60
38 32 26 18 3 6 8 9 11 16 15 16 16 18 18 15 14 13 14 14 14 14 12 13 12 15 17 13 12 11 13 15 16 17 17 13 13 12 12 11 12 14 18 17 17 19 22 22 22 23 27 34 37 49
35 22 25 6 6 7 10 8 8 12 14 15 16 16 18 17 15 13 12 13 12 11 9 9 11 9 14 12 10 11 13 16 17 17 17 15 13 13 13 15 16 16 17 16 17 21 21 24 23 26 30 30 31 37
34 22 20 8 7 9 9 7 6 9 13 15 15 16 15 16 15 15 15 15 15 14 14 13 11 11 13 7 11 12 13 16 14 12 15 18 17 14 11 13 17 18 19 20 19 19 20 23 23 26 30 32 31 31
27 22 25 8 8 9 8 7 4 8 11 13 16 17 17 18 17 16 16 16 17 18 17 16 17 17 13 10 17 16 17 14 17 19 14 14 19 18 14 14 15 17 20 22 23 24 23 21 23 22 26 31 32 30
25 20 18 8 9 10 9 6 4 8 10 10 14 15 16 18 17 17 18 18 18 18 18 17 15 17 16 17 17 13 14 17 22 18 20 19 18 16 17 18 13 17 22 25 27 28 28 24 22 24 22 22 25 28
21 23 12 7 10 11 9 7 3 7 9 8 10 13 15 16 18 19 19 21 23 20 22 23 21 26 24 22 20 21 21 25 18 21 19 18 15 15 18 16 13 17 22 27 28 30 29 27 23 21 22 19 21 25
24 25 11 8 10 11 10 8 4 5 8 6 9 11 13 15 18 18 21 25 26 28 22 24 23 27 20 29 26 29 27 16 23 12 15 17 14 15 15 14 17 20 24 28 30 31 27 26 22 20 22 21 13 18
20 22 10 10 11 12 10 8 5 6 6 5 7 10 11 15 15 15 16 24 23 27 30 28 27 25 29 37 28 26 24 27 25 12 16 17 14 12 12 14 20 24 27 31 30 30 25 24 23 20 19 22 20 11
18 13 9 11 11 13 10 9 6 7 6 5 7 10 9 13 17 19 20 27 27 29 32 30 27 21 32 30 27 26 25 26 17 16 14 18 12 6 10 19 21 23 24 26 25 24 21 21 22 21 20 18 22 17
14 14 11 10 12 13 11 10 8 6 7 6 7 9 10 13 17 20 24 24 27 28 31 25 32 28 32 30 24 23 23 21 17 18 19 12 14 7 21 24 24 25 25 24 22 17 22 24 23 21 21 18 17 22
13 9 11 10 12 14 11 12 11 8 7 8 9 10 11 14 17 16 25 21 23 29 30 27 32 26 30 29 25 25 22 17 18 15 16 17 17 21 24 25 27 27 25 25 23 20 21 24 25 22 22 21 18 16
17 9 10 13 13 13 12 13 13 11 11 12 12 13 14 17 18 29 21 19 20 27 34 31 31 29 30 29 25 23 22 21 18 19 21 22 23 19 21 26 26 24 26 26 22 21 20 19 20 20 21 20 19 17
16 9 13 13 13 13 13 12 12 10 11 12 13 15 16 16 15 16 22 16 24 26 34 38 32 28 30 28 24 25 24 20 19 19 22 24 25 25 21 24 25 27 29 29 27 24 22 22 20 18 16 17 17 17
17 12 13 12 13 13 13 12 11 10 11 12 14 14 17 18 17 17 27 24 28 28 33 35 32 32 30 28 26 24 21 20 22 21 22 23 24 24 23 22 28 33 26 25 27 26 22 19 19 17 17 16 15 14
19 10 13 12 12 12 11 11 10 11 11 13 14 14 14 12 27 13 18 20 21 24 31 34 32 33 34 30 24 23 22 21 22 23 24 24 24 31 18 29 40 39 28 24 24 25 24 22 21 20 18 13 12 13
11 12 12 11 12 10 10 10 10 10 12 12 13 16 14 15 13 15 21 22 22 29 32 32 37 33 33 34 26 23 23 23 24 26 27 26 26 27 25 28 37 35 30 29 31 27 27 24 22 24 23 15 13 13
10 11 12 11 9 9 10 10 9 9 12 11 14 18 17 17 17 16 17 17 20 29 34 35 37 34 30 32 26 25 25 24 24 25 25 25 29 31 32 31 27 26 32 33 32 26 24 28 27 15 18 20 25 21
9 11 11 8 8 8 9 9 8 10 12 12 14 15 19 9 8 12 16 17 21 26 31 33 35 34 30 29 26 25 24 25 26 27 27 29 32 36 37 36 31 30 28 25 26 26 31 26 27 20 14 18 22 18
9 11 10 9 8 7 7 8 9 11 12 13 14 15 17 12 15 18 17 17 20 26 28 36 39 26 28 28 26 26 25 24 26 26 28 31 35 37 36 35 30 25 26 40 43 37 25 21 22 19 15 18 20 10
8 9 10 8 7 6 8 6 8 10 13 15 14 14 7 9 16 17 16 21 26 28 32 35 33 26 28 28 25 25 25 25 25 27 28 32 37 39 39 34 29 23 14 10 10 13 15 9 3 12 9 12 13 15
9 8 8 7 6 6 9 8 10 11 13 14 13 17 20 18 22 14 17 21 24 31 34 33 33 33 27 28 27 24 23 25 26 28 30 35 38 38 37 33 28 20 8 17 21 21 22 19 15 16 13 14 17 16
8 7 6 6 6 6 8 9 10 12 12 13 15 21 24 27 25 27 21 27 25 40 37 30 31 32 27 28 27 25 24 26 27 28 31 34 36 36 36 34 31 23 10 16 18 16 12 13 11 12 12 13 14 19
6 4 5 5 5 5 7 10 12 14 15 16 21 22 29 26 17 13 20 25 28 28 29 29 31 28 28 29 28 26 26 26 25 24 26 29 33 35 36 35 32 28 24 20 19 15 12 5 2 9 17 18 18 21
6 6 3 2 4 6 7 7 8 8 12 21 19 14 14 21 18 17 20 26 30 29 29 31 28 27 28 29 29 27 25 25 24 25 26 27 30 34 35 34 34 33 29 24 20 17 13 11 8 6 8 12 14 15
7 4 2 1 3 5 6 8 9 10 11 18 21 18 15 15 18 21 26 25 24 24 28 29 27 25 25 24 23 22 23 25 23 22 22 25 27 29 33 34 33 30 30 29 25 22 18 16 14 12 9 7 7 5
6 3 2 3 5 6 8 10 15 16 18 23 20 26 19 15 23 27 24 20 18 21 26 28 25 22 22 20 18 17 17 18 20 21 24 25 25 25 27 30 32 31 29 27 24 22 22 21 20 20 17 15 14 13
6 2 4 8 10 10 8 11 11 15 20 19 25 27 18 14 16 15 19 18 18 25 23 17 17 22 27 25 18 17 19 20 21 21 23 22 23 24 24 25 27 29 30 29 27 24 22 20 19 18 17 17 16 16
8 7 10 12 13 15 14 16 20 22 26 35 25 10 9 12 13 15 17 19 20 20 22 18 18 22 23 23 19 17 20 19 20 19 21 22 24 23 22 21 22 24 26 27 28 28 28 27 24 21 19 18 18 17
11 12 14 12 13 10 11 17 24 29 28 24 11 6 11 10 13 17 18 16 19 24 24 21 20 21 23 25 22 16 18 19 20 19 19 20 22 23 22 22 21 19 20 22 23 24 25 27 27 28 27 26 24 22
12 10 10 11 11 13 17 19 23 23 11 15 11 14 12 15 16 17 20 17 19 23 19 20 20 22 23 23 23 18 15 18 18 19 19 18 19 21 21 21 20 20 19 18 19 19 21 23 24 26 27 27 27 28
8 6 9 13 13 12 13 17 18 14 12 11 11 10 12 16 19 20 19 19 17 17 19 18 19 19 21 22 23 24 18 16 17 18 18 18 18 17 18 18 19 19 18 18 19 19 20 21 22 22 22 22 22 22

GFSWCAN_500_spd_063.txt.gz
Wind_Speed
42 42 36 29 23 14 13 10 11 14 15 14 15 16 15 15 14 13 14 16 17 16 14 14 14 15 12 12 12 12 13 13 11 9 7 5 6 7 8 10 12 13 14 13 16 24 27 25 28 35 37 35 33 47
42 42 36 23 20 9 11 10 9 13 14 15 14 15 15 14 13 12 12 12 14 14 14 12 11 12 11 7 7 7 8 10 9 8 5 3 3 3 4 4 5 6 6 8 11 16 16 16 21 28 31 34 38 39
41 40 38 22 16 11 13 12 8 10 13 14 15 14 14 15 15 16 16 15 15 17 16 16 15 14 14 16 12 12 8 9 9 10 8 5 4 4 4 3 5 7 9 11 11 13 14 14 15 19 27 31 31 34
40 38 35 20 18 12 12 13 8 8 10 13 15 15 14 15 15 15 16 16 15 16 19 18 20 18 19 15 15 15 16 15 15 13 14 12 12 11 10 8 7 8 11 11 14 18 19 18 19 21 22 22 26 31
37 35 29 21 18 13 12 11 8 8 10 11 14 15 15 16 16 16 15 17 18 17 16 18 18 17 19 22 20 19 21 22 24 21 17 17 17 15 16 14 14 11 10 11 13 18 22 22 23 23 25 26 25 25
34 30 24 19 17 12 11 10 9 7 9 9 11 13 14 16 17 19 18 18 18 16 14 16 19 21 22 24 25 25 25 20 22 22 20 19 20 18 19 18 17 15 13 17 20 22 26 28 27 25 26 26 27 24
30 26 23 21 13 11 10 10 9 7 7 7 8 10 12 14 17 19 19 16 26 21 13 16 18 20 20 19 24 21 19 23 31 17 19 21 22 20 18 16 17 18 17 19 21 24 29 31 32 28 26 26 26 25
26 23 22 20 13 10 11 10 10 7 5 6 7 7 10 13 15 15 16 19 21 21 26 24 19 18 14 20 20 15 22 22 22 18 13 18 21 18 15 16 13 14 16 19 23 27 31 32 31 29 25 24 23 24
24 21 18 17 15 11 13 11 10 7 6 5 6 6 8 12 15 16 18 26 23 22 27 29 18 25 23 24 25 23 20 19 20 22 27 25 27 22 19 14 13 14 18 21 22 25 31 30 26 26 24 22 22 22
21 20 17 14 13 12 13 11 11 8 7 7 7 7 9 11 15 15 20 25 20 26 29 28 29 28 28 25 28 23 22 24 24 20 20 21 27 22 19 11 11 16 20 22 23 26 29 27 19 20 23 23 21 22
18 16 12 15 12 12 14 12 12 9 7 8 9 8 10 13 16 17 18 23 28 28 28 31 29 31 27 27 30 24 22 19 19 21 15 13 14 12 11 12 19 23 22 25 25 26 26 26 22 23 23 25 22 20
12 10 13 14 12 13 15 12 12 11 8 8 9 10 12 14 15 19 20 28 18 19 23 30 30 31 27 28 29 24 21 19 19 18 15 15 14 13 14 21 24 20 21 20 19 21 23 25 23 23 24 24 21 18
10 11 14 10 13 13 14 13 13 13 11 9 9 11 13 16 17 21 22 21 18 24 23 26 29 31 30 25 29 24 23 21 17 16 16 16 16 17 18 18 19 18 19 19 21 21 23 25 24 23 24 26 22 21
9 10 16 13 13 12 14 14 13 15 14 14 15 15 17 18 19 20 23 23 25 26 26 25 26 30 31 30 29 25 24 21 18 17 19 20 19 22 22 18 19 20 17 22 25 24 22 23 24 23 23 26 26 22
11 15 16 14 12 13 15 14 12 14 15 15 15 15 15 16 18 23 22 20 22 24 23 25 27 30 28 28 27 25 24 22 21 22 23 23 24 25 22 22 26 24 27 32 33 25 20 19 21 18 18 21 23 23
16 20 21 13 12 14 14 13 12 13 14 14 14 15 14 16 15 18 18 19 21 22 25 28 28 31 28 26 29 24 22 23 23 24 24 23 24 25 27 27 27 24 30 36 36 26 17 18 19 23 24 23 23 24
14 21 18 6 12 13 14 12 12 12 13 13 13 15 15 17 19 24 19 21 23 25 25 30 30 31 28 25 29 28 27 27 25 25 26 25 25 25 27 28 29 26 30 37 34 29 24 18 17 27 26 25 26 26
17 14 14 10 11 13 12 11 10 11 13 11 13 12 14 17 18 17 18 20 23 26 26 29 27 32 29 27 29 30 28 28 27 26 26 27 28 30 31 33 34 32 29 28 37 24 22 18 22 21 22 26 21 22
12 13 9 10 11 11 11 9 7 9 12 11 12 13 15 16 14 13 13 17 23 25 29 28 34 31 28 29 30 29 28 28 28 27 27 28 29 32 34 35 37 35 30 21 22 26 30 31 21 13 19 22 17 20
10 9 9 10 10 10 8 6 7 10 11 11 13 16 16 16 19 18 16 19 21 22 27 29 32 30 30 28 28 28 27 27 27 27 28 29 32 36 37 35 34 30 27 22 23 27 28 23 19 21 20 24 17 15
8 9 8 10 9 7 7 8 7 9 12 12 14 15 16 20 23 20 22 21 19 22 30 32 30 34 32 28 27 28 28 27 27 26 27 29 32 33 36 36 35 32 24 11 6 5 8 14 10 13 12 15 14 13
7 7 9 9 7 8 8 5 7 8 10 12 15 17 20 22 29 15 16 20 23 26 31 29 31 32 30 27 28 29 27 25 24 23 25 28 33 36 37 36 32 31 23 14 6 8 11 9 2 13 19 16 10 11
7 8 9 7 7 9 8 6 7 7 10 13 15 16 21 26 28 25 23 14 20 23 26 28 28 31 29 28 29 28 25 24 24 23 25 28 32 35 35 35 34 32 26 15 16 16 11 5 3 13 9 10 10 13
8 8 7 7 8 9 7 7 7 8 10 12 14 19 16 17 15 14 14 15 16 19 22 26 31 34 31 29 26 22 21 22 22 23 25 27 29 33 34 35 34 32 30 26 22 17 10 9 12 10 8 15 16 15
8 7 7 6 6 5 4 5 8 9 9 11 15 19 15 15 15 16 22 25 26 12 18 25 29 31 28 27 21 20 20 21 21 22 24 25 25 29 32 33 31 30 30 28 27 20 12 10 6 8 10 12 14 15
8 6 4 4 1 1 3 5 5 7 9 9 12 19 19 26 19 15 23 27 22 19 19 25 27 27 26 23 19 20 20 21 22 23 23 23 23 26 29 31 34 33 29 28 28 25 20 17 13 7 3 4 8 9
9 6 4 2 1 1 2 3 6 8 8 13 17 17 17 23 16 15 23 25 23 20 24 24 22 21 24 19 16 18 20 20 20 21 21 23 24 25 27 29 31 33 31 27 25 24 24 24 23 20 16 12 11 9
9 6 3 1 2 4 6 7 9 12 13 16 17 27 25 16 13 16 19 22 20 18 20 21 17 19 21 18 13 14 18 18 19 21 23 24 24 24 24 26 28 29 31 32 29 25 24 22 20 20 19 17 17 16
9 5 0 4 7 9 9 8 11 17 20 22 22 24 13 9 13 15 17 15 12 17 18 17 19 19 18 17 13 13 18 19 20 20 21 24 25 24 22 21 22 24 26 28 30 31 29 26 23 21 21 20 19 18
9 6 4 7 8 9 8 10 14 20 22 17 10 4 10 7 12 14 13 8 13 18 18 17 18 18 19 22 19 13 16 18 20 20 21 22 24 24 23 22 20 20 21 23 25 27 29 30 31 29 27 25 22 20
12 9 8 8 9 8 8 9 12 17 10 10 9 3 4 7 8 12 12 12 16 17 17 15 15 17 20 20 23 21 16 17 18 19 20 21 20 21 21 22 21 19 20 21 22 24 25 27 28 28 29 29 29 29
12 8 7 7 8 8 10 7 11 10 7 5 5 5 7 8 11 14 15 16 16 16 16 15 15 15 17 19 21 23 22 20 19 20 19 18 19 19 19 19 19 18 18 18 18 20 21 21 22 23 24 24 23 23
8 8 6 6 6 5 7 8 10 6 5 5 6 6 8 10 15 18 18 18 16 18 18 14 13 13 14 16 18 19 19 20 21 20 18 17 16 17 17 17 17 17 16 15 16 16 17 18 20 20 20 20 20 20

GFSWCAN_500_spd_066.txt.gz
Wind_Speed
38 35 35 33 27 19 13 11 9 10 12 11 11 12 14 14 13 12 13 13 14 15 15 14 13 15 13 14 13 13 13 14 15 12 6 2 4 5 7 10 12 15 17 17 18 19 18 20 25 30 35 41 45 47
36 33 34 30 27 17 12 12 10 10 11 11 10 11 13 14 13 14 14 13 12 12 13 12 13 14 13 12 12 13 13 13 11 11 12 10 7 5 6 9 8 9 10 10 11 12 11 13 16 22 26 30 37 42
32 31 33 28 24 17 12 13 12 10 9 11 12 11 13 14 15 15 15 17 17 17 17 16 15 15 12 14 15 14 15 15 18 16 14 14 14 13 11 12 10 7 4 6 8 8 6 8 11 14 18 24 29 36
24 29 30 25 21 18 15 12 13 11 9 10 10 11 12 14 15 17 18 18 18 17 14 15 17 17 18 19 18 16 17 18 19 19 21 21 20 20 20 17 16 17 16 16 16 12 10 11 15 18 20 21 25 25
22 27 26 21 18 18 17 11 12 11 8 9 8 8 10 13 16 18 18 18 23 25 16 18 19 21 21 20 22 21 23 25 26 27 24 25 24 23 24 24 23 20 19 18 20 21 22 25 25 25 27 27 29 29
23 25 23 20 17 19 15 11 11 11 8 7 6 5 7 10 13 17 17 15 19 21 22 25 23 20 21 20 18 22 24 22 17 20 26 31 26 27 21 21 26 25 23 21 23 24 22 23 25 29 30 29 30 29
22 21 23 19 16 20 13 11 12 12 9 7 6 4 4 7 10 13 16 22 23 19 24 25 23 19 22 25 18 25 26 23 27 28 21 26 24 26 14 15 25 24 23 24 23 23 25 27 30 31 33 30 27 28
19 23 20 16 16 19 13 11 13 13 10 7 6 4 4 8 10 14 17 20 22 16 28 28 24 21 24 22 20 23 27 23 22 23 24 25 23 20 17 23 19 22 22 21 20 21 26 31 33 34 33 28 28 28
24 22 17 12 22 24 12 12 13 14 12 8 7 6 7 9 10 13 17 20 23 23 28 22 26 24 26 23 24 27 28 23 21 21 22 22 18 22 21 29 24 20 22 18 21 26 28 32 36 36 33 28 28 28
22 19 15 16 22 20 10 12 14 15 13 10 8 8 9 10 11 14 17 21 27 21 18 23 26 30 29 29 28 27 27 19 21 22 21 19 16 17 22 26 27 21 20 19 25 27 28 31 32 33 30 29 29 29
18 14 12 18 21 13 9 13 14 16 14 11 9 10 10 11 13 16 19 24 26 20 23 24 27 29 31 31 28 27 28 21 20 20 20 18 17 14 11 11 16 20 22 25 24 23 22 25 28 27 24 25 25 24
13 8 13 15 16 11 12 13 15 16 16 13 10 10 11 11 13 16 20 21 21 23 26 27 27 29 32 33 30 28 27 22 20 18 18 18 18 18 15 15 18 25 26 24 23 20 19 24 26 25 24 26 25 23
10 10 10 16 13 11 13 14 16 16 17 15 13 12 12 13 15 19 23 26 25 23 25 25 27 28 32 33 31 28 28 24 20 19 19 19 21 20 20 21 23 19 24 27 26 24 23 26 27 25 24 26 25 24
10 8 10 13 13 13 13 14 16 16 17 17 16 14 14 14 15 17 20 18 18 21 24 23 27 33 32 34 34 29 30 25 21 21 21 22 23 23 23 23 22 25 25 27 29 31 33 26 25 24 24 23 21 20
12 13 12 15 17 12 14 14 15 15 15 16 15 13 11 14 16 17 22 27 23 24 26 25 27 32 33 36 37 30 31 28 24 25 25 24 25 24 24 25 25 26 27 28 26 26 37 28 23 23 24 22 18 22
16 15 16 16 20 17 11 13 14 14 14 13 13 11 11 13 16 17 21 22 25 26 28 29 29 33 36 35 35 30 32 28 26 26 26 25 25 24 25 26 28 31 32 31 34 28 30 28 29 27 24 18 20 24
19 17 17 19 13 10 11 13 13 12 12 12 11 11 11 14 18 20 23 23 27 31 30 32 32 35 36 32 36 36 32 32 27 27 26 26 24 25 27 30 35 38 38 37 34 33 34 36 31 30 30 24 24 24
17 17 18 12 12 10 11 12 10 10 12 10 10 10 14 17 18 22 21 21 25 27 30 28 30 31 31 31 41 35 32 31 29 27 27 26 26 28 31 34 35 36 37 36 32 28 30 34 45 30 28 27 22 22
17 16 14 15 9 9 10 10 9 11 11 8 11 12 14 17 19 22 26 28 28 31 30 29 28 29 35 36 40 34 30 30 28 25 25 26 27 30 33 35 35 34 34 34 30 24 25 18 28 29 27 17 21 18
12 11 8 8 8 9 9 9 10 9 7 9 11 12 14 16 18 21 29 31 28 31 31 25 24 27 32 38 36 30 29 28 26 25 25 27 29 31 34 34 34 33 33 29 17 11 10 20 22 16 14 14 15 15
6 7 7 8 9 9 8 9 7 6 8 8 9 11 14 16 17 24 29 26 23 26 25 22 21 33 32 33 29 28 27 25 24 25 25 26 28 30 33 34 34 31 29 18 7 2 5 7 4 8 17 13 11 11
5 7 7 9 9 8 8 7 5 6 6 7 10 12 13 12 16 18 17 13 12 14 18 24 26 27 29 26 27 27 24 23 23 23 23 24 27 30 33 33 32 30 28 25 13 10 9 2 3 10 9 14 20 11
8 7 9 10 8 7 6 4 4 5 5 7 10 13 14 9 11 11 12 19 20 19 19 18 23 28 28 28 30 25 22 21 23 23 23 24 27 29 31 32 30 28 27 26 21 12 5 7 3 12 13 16 15 13
8 9 10 8 6 5 4 3 4 4 6 7 10 9 11 11 12 15 17 17 22 22 18 18 24 29 27 30 32 24 22 22 22 23 24 25 26 27 28 30 31 26 27 26 21 16 9 16 8 2 8 13 16 17
9 9 7 5 3 2 2 0 1 3 5 7 10 14 16 13 21 24 17 16 23 20 16 18 22 25 27 31 30 21 22 23 23 22 24 25 25 25 26 29 31 28 24 25 24 19 10 3 13 16 17 16 17 16
10 7 5 5 5 4 3 1 1 4 7 8 11 14 17 22 25 20 14 17 21 19 21 22 22 23 26 30 28 21 21 21 22 22 23 24 23 23 24 26 29 31 26 23 21 21 20 16 11 8 6 6 6 6
10 8 7 6 5 4 1 2 5 6 6 12 14 20 20 24 16 10 15 16 17 18 20 20 19 22 24 26 26 22 22 21 20 20 22 23 23 23 23 24 26 28 30 26 22 21 20 19 19 19 17 15 14 13
11 10 9 6 4 1 3 6 8 10 13 16 20 23 25 18 12 12 13 14 12 17 19 17 18 19 21 25 26 20 20 20 21 20 21 22 23 23 23 22 23 24 26 28 31 29 25 22 21 20 20 19 18 18
12 10 6 4 3 5 6 7 7 12 16 21 16 12 9 7 10 11 13 11 12 18 20 19 18 18 20 22 24 20 17 19 20 20 21 20 21 22 23 22 20 20 22 25 28 31 32 32 30 26 23 21 21 20
9 6 1 3 7 8 9 8 11 13 19 12 10 4 8 8 11 13 14 14 15 19 20 19 19 17 18 19 21 20 17 17 18 19 18 18 19 20 21 20 19 18 20 22 24 25 26 28 29 29 30 29 28 27
9 6 5 7 8 8 9 11 14 16 14 10 5 6 6 7 12 17 18 17 16 15 18 19 18 17 16 17 17 18 18 18 19 18 16 17 17 18 19 19 18 17 19 20 21 22 23 23 24 24 24 24 24 24
8 7 8 8 7 6 8 9 13 14 11 9 8 7 6 8 13 17 18 22 21 18 18 16 16 15 15 15 15 16 17 18 18 17 17 17 16 17 17 18 17 17 18 18 19 21 21 22 22 22 22 22 21 20
7 7 7 7 5 5 6 8 11 13 9 7 7 7 8 9 14 19 20 21 22 20 18 17 16 14 13 13 14 15 16 17 16 16 16 16 16 16 16 17 17 17 17 17 18 19 20 21 22 22 22 21 21 20

GFSWCAN_500_spd_069.txt.gz
Wind_Speed
48 45 42 30 20 25 22 15 10 8 6 8 9 9 9 10 11 12 12 11 12 12 13 13 13 12 11 11 12 12 12 12 14 12 9 7 6 5 8 9 12 15 17 19 21 21 21 23 27 31 34 36 38 41
44 42 42 23 19 22 18 15 10 10 7 6 8 7 8 10 11 12 13 13 14 14 14 12 11 12 10 10 11 12 13 13 12 12 12 12 10 7 6 6 8 10 12 15 17 15 15 18 21 24 27 31 34 38
38 38 36 18 20 20 18 15 12 11 9 6 5 6 7 9 12 13 13 16 20 14 12 15 16 16 16 16 17 15 14 15 15 16 16 15 14 15 14 14 14 11 11 12 12 9 10 12 13 16 19 22 26 30
32 32 24 15 20 18 18 18 14 12 11 7 4 3 4 7 10 12 11 11 16 16 17 18 16 15 16 17 16 16 14 16 17 20 20 22 22 19 19 19 19 16 18 19 19 18 17 16 16 16 17 22 26 28
31 22 14 18 15 15 20 19 14 13 12 9 5 3 3 4 6 11 12 17 15 14 19 18 18 14 15 18 19 15 14 21 24 25 17 18 21 24 21 21 21 24 22 23 25 24 21 21 24 26 27 25 26 30
23 15 18 15 16 20 19 18 15 13 12 11 7 5 4 2 5 7 13 15 19 11 19 25 21 20 20 22 21 18 19 23 26 21 17 22 18 22 23 21 27 28 25 24 25 28 26 24 26 26 28 30 32 35
19 18 11 20 21 19 19 19 15 13 13 12 9 7 7 4 6 8 12 15 17 18 19 21 19 22 22 23 21 19 22 23 24 19 17 19 20 24 21 25 23 28 22 24 26 27 27 26 26 27 30 33 38 39
18 15 17 23 17 18 23 22 15 13 14 13 10 9 9 7 8 9 11 14 16 19 18 16 20 23 26 27 28 24 22 25 22 20 17 15 19 20 15 19 17 22 18 21 24 25 26 27 28 29 32 36 39 40
18 21 23 24 16 18 24 26 19 14 15 14 11 10 10 8 8 9 11 14 19 19 16 19 21 24 26 27 30 27 24 25 24 22 21 20 18 16 16 20 22 26 25 24 24 25 27 28 30 30 32 34 35 36
21 21 21 18 18 18 27 22 18 13 15 15 12 11 12 9 8 9 12 15 17 15 18 22 26 24 27 28 30 31 29 26 25 23 21 18 16 17 17 15 11 17 28 21 23 27 31 27 27 28 25 26 27 30
15 20 19 14 13 21 19 13 9 12 15 17 14 14 12 11 9 10 12 16 20 20 22 23 26 23 27 29 30 33 32 27 27 24 21 19 17 16 15 14 12 12 16 21 26 30 33 29 28 24 22 23 26 28
18 16 13 15 21 18 13 8 8 13 15 16 16 15 13 10 10 12 13 17 20 19 17 21 24 25 26 29 30 34 30 26 28 28 23 22 21 19 19 18 17 19 20 23 25 27 29 31 30 29 29 30 26 28
13 10 12 20 19 15 12 7 9 13 15 16 17 16 14 11 11 13 15 16 13 23 24 22 24 27 28 32 34 32 29 27 28 26 24 23 24 23 21 20 20 20 21 22 24 26 27 30 35 35 38 39 33 28
13 9 9 12 13 14 15 9 10 13 15 16 18 16 16 14 15 16 18 18 21 22 23 25 27 28 32 31 35 32 31 36 29 28 25 24 22 22 23 22 21 22 23 25 28 30 30 31 30 32 29 37 30 25
10 12 13 15 13 15 14 13 11 13 15 15 16 16 14 14 17 19 19 20 21 22 30 27 33 32 29 30 31 33 38 38 30 27 24 23 23 22 23 23 23 24 26 29 32 33 34 35 34 34 35 29 19 22
15 15 15 16 16 14 15 16 12 14 14 14 14 13 12 14 17 19 19 20 23 26 27 30 30 35 31 28 28 32 37 32 30 27 23 22 23 23 23 24 26 28 31 34 35 37 36 37 38 34 33 30 25 23
21 20 18 16 18 19 11 10 12 12 13 13 12 10 11 15 17 17 18 20 19 24 27 28 30 32 31 29 34 37 35 32 29 24 22 22 23 24 25 27 30 33 35 37 37 36 35 33 31 34 35 29 35 30
17 18 16 18 17 12 12 12 11 11 12 9 9 9 12 13 13 15 18 20 20 23 25 28 33 33 23 29 31 37 36 33 26 21 22 23 24 26 28 31 33 36 37 37 37 36 38 32 29 30 34 30 35 33
17 17 17 17 15 11 11 11 11 11 8 7 7 8 9 11 13 14 17 22 23 24 27 31 37 32 20 27 29 34 33 30 25 23 24 25 26 28 30 33 36 38 38 36 34 31 24 10 10 12 18 34 30 26
18 17 14 10 10 10 10 10 9 7 6 6 6 8 11 12 14 13 17 22 20 22 23 23 28 27 19 32 37 33 31 25 25 25 25 26 27 28 29 33 35 37 35 32 30 19 8 7 5 11 14 14 13 10
5 5 6 7 9 10 10 8 7 6 5 5 7 9 11 12 12 14 14 14 18 17 15 17 19 26 29 33 32 31 28 25 25 25 25 26 26 27 29 32 35 36 32 30 28 19 9 6 6 11 12 13 11 11
3 6 8 7 9 9 8 8 7 5 4 5 7 8 12 15 12 13 15 14 17 19 17 18 18 22 25 30 28 29 24 24 24 25 25 25 25 26 29 31 35 34 30 30 27 19 5 7 8 4 3 13 11 6
5 6 6 7 9 8 8 7 7 4 4 5 5 7 10 10 11 16 16 20 17 17 20 18 18 20 23 25 27 26 22 24 25 25 24 25 25 26 28 30 34 32 27 28 24 14 9 3 9 3 5 7 7 10
8 7 6 9 8 8 8 7 5 3 3 5 6 7 10 15 14 20 23 20 15 19 17 17 19 21 22 24 28 25 22 25 24 23 24 24 25 25 26 27 30 31 27 25 24 15 2 3 2 4 6 9 11 14
8 8 8 8 8 7 6 6 5 5 5 7 8 8 12 15 21 22 13 10 14 16 16 18 20 19 20 24 27 25 22 23 23 22 23 24 25 24 24 25 27 30 28 24 22 21 17 9 10 15 19 19 19 19
10 10 8 8 8 8 7 5 2 2 4 7 11 13 15 19 20 18 13 15 13 13 16 17 20 21 22 23 27 25 20 22 22 22 22 23 23 22 22 22 25 28 31 28 23 21 19 18 17 15 12 10 8 7
11 10 10 9 7 5 4 1 2 4 7 10 15 18 22 21 18 11 11 13 11 13 18 21 22 22 21 22 24 24 22 22 23 22 21 21 22 21 20 20 21 25 27 30 31 27 23 21 20 20 19 18 17 15
13 12 10 8 5 2 0 3 5 6 9 12 17 18 17 9 13 15 15 13 11 14 19 21 21 21 20 21 23 24 22 22 21 19 18 20 21 21 18 18 19 22 24 25 27 28 30 29 27 23 22 21 21 20
15 13 9 5 3 3 4 5 5 9 10 15 13 13 11 10 12 15 16 16 16 16 16 17 19 18 19 19 20 22 21 21 19 16 16 18 19 19 18 18 19 21 22 23 24 24 25 25 26 27 28 28 27 25
13 9 5 2 3 4 5 6 8 11 13 13 11 9 6 8 10 15 16 19 20 18 17 19 17 17 18 18 18 19 20 20 19 16 15 15 16 17 17 17 19 20 20 22 22 23 23 23 24 23 23 23 23 23
12 8 4 3 6 6 6 5 8 11 11 10 9 6 6 6 9 14 18 19 19 20 18 18 17 16 16 17 16 17 18 18 17 16 15 15 15 16 16 16 17 17 18 19 20 21 22 22 22 22 22 21 21 21
9 5 6 6 5 5 5 7 8 10 10 9 8 8 8 9 12 16 20 18 18 18 17 17 17 16 16 16 16 15 15 16 16 15 14 14 14 14 15 16 16 17 17 18 19 20 21 22 22 23 23 23 23 22
9 9 8 7 6 5 6 9 10 10 10 9 7 7 9 12 13 12 16 16 17 17 15 15 16 16 16 16 15 14 13 13 13 13 13 13 13 13 13 14 15 16 16 17 18 19 20 21 22 23 23 23 23 23

GFSWCAN_500_spd_075.txt.gz
Wind_Speed
31 31 32 34 33 30 29 28 13 14 19 15 9 6 5 5 3 1 3 6 7 7 6 6 5 7 8 7 7 7 7 7 7 7 6 6 6 7 8 12 17 25 31 34 35 37 38 34 31 33 32 32 36 35
31 31 33 35 33 30 28 16 8 19 16 18 13 7 8 8 5 4 3 5 3 6 7 9 6 7 9 12 13 13 9 7 7 8 8 8 11 13 14 14 15 18 22 27 33 40 41 41 37 37 36 34 34 36
34 36 36 32 31 27 18 8 8 13 11 22 15 10 9 10 7 4 2 2 1 4 6 7 8 8 8 10 13 13 13 13 11 12 14 17 19 20 19 22 22 20 20 20 24 28 31 35 36 38 39 38 36 37
32 33 30 28 25 16 13 6 12 16 20 26 20 14 12 12 9 8 2 2 1 3 3 6 8 5 7 10 11 12 11 12 11 14 18 21 24 21 20 21 26 26 25 25 24 23 25 29 32 33 34 34 35 35
32 29 25 23 19 15 13 12 18 19 13 29 25 18 14 14 12 10 4 1 1 4 8 8 5 4 9 11 12 12 12 14 12 12 14 18 20 17 17 18 20 25 31 31 27 30 28 27 27 28 28 28 29 30
29 25 21 19 19 14 12 15 17 16 13 32 28 21 16 15 14 11 7 4 3 4 7 7 6 8 11 11 12 13 13 16 15 13 15 16 18 18 17 17 23 23 23 31 31 35 34 34 32 33 34 33 32 33
24 20 19 16 15 15 16 17 18 15 21 26 29 20 17 16 15 12 9 6 5 9 10 8 9 11 12 11 12 13 12 15 17 13 16 18 20 19 18 21 23 24 27 31 31 33 32 38 37 37 38 38 37 37
20 17 17 17 19 19 17 19 13 18 23 23 28 19 18 16 15 14 11 9 8 9 10 11 15 15 14 14 15 17 16 21 18 16 16 20 25 25 22 22 22 22 22 23 28 36 36 38 41 37 37 38 38 41
18 19 20 18 17 16 14 11 13 15 19 19 28 18 17 15 14 14 13 11 11 10 11 15 15 14 15 17 18 20 22 23 18 16 18 26 26 26 23 21 21 22 22 21 21 25 31 31 33 34 36 36 36 35
15 18 21 17 18 16 13 12 16 23 24 20 25 18 16 14 14 13 12 11 12 12 13 11 14 16 17 17 19 22 20 19 18 20 26 25 23 22 21 22 22 21 19 16 15 16 25 24 25 26 29 32 33 33
19 21 18 16 13 10 8 15 17 16 20 26 19 17 15 13 11 13 14 13 13 14 13 14 17 19 22 20 21 20 18 16 21 23 27 23 24 20 19 20 20 19 17 16 15 18 18 19 22 21 24 27 29 33
20 17 13 15 12 11 9 6 9 10 15 21 15 15 15 14 12 11 13 14 14 15 15 17 18 18 19 20 24 21 18 17 19 26 26 24 20 17 18 19 20 18 16 16 16 19 21 25 29 31 32 32 33 34
16 13 10 7 8 10 8 6 7 4 15 15 12 14 15 14 13 11 12 14 15 14 17 17 18 19 22 25 24 21 19 20 20 29 29 23 17 15 18 20 19 17 16 17 17 18 20 23 26 28 30 31 33 34
13 12 10 9 10 7 3 4 8 9 10 12 14 13 13 13 13 14 15 15 13 15 18 19 21 19 22 24 20 23 24 26 24 32 31 22 14 18 18 19 19 20 20 21 22 23 25 26 27 29 31 33 37 38
13 11 10 11 9 8 8 7 7 10 11 11 11 13 12 12 13 14 15 15 15 17 19 20 18 22 26 23 26 30 27 25 28 27 22 16 18 21 21 21 23 22 23 26 26 26 29 31 33 35 35 35 38 39
16 14 13 14 15 15 13 11 11 13 12 12 10 11 11 11 11 11 11 13 15 16 17 20 22 22 20 29 31 30 24 20 24 26 19 16 20 23 24 23 24 25 26 27 29 30 32 34 36 37 38 39 36 38
16 17 17 16 15 13 13 12 12 13 11 9 9 9 11 10 9 10 11 14 14 16 18 21 17 17 35 45 35 34 20 29 27 17 19 23 24 25 25 24 25 25 27 29 30 33 36 37 37 36 35 34 34 34
15 15 13 11 10 10 11 11 12 11 9 7 7 9 10 8 8 10 12 12 14 15 16 18 17 16 25 24 22 19 31 30 32 26 23 24 25 24 25 24 25 27 28 30 33 34 31 30 28 29 32 33 32 33
14 14 13 12 12 13 14 13 10 11 7 8 8 8 7 7 9 11 12 14 13 11 12 15 18 19 22 25 26 26 27 29 29 25 22 22 22 24 25 26 26 27 29 32 30 28 25 22 22 20 20 16 16 22
13 12 12 14 14 14 13 12 10 9 9 7 6 5 4 6 8 10 11 10 13 13 16 20 19 20 21 20 22 23 25 28 26 24 22 21 24 24 25 26 26 28 31 30 25 23 21 16 9 6 5 6 9 5
9 11 11 10 9 10 10 8 8 9 7 6 4 2 2 4 7 7 5 11 14 17 20 19 17 17 16 19 21 22 25 23 22 23 23 24 25 26 26 24 25 28 30 26 23 19 15 16 9 1 4 6 11 10
5 3 5 6 6 6 7 10 9 7 7 5 3 2 3 2 7 7 10 15 17 16 14 13 14 14 15 16 21 21 23 22 22 20 21 22 23 24 23 23 25 27 30 27 22 17 9 10 12 8 6 2 7 8
7 4 4 5 6 8 10 9 9 9 7 4 3 5 8 5 7 10 14 15 14 13 13 11 12 13 16 18 19 20 21 21 20 20 20 21 22 22 21 23 26 26 27 27 22 14 14 13 13 9 8 10 11 11
8 8 5 5 8 10 10 9 10 7 5 3 4 6 9 9 12 15 17 22 18 12 11 10 11 16 17 17 17 18 19 19 19 19 19 20 21 21 21 22 23 24 25 26 25 17 15 15 14 12 9 8 11 14
8 6 7 9 11 11 10 10 8 6 4 4 5 8 11 13 15 15 17 11 12 13 10 11 15 18 16 15 16 17 18 18 18 18 18 19 20 20 20 22 22 23 24 23 24 24 21 19 18 16 13 10 8 7
6 7 9 12 11 11 10 9 6 5 4 4 6 10 12 13 7 4 7 9 10 11 11 14 15 15 15 14 15 16 17 17 17 17 17 18 19 19 19 20 21 22 23 22 23 23 24 25 22 20 18 16 14 11
8 11 11 10 9 9 9 8 7 5 4 5 9 11 5 4 4 6 8 10 12 13 13 13 14 14 14 14 14 15 16 17 17 16 16 17 18 18 19 20 20 21 22 22 22 22 21 21 22 23 22 20 18 17
12 11 11 10 10 9 8 6 5 5 5 7 11 13 8 4 5 6 7 12 15 16 15 14 14 13 14 14 14 14 14 15 16 16 16 17 17 17 17 18 19 20 20 21 22 22 22 22 20 19 19 19 19 19
13 13 12 10 8 6 5 4 4 3 4 7 8 7 6 6 6 6 8 12 17 18 17 15 14 13 14 14 14 14 14 14 15 15 15 15 15 15 16 16 17 17 18 20 21 21 22 23 23 23 22 20 19 17
15 13 11 8 6 5 4 3 2 2 5 7 7 6 5 6 7 10 13 17 19 18 17 16 15 14 14 15 15 14 13 13 13 14 14 14 14 14 14 15 15 15 17 17 18 20 22 24 22 22 23 23 22 21
15 12 8 4 2 1 3 3 4 5 6 7 8 8 8 9 9 12 15 15 16 18 16 15 14 13 14 15 14 14 13 13 12 12 13 12 12 12 12 13 13 13 14 15 17 19 22 24 25 25 24 24 24 22
14 11 7 5 4 4 4 4 5 8 8 10 10 8 9 11 13 15 16 16 17 17 17 17 16 14 13 14 14 13 13 12 12 11 11 11 10 10 10 10 10 10 11 13 15 17 19 21 23 24 25 24 24 21
14 12 10 8 8 8 8 8 9 12 13 10 9 10 10 11 14 17 18 21 21 20 14 15 15 14 14 15 15 13 13 13 12 11 10 9 9 9 9 8 7 7 7 9 12 15 16 17 20 22 24 24 24 23

GFSWCAN_500_spd_078.txt.gz
Wind_Speed
34 34 37 36 38 39 35 33 28 20 17 14 23 14 12 10 9 6 5 5 4 1 2 2 3 4 5 6 8 7 6 6 6 5 5 5 5 6 7 9 13 18 24 27 26 26 28 39 42 35 34 32 32 32
35 36 37 38 36 32 30 27 22 10 10 10 23 14 12 11 10 8 8 5 4 1 2 4 3 2 4 6 10 11 11 8 6 7 7 6 9 11 12 14 15 18 21 23 29 34 37 40 38 35 33 33 34 35
37 37 39 38 32 28 25 17 9 12 12 16 24 16 12 13 13 11 11 5 6 4 1 1 0 2 2 5 7 7 8 9 8 9 10 12 13 16 18 20 22 23 25 25 26 28 34 42 44 40 40 41 40 42
35 37 37 32 26 22 18 12 10 14 15 17 28 17 14 15 15 12 11 7 7 7 6 6 7 6 6 9 10 10 8 9 9 10 11 13 15 16 18 17 18 22 28 28 29 30 31 31 36 35 38 41 39 40
35 33 28 25 20 18 18 14 11 15 13 17 30 23 17 15 16 16 11 8 7 6 6 7 6 7 9 11 11 11 10 9 11 13 13 13 13 15 18 18 15 21 25 30 30 34 35 34 33 32 33 35 37 38
31 27 24 20 18 15 13 12 13 14 12 14 29 33 22 16 17 18 15 10 7 4 4 9 10 9 11 14 13 12 11 11 11 17 16 15 14 18 19 19 23 26 28 30 28 29 37 39 37 34 30 31 33 34
25 23 21 17 16 15 16 15 18 14 13 15 19 38 23 18 18 18 17 13 10 8 6 7 8 11 13 14 12 13 14 15 17 14 15 18 17 22 22 25 26 27 28 29 29 30 31 34 43 38 38 38 36 35
18 21 19 17 18 18 16 14 14 13 12 20 24 35 26 19 18 18 18 15 12 11 10 11 12 12 12 12 15 15 16 19 13 13 15 16 22 27 26 26 26 24 24 26 27 30 28 32 38 39 41 44 42 42
20 19 16 15 17 17 16 14 12 12 13 16 22 36 28 20 18 18 18 16 15 13 12 12 14 12 13 18 15 17 17 15 15 14 15 20 24 28 28 26 24 20 21 22 24 26 28 28 33 38 40 41 45 47
17 18 18 20 15 15 13 11 12 16 17 19 18 34 28 19 18 17 17 16 15 14 13 13 15 16 19 17 24 16 19 20 19 17 16 20 25 29 28 27 20 17 16 18 19 20 20 21 27 25 28 35 40 42
20 19 17 16 12 13 10 10 12 14 14 12 17 36 29 19 15 15 16 15 15 14 13 15 15 18 19 21 20 21 22 22 21 19 21 22 26 27 27 27 19 18 18 17 16 16 19 23 24 28 25 26 25 30
18 17 14 12 11 9 10 11 11 8 7 11 18 28 26 16 13 12 12 14 16 16 14 15 15 19 21 22 21 23 22 22 24 23 26 26 26 27 28 23 21 22 19 18 16 16 17 21 26 27 27 28 29 29
18 15 13 10 8 12 11 9 5 5 4 8 14 15 20 15 14 16 14 15 15 14 14 16 19 21 22 23 20 21 21 25 29 24 24 29 28 25 20 21 23 20 19 19 19 18 18 20 23 26 29 32 33 33
16 13 10 9 10 10 7 6 6 5 2 9 13 14 15 17 17 16 15 14 14 15 16 20 23 24 21 21 20 25 28 32 29 19 25 23 23 16 22 23 26 24 25 25 25 25 24 28 28 28 29 30 31 35
15 13 12 10 8 7 7 9 8 9 10 12 14 15 14 14 15 15 15 16 15 13 23 21 16 24 22 23 23 33 38 34 21 26 24 17 22 20 23 30 29 28 26 26 28 29 30 30 33 35 36 37 37 38
15 15 14 13 12 13 12 12 11 12 13 12 13 14 13 15 14 12 10 13 15 12 16 20 20 17 17 21 25 28 26 21 25 21 20 14 19 24 26 26 27 28 28 29 29 31 33 35 35 37 39 41 42 42
16 16 16 15 14 14 13 12 12 12 13 11 12 11 13 13 11 10 10 11 10 12 14 14 14 15 17 17 23 25 25 25 24 18 19 22 23 22 24 24 26 27 28 29 31 32 34 37 39 40 41 41 42 44
15 15 15 14 12 11 10 10 10 11 10 9 9 11 11 8 8 8 7 9 11 11 12 12 14 17 19 20 24 23 23 23 25 24 23 22 21 21 24 25 26 27 28 28 31 33 31 32 32 31 30 33 34 36
15 14 13 14 13 13 12 12 11 11 9 9 10 9 6 5 3 5 9 8 10 7 10 15 18 22 20 21 22 21 23 24 26 23 22 22 22 24 26 26 26 25 26 28 31 29 27 23 25 21 18 16 18 18
14 13 13 14 14 13 13 13 11 10 10 9 9 7 7 8 11 7 12 12 19 8 11 15 21 19 17 17 20 20 23 24 26 25 21 19 21 20 22 24 26 27 28 30 29 26 22 18 19 11 12 2 3 5
10 9 11 14 15 14 12 9 10 11 11 11 10 8 9 11 9 10 6 9 10 13 15 16 15 16 15 17 19 20 21 23 25 24 24 23 24 26 26 26 27 28 27 27 28 22 16 16 17 10 7 7 6 9
7 6 5 5 5 4 8 10 11 13 13 12 10 8 8 7 9 10 5 7 10 14 16 16 16 14 15 19 20 22 21 22 22 21 21 22 22 22 23 24 25 26 25 25 26 21 18 17 17 16 12 12 8 3
9 6 3 5 6 7 9 11 13 12 10 8 6 4 4 6 8 4 6 12 17 17 12 14 14 14 17 20 19 19 19 20 20 20 20 20 21 21 22 23 24 25 24 23 24 23 18 17 16 13 13 13 16 18
11 9 7 4 5 9 12 12 12 11 9 6 1 4 10 10 6 10 11 14 15 14 15 16 13 15 20 19 18 18 18 19 19 19 19 19 20 20 21 22 22 23 23 22 21 22 22 19 17 16 15 13 13 12
10 9 10 7 9 12 12 12 11 9 7 5 4 5 9 9 10 11 9 7 10 12 13 13 15 17 17 17 17 17 17 18 18 18 18 19 19 19 19 20 21 22 23 24 24 22 21 22 21 18 17 16 15 14
10 8 9 11 13 13 13 11 8 6 6 5 4 7 8 7 5 4 5 7 10 13 15 16 16 17 17 16 16 16 16 17 18 17 17 17 17 17 17 18 19 20 22 23 24 25 24 22 20 19 19 18 15 14
7 10 12 13 12 11 10 10 9 8 5 5 5 7 9 4 4 4 4 6 10 16 16 17 17 16 16 16 16 16 16 16 16 15 15 15 16 16 16 17 18 19 20 21 22 24 24 24 22 21 19 17 16 17
12 13 13 12 12 11 11 10 8 6 7 7 6 9 11 7 6 6 6 8 13 18 18 18 17 16 15 15 16 17 17 16 15 14 14 13 14 14 14 15 15 15 16 19 23 26 24 23 23 23 22 22 20 17
13 13 13 13 12 11 8 7 7 5 5 7 9 11 8 4 6 8 10 12 16 17 17 18 18 17 16 15 15 15 16 16 15 14 13 12 12 13 13 12 11 13 15 18 21 24 25 25 25 25 25 22 20 19
15 15 13 11 9 7 6 5 4 4 5 6 8 9 7 7 8 9 10 12 15 16 17 17 17 17 16 15 15 15 16 16 15 14 13 12 11 11 10 10 9 10 13 17 19 21 23 26 26 24 24 24 24 23
16 14 11 8 6 4 5 5 7 8 8 9 8 8 8 10 11 12 13 14 16 18 22 22 20 14 15 15 15 15 16 17 16 15 14 13 11 9 9 8 7 8 11 14 17 18 19 22 24 27 28 26 22 20
15 12 8 5 2 2 4 6 7 8 8 9 11 11 11 12 12 13 14 15 17 22 24 20 13 14 14 15 15 16 17 17 17 15 14 13 11 10 8 7 6 6 7 11 14 16 18 20 22 23 24 25 26 24
13 11 8 7 7 8 8 9 10 12 13 16 12 10 11 14 14 9 18 17 17 18 21 20 20 20 13 15 16 17 18 18 17 16 14 14 11 10 9 7 6 6 6 7 9 11 13 15 18 21 23 24 24 25

GFSWCAN_500_spd_081.txt.gz
Wind_Speed
39 39 38 38 38 37 33 30 28 21 11 10 14 30 21 15 14 12 10 8 7 3 3 3 2 0 3 7 10 11 8 7 2 1 2 1 1 3 6 7 9 10 15 20 23 25 34 35 36 42 34 31 37 43
40 40 39 37 36 31 27 23 17 8 10 11 8 29 20 15 16 13 12 10 9 6 6 5 3 2 3 7 9 11 10 10 8 5 3 4 6 7 9 11 14 17 18 17 19 25 31 31 35 37 42 37 30 33
39 39 38 36 31 27 22 19 14 11 12 10 9 30 17 17 16 15 15 11 10 9 7 5 5 4 5 5 7 8 8 7 7 5 6 6 8 11 12 15 18 18 23 23 25 26 28 31 36 37 36 36 37 39
36 35 34 31 27 23 19 16 16 10 11 9 9 27 17 18 17 16 16 14 10 12 8 9 8 8 8 7 8 7 7 7 6 7 8 9 11 10 13 12 16 22 22 23 26 31 34 34 31 33 37 40 42 43
32 33 31 26 24 21 18 16 13 8 10 10 11 27 20 17 17 18 16 15 10 9 9 8 5 5 5 9 10 10 10 10 10 9 14 15 14 15 17 19 21 25 26 26 26 25 30 34 38 37 33 32 35 37
30 30 27 24 22 18 17 15 14 13 12 12 6 23 30 22 18 19 17 14 12 10 6 7 8 5 7 10 11 11 13 14 14 16 17 11 12 17 17 20 26 26 29 28 30 29 37 34 34 39 40 34 34 33
28 26 22 23 21 17 17 17 16 16 11 13 7 11 29 28 19 19 20 20 15 12 10 7 4 7 10 10 10 13 14 15 16 18 15 15 15 16 19 25 26 29 31 30 31 34 34 34 33 33 34 35 37 36
28 25 22 21 16 15 16 14 13 13 11 9 9 13 14 34 22 19 20 20 19 16 13 12 9 8 10 10 13 14 15 16 17 16 17 18 15 18 20 24 29 32 31 31 30 30 31 29 33 34 32 35 34 39
24 19 16 17 16 17 15 14 13 14 10 10 10 15 14 41 24 20 20 20 20 17 16 16 15 13 13 16 18 17 19 17 18 20 20 19 18 20 19 22 29 31 28 29 27 28 29 27 30 32 30 33 31 33
19 19 21 20 18 15 13 13 14 9 12 17 19 14 10 40 27 20 19 19 19 19 16 16 19 17 19 19 19 20 19 22 23 20 22 23 23 28 23 24 28 26 26 25 24 25 26 26 28 26 26 25 27 31
15 16 18 16 12 11 10 10 9 10 13 14 13 11 12 35 28 19 17 17 18 17 16 17 18 20 21 20 22 24 20 22 23 20 26 27 24 20 24 28 27 24 23 25 27 24 22 22 22 20 24 31 35 31
14 16 16 11 9 6 7 10 8 8 10 12 11 10 18 34 25 18 15 15 15 17 18 19 19 21 21 25 28 28 23 26 25 31 34 25 20 21 25 30 21 17 20 22 26 25 21 21 20 22 24 28 27 25
15 15 14 11 9 7 9 10 8 6 5 4 3 4 18 25 19 16 14 13 14 17 17 17 20 20 15 24 22 21 16 22 23 24 24 24 24 20 25 15 9 16 26 25 26 29 28 24 23 21 21 27 26 26
15 14 12 9 9 8 7 7 7 4 6 6 2 3 6 18 18 14 16 15 19 21 20 6 17 22 18 18 17 13 19 21 23 19 22 25 20 18 15 20 32 34 35 31 29 27 28 28 28 27 30 32 31 31
15 15 12 10 8 7 7 8 8 8 6 5 6 9 10 14 15 19 19 18 18 17 17 13 18 18 17 16 18 18 23 24 20 22 23 20 18 18 20 23 28 30 29 29 28 28 28 29 30 31 33 35 37 38
15 15 13 12 11 12 12 13 12 9 9 9 9 11 13 16 17 16 14 12 12 11 17 16 14 13 12 14 18 20 23 24 20 20 21 17 20 25 24 24 25 27 29 30 29 30 30 30 32 34 37 39 41 43
15 15 14 13 13 13 14 14 14 11 9 9 11 9 11 14 14 14 12 14 16 15 14 16 15 11 14 17 19 21 24 21 22 22 21 18 24 26 25 25 26 28 28 29 29 29 30 33 35 37 38 40 41 42
16 15 14 14 13 13 13 12 10 8 8 8 9 11 12 13 15 15 14 13 11 11 12 13 13 13 16 20 18 20 20 21 22 23 21 20 24 24 24 25 26 27 26 27 30 29 31 34 32 29 31 30 29 30
14 15 13 13 12 12 11 12 12 10 9 9 12 11 12 13 15 17 15 10 12 12 11 10 11 15 18 19 16 17 19 22 22 22 21 22 25 25 26 25 26 26 26 26 28 30 32 27 22 22 16 17 11 15
14 13 13 12 12 13 13 13 13 11 10 12 11 11 12 16 16 15 12 13 5 8 13 9 12 14 15 14 14 18 20 23 22 23 23 19 18 21 23 24 26 25 26 27 28 29 28 24 23 20 17 13 9 9
11 11 11 12 12 12 13 14 13 12 14 12 11 12 15 15 12 12 14 13 12 2 5 9 11 12 11 13 15 20 22 22 24 24 23 22 22 24 25 24 25 27 28 28 27 27 27 24 23 23 20 15 10 7
11 10 9 9 8 7 8 10 11 13 12 12 11 10 9 7 9 6 1 1 4 12 14 11 10 12 13 14 19 21 21 21 22 23 24 24 22 22 22 24 24 25 26 26 26 25 24 24 23 21 18 15 10 8
10 9 7 5 6 6 7 10 11 12 12 10 8 8 9 8 12 10 6 4 7 11 11 11 12 13 14 18 21 21 20 20 21 21 20 21 21 21 21 21 21 23 24 25 24 24 23 23 23 22 21 18 14 12
10 11 9 5 6 7 9 10 12 13 12 10 9 7 10 9 7 8 4 4 7 7 10 12 14 14 15 17 18 19 20 20 19 19 19 17 19 20 20 20 20 21 22 22 24 26 25 23 21 20 19 17 16 14
12 12 10 9 8 10 12 12 12 11 10 7 6 8 6 3 6 6 3 5 7 10 11 12 13 14 15 16 16 17 17 17 17 19 20 18 18 19 19 19 19 18 19 24 27 27 25 25 24 21 19 18 16 15
10 11 11 12 11 13 13 13 13 12 9 7 6 4 6 2 3 2 2 3 6 10 12 13 14 15 16 15 15 17 18 18 18 17 18 18 17 16 15 15 15 16 20 25 27 29 28 26 25 23 20 16 13 14
10 11 11 13 15 14 13 14 11 9 7 6 5 5 6 6 5 4 5 6 7 11 14 14 15 16 17 16 15 16 18 18 17 17 16 17 16 16 15 15 14 15 20 23 26 28 28 28 28 27 24 20 20 15
9 10 13 16 16 15 15 13 11 8 6 5 4 6 9 8 6 7 7 7 10 14 14 15 17 19 19 18 17 16 17 18 18 17 15 15 15 13 13 13 12 14 18 21 24 26 28 29 29 27 27 24 21 22
12 14 14 14 12 13 12 11 9 7 6 5 4 3 4 5 5 6 7 8 9 12 15 18 22 22 18 14 14 15 15 16 17 16 14 14 13 12 11 11 10 12 16 19 20 22 25 27 28 28 23 20 21 21
14 13 13 13 12 10 8 8 7 7 9 8 4 6 8 6 8 8 9 10 11 13 14 17 19 17 14 14 13 13 14 15 16 16 15 13 12 11 10 10 9 10 13 15 17 19 21 24 26 26 26 23 22 20
15 15 13 10 9 7 6 5 6 8 7 7 6 7 7 6 11 13 12 12 12 12 12 15 16 16 17 17 14 14 14 15 16 16 15 15 12 11 10 9 9 8 8 9 11 14 16 18 19 23 26 28 27 24
13 10 9 8 5 3 2 3 7 11 11 14 14 9 13 11 16 18 13 15 18 12 8 11 14 17 19 17 13 15 14 14 16 17 15 14 15 12 10 11 10 10 10 9 10 13 14 16 19 21 23 25 27 26
13 12 9 6 4 4 6 8 8 10 13 18 19 10 15 25 17 18 19 21 19 24 24 20 20 15 15 15 15 14 17 17 15 15 16 14 15 18 12 10 11 11 10 10 9 9 11 12 15 17 18 20 21 22

GFSWCAN_500_spd_084.txt.gz
Wind_Speed
43 44 41 40 39 36 31 25 21 19 15 10 10 15 34 26 18 16 13 11 8 4 6 5 3 0 5 7 9 8 8 6 3 2 2 3 3 3 4 5 6 9 13 16 19 23 27 27 32 37 33 36 44 49
42 41 40 37 34 32 27 21 17 13 12 13 15 11 35 23 17 17 15 12 11 9 6 7 3 1 1 4 7 8 6 5 4 3 1 1 3 5 6 7 8 8 10 13 16 20 24 27 29 32 39 40 39 39
39 38 36 33 32 29 25 21 16 13 13 14 12 8 33 20 17 18 15 15 13 11 10 8 7 5 6 3 3 4 5 4 3 2 2 6 7 8 8 9 11 13 12 13 17 18 22 26 29 32 32 33 37 43
38 35 33 31 30 26 23 20 16 13 8 10 8 14 30 20 18 18 17 17 13 12 12 10 9 8 10 9 4 6 5 5 5 5 4 5 8 12 12 12 14 18 17 16 16 21 23 25 28 31 32 34 37 41
34 32 29 28 26 23 22 18 14 11 8 9 10 5 30 20 19 20 18 17 16 13 13 12 10 5 5 6 9 8 10 10 9 11 13 14 14 16 16 15 17 20 22 23 23 24 28 29 30 31 33 36 37 40
31 30 28 27 24 21 21 17 14 13 13 12 10 7 31 27 22 19 21 18 18 14 11 11 11 9 9 7 10 12 12 12 12 13 14 15 16 16 17 18 19 20 22 27 28 30 32 30 33 35 34 33 37 41
30 29 27 27 23 20 17 14 15 13 11 11 12 13 18 36 33 19 21 21 19 16 13 11 10 9 8 8 9 11 12 14 15 15 16 15 14 17 20 25 22 23 21 24 31 32 31 29 30 36 36 35 37 38
29 27 26 20 17 16 16 16 16 14 13 13 11 11 10 28 32 27 21 20 20 19 15 12 10 10 12 12 10 12 15 15 18 20 19 20 19 21 24 28 25 27 25 27 32 31 29 29 27 30 33 31 32 34
28 25 20 17 17 19 19 18 16 15 13 13 10 11 7 9 23 31 23 20 20 20 18 15 15 16 14 16 16 19 19 18 18 18 23 25 24 25 30 30 33 34 32 31 30 26 27 27 26 28 30 31 32 34
23 19 15 15 17 17 14 13 15 15 11 9 11 16 14 10 18 37 23 20 19 19 18 16 19 17 17 17 18 20 20 22 21 17 22 20 22 30 33 31 32 28 32 30 27 27 26 26 26 27 28 29 28 31
18 14 13 15 15 13 10 10 11 11 11 14 16 14 13 13 17 39 22 19 16 17 18 20 20 18 16 18 20 21 24 25 26 22 22 24 23 26 19 23 27 33 36 28 23 26 25 29 29 24 24 25 28 27
14 12 14 12 12 11 10 9 11 10 8 10 13 15 16 16 22 34 22 17 16 17 19 18 19 20 19 20 20 21 20 14 14 14 18 22 17 23 23 25 26 29 18 18 23 30 37 30 28 27 26 24 26 30
14 13 13 10 9 10 10 6 5 6 7 8 8 8 7 13 26 25 18 15 14 14 15 14 17 22 21 21 21 22 20 14 16 18 20 18 19 23 23 24 23 20 19 29 34 34 31 28 27 27 26 24 26 18
15 13 12 10 8 8 7 7 6 6 5 2 1 5 6 11 19 14 17 21 18 15 14 16 19 21 22 20 21 21 18 18 21 23 20 19 21 23 21 21 21 25 30 30 27 28 28 29 29 29 28 28 31 34
15 15 14 12 11 9 7 8 7 6 4 1 1 2 3 9 21 22 19 19 20 18 19 20 17 16 20 15 10 13 19 20 23 23 20 21 23 22 18 24 26 26 27 27 28 28 29 30 30 31 32 32 34 35
16 16 15 12 12 12 12 12 11 9 5 4 7 10 12 15 15 16 18 20 19 15 9 13 14 11 6 10 12 17 19 19 19 19 22 23 24 19 22 28 27 26 26 26 27 28 29 29 31 32 34 36 39 40
15 15 15 13 14 14 14 14 13 10 8 9 11 9 13 16 17 19 19 17 12 15 14 11 12 11 12 13 15 17 16 16 18 21 23 23 22 21 23 25 25 25 25 26 28 28 29 30 31 33 32 30 32 35
14 14 14 13 14 14 14 15 13 9 10 10 10 14 16 18 17 17 15 13 12 15 9 9 13 13 14 14 17 19 15 16 20 21 21 22 22 20 21 22 23 24 27 27 27 28 28 28 30 26 22 22 26 22
12 12 12 12 13 12 12 12 11 11 12 10 12 12 13 13 12 13 12 10 10 11 12 13 13 12 16 18 18 16 14 18 19 19 20 21 22 22 22 22 23 24 23 23 24 25 26 27 27 24 24 24 19 16
10 10 11 11 11 11 12 12 11 13 12 9 13 13 12 11 10 10 11 12 13 14 13 14 12 14 14 15 14 14 15 17 17 18 20 21 21 21 21 21 22 22 23 24 25 26 27 26 27 25 23 20 15 12
9 9 9 10 10 11 11 11 12 11 11 12 12 10 8 8 8 9 10 11 15 21 11 10 11 13 13 11 12 14 17 16 15 17 18 20 20 21 21 21 20 21 22 23 24 27 27 26 25 26 24 20 15 8
8 9 8 7 7 8 9 11 12 13 12 11 11 9 8 10 9 8 9 8 5 5 6 6 7 9 8 8 11 14 16 17 19 18 18 19 18 18 20 22 22 21 20 22 26 28 27 28 25 23 23 20 15 11
8 8 6 5 5 6 6 6 8 10 12 12 10 7 5 4 9 11 11 12 8 6 5 4 4 5 7 11 13 14 16 18 19 19 20 20 18 17 18 19 20 18 20 25 26 27 26 26 25 23 20 20 18 13
6 8 8 6 4 6 6 8 10 11 11 9 6 6 8 3 4 4 6 9 5 2 2 4 6 7 10 12 12 13 14 16 17 17 19 19 18 17 16 16 16 15 19 23 26 27 28 26 24 22 19 16 17 16
7 9 10 8 6 6 9 12 13 13 12 8 5 4 4 2 2 5 8 8 6 4 4 6 8 8 10 12 13 12 13 16 17 15 16 17 16 15 15 14 14 15 20 22 24 27 29 28 28 26 20 18 13 15
8 11 12 10 9 10 13 13 13 12 8 7 5 5 6 3 4 4 3 3 2 3 6 7 8 9 12 14 14 13 12 12 15 16 16 15 14 14 14 13 12 13 18 20 23 26 28 29 26 27 23 25 21 14
9 12 12 13 13 16 16 16 13 11 10 8 6 4 4 2 4 8 6 6 6 7 8 8 10 12 13 13 11 11 12 14 16 17 17 17 16 13 11 11 10 12 17 20 22 25 26 28 26 24 23 22 21 21
10 10 12 11 13 16 16 16 13 12 10 8 3 3 9 8 7 10 10 9 9 8 7 9 12 14 16 12 11 12 12 13 15 17 17 15 17 15 14 12 10 10 14 17 19 22 23 24 26 25 23 22 21 20
8 9 10 13 14 12 14 16 15 12 10 8 5 8 9 9 6 8 10 11 10 9 8 10 12 14 12 11 11 13 12 12 13 14 15 13 15 15 14 13 11 9 10 13 15 18 21 22 24 26 25 22 19 19
11 12 13 11 11 12 11 12 10 11 9 9 9 9 11 10 10 11 12 13 12 10 11 12 14 14 13 14 15 13 13 13 13 13 14 14 13 15 14 13 12 9 7 9 12 13 15 18 21 23 24 23 22 20
12 12 13 14 14 10 9 7 8 8 7 8 10 11 12 16 12 15 20 15 16 13 10 10 11 12 16 18 16 11 12 14 13 13 11 12 11 10 12 12 11 12 11 8 8 10 12 14 17 18 18 20 21 22
13 13 11 8 7 8 8 7 6 4 6 9 9 16 23 23 26 23 22 28 23 17 12 12 14 17 16 13 13 12 13 15 18 13 10 11 11 13 12 11 10 8 8 9 10 9 8 8 9 11 13 15 17 20
15 13 12 10 8 7 5 5 5 7 9 13 15 14 14 15 11 24 36 23 22 18 12 12 18 22 15 9 13 13 11 14 18 14 11 12 11 12 13 12 12 13 13 11 10 10 11 10 10 10 12 13 14 14

GFSWCAN_500_spd_087.txt.gz
Wind_Speed
41 42 40 36 35 35 31 28 25 22 18 14 12 12 13 19 34 23 16 13 10 9 8 7 3 1 2 4 5 5 5 6 5 3 4 5 6 6 5 8 8 10 11 12 17 24 27 27 33 36 33 33 38 45
42 40 37 34 35 32 28 25 23 20 16 16 16 16 16 23 34 19 15 13 12 11 8 10 6 3 1 3 4 4 4 4 4 3 3 1 1 2 3 4 5 7 8 10 13 16 18 21 23 27 31 30 31 39
43 40 34 33 33 28 25 22 21 19 15 15 15 14 19 24 29 18 16 14 13 14 12 11 8 5 4 3 5 4 4 3 2 2 1 2 3 3 4 4 5 7 9 10 13 13 16 19 22 23 25 30 32 36
42 37 33 33 30 26 23 20 20 17 13 11 12 14 14 31 26 17 16 17 17 15 13 12 11 8 7 6 7 8 8 7 6 5 4 6 8 10 11 10 10 12 11 11 14 15 15 16 20 24 27 29 33 35
42 34 32 30 28 26 23 20 19 16 12 12 13 13 9 33 24 16 17 19 19 17 15 15 15 10 6 5 8 9 9 11 12 11 10 10 11 13 14 14 16 16 15 14 17 19 20 23 25 24 24 28 33 37
39 31 30 29 28 25 22 20 18 14 14 14 13 11 8 30 25 19 17 19 19 19 15 14 15 11 9 10 8 8 9 11 12 13 13 13 14 14 14 17 20 21 22 21 21 24 25 27 31 33 31 28 29 34
33 29 29 29 27 24 20 17 16 15 13 14 12 12 14 15 34 23 20 19 20 20 18 16 14 13 14 13 10 8 9 10 13 14 15 15 15 17 20 23 22 25 27 29 30 28 31 32 36 33 30 28 28 31
30 29 29 28 24 22 18 16 16 17 16 16 14 14 15 18 16 40 27 24 21 21 21 18 14 13 13 12 12 13 13 16 15 15 19 20 19 24 25 29 26 25 30 33 35 36 35 35 33 29 33 32 28 29
30 30 28 25 22 20 19 21 21 19 16 15 14 14 16 14 14 24 35 32 22 23 23 20 16 17 16 16 17 18 17 19 17 18 22 22 22 24 24 24 27 30 33 31 36 38 39 35 32 28 32 32 31 32
29 27 23 20 18 16 17 17 17 16 15 14 14 14 17 19 17 16 31 34 26 21 21 22 20 19 19 18 19 18 19 21 19 23 27 24 21 27 29 31 32 29 24 28 31 34 38 35 30 28 33 37 34 34
25 22 19 18 16 14 14 14 15 13 12 13 16 15 16 18 18 19 27 31 25 19 20 21 20 20 18 18 20 21 22 23 18 16 19 20 22 28 29 30 25 27 26 27 31 30 24 24 26 29 39 38 33 31
22 19 17 16 15 13 13 14 14 13 15 12 14 17 18 18 18 18 22 27 23 19 16 16 18 20 19 20 21 23 24 22 23 21 19 17 24 26 25 25 26 28 26 27 29 23 22 29 36 38 34 32 31 33
18 16 15 14 12 12 13 15 13 11 10 11 12 13 14 18 19 17 18 28 19 16 17 19 19 20 21 22 22 23 24 23 24 23 21 24 23 21 23 23 26 24 24 25 26 30 36 36 35 35 34 34 33 32
16 15 14 13 11 10 11 12 10 8 8 9 8 8 10 12 16 22 20 20 21 22 20 17 18 18 19 23 25 23 26 22 18 18 23 23 21 21 21 23 23 23 25 26 26 28 30 31 32 32 32 32 32 32
16 15 14 14 13 10 12 12 11 10 8 8 7 6 6 9 18 18 20 23 24 19 17 18 20 18 16 18 21 19 18 17 23 23 21 21 21 22 22 22 22 24 27 27 27 28 28 28 29 30 31 31 32 33
16 16 16 16 14 13 14 15 14 13 10 9 10 10 11 11 12 18 18 12 12 16 19 18 19 19 17 15 14 16 16 20 21 19 20 20 22 23 22 21 22 24 26 27 27 27 29 29 29 30 31 31 33 33
18 19 17 16 15 14 15 16 17 15 12 13 15 13 14 14 15 13 14 16 15 14 15 16 15 14 14 14 16 17 18 22 19 19 20 22 23 23 23 21 22 24 26 25 26 27 27 28 29 30 31 31 29 28
18 16 13 13 14 14 15 15 16 14 15 16 16 13 14 15 15 15 15 15 14 14 14 16 19 14 16 17 16 17 18 19 18 22 22 21 22 21 20 21 22 22 23 24 26 27 28 28 29 30 29 29 26 28
13 13 13 13 14 14 14 14 14 14 17 13 13 12 14 12 12 12 13 13 14 15 14 14 13 15 17 16 16 16 17 17 21 24 21 20 21 22 20 20 20 21 22 22 22 22 24 26 28 27 27 27 24 24
12 12 12 13 12 13 12 13 13 14 12 12 14 12 11 11 11 10 11 11 12 12 11 12 13 14 13 15 16 16 15 18 22 21 20 20 18 18 20 19 19 19 19 18 21 24 27 28 28 28 26 25 22 20
12 12 12 12 12 12 12 13 13 13 13 14 11 10 12 12 10 10 10 10 10 10 10 9 10 9 11 12 13 13 15 18 18 17 18 18 18 19 18 17 16 17 15 18 22 25 28 29 29 28 26 23 20 18
11 11 9 9 10 10 11 12 12 14 12 10 10 10 8 8 9 9 9 8 10 6 10 7 6 7 7 8 10 13 15 13 13 15 17 17 17 18 18 19 16 15 14 20 24 26 29 30 30 29 25 19 19 18
10 9 9 9 7 7 7 7 10 11 12 12 11 9 8 7 8 9 8 10 9 9 7 6 6 7 5 8 10 12 12 12 14 15 14 15 17 17 16 17 16 14 17 21 24 26 29 28 29 28 23 18 16 17
8 8 10 9 5 6 6 6 8 11 13 13 11 10 2 2 8 10 11 17 21 12 8 7 7 5 7 9 10 10 11 12 15 17 16 16 16 15 14 15 14 13 17 20 22 24 28 27 26 23 27 21 16 20
8 9 11 9 5 5 9 10 12 15 16 16 7 6 2 6 4 7 10 13 12 10 7 6 6 6 8 9 10 10 11 11 12 14 14 15 15 14 13 13 12 11 16 18 20 23 26 25 23 24 21 24 19 16
9 9 11 10 8 8 12 15 17 16 11 8 5 3 2 6 9 10 11 10 9 7 7 7 9 9 10 11 11 12 13 12 13 14 13 12 14 13 11 11 10 10 12 14 18 21 24 27 26 23 22 19 22 21
9 10 13 12 11 13 16 15 18 16 15 11 8 5 5 4 5 8 10 10 10 11 11 11 11 12 11 12 12 12 13 13 12 13 14 13 12 14 13 10 9 9 10 11 14 18 21 24 25 23 21 20 19 20
9 11 13 12 12 15 20 17 15 14 13 11 10 9 7 7 9 9 9 12 12 13 15 14 14 15 15 14 14 13 13 14 14 12 14 15 14 11 11 10 8 6 8 10 11 14 18 21 23 24 23 21 19 18
10 10 12 14 15 16 17 17 15 14 13 13 13 10 8 10 9 11 10 11 14 15 14 16 18 18 16 16 15 14 16 15 15 15 15 17 16 13 14 12 11 8 6 7 8 10 12 15 18 20 21 22 21 19
9 10 11 13 15 16 15 14 13 13 11 11 14 14 10 8 11 12 14 13 13 15 16 18 20 20 19 16 16 18 18 14 12 14 17 18 16 14 12 13 13 12 10 8 8 7 8 10 12 14 16 18 21 21
9 10 11 11 11 11 11 11 9 7 5 9 11 11 12 15 14 13 21 25 23 20 20 19 21 23 22 21 20 20 16 11 11 14 15 18 16 13 11 12 14 12 12 11 10 11 10 9 9 10 12 13 14 15
13 13 12 10 7 6 5 4 3 4 9 11 12 13 15 17 17 20 20 19 23 29 28 33 32 24 20 22 23 15 10 12 11 11 15 18 13 12 11 9 12 13 12 11 10 11 12 13 12 11 11 11 11 10
12 11 11 11 9 5 2 1 3 5 8 11 13 15 16 17 19 25 26 24 23 22 27 29 23 19 22 23 16 11 10 10 11 14 14 15 14 13 10 9 11 12 12 14 13 12 13 14 15 15 14 14 14 12

GFSWCAN_500_spd_090.txt.gz
Wind_Speed
44 37 39 38 38 31 27 26 25 24 22 20 15 13 13 10 10 28 24 16 11 11 10 7 5 4 2 5 5 3 3 2 2 2 3 4 6 6 5 4 7 8 10 13 14 18 20 23 25 27 28 27 30 32
42 36 38 37 36 30 27 25 24 22 21 19 18 17 16 14 13 28 28 16 12 12 13 11 8 5 3 1 3 4 5 3 3 3 3 3 3 3 2 2 4 6 7 9 10 12 14 18 22 24 25 27 24 27
42 35 37 36 35 27 25 24 23 21 22 19 17 17 15 17 18 24 26 17 14 15 15 11 8 6 6 5 3 2 3 2 3 2 0 0 1 2 3 4 6 7 7 8 10 11 13 15 18 21 23 26 25 25
39 35 35 35 30 25 23 23 22 21 21 19 16 16 16 18 18 27 23 19 18 17 15 13 12 10 9 8 8 6 7 5 4 4 6 6 5 6 7 8 10 11 9 8 9 10 9 11 12 14 16 19 22 25
36 32 32 32 26 23 22 23 22 21 21 17 16 17 19 17 13 28 20 19 18 17 17 16 14 11 10 9 9 9 10 9 8 8 9 9 9 10 12 13 13 12 12 14 15 16 17 15 14 13 15 18 20 23
37 33 30 28 24 23 23 22 21 20 19 15 16 15 15 11 22 27 19 16 18 19 18 16 15 16 14 13 10 9 9 7 7 10 11 13 12 12 11 13 15 14 17 19 21 23 24 25 24 25 27 29 31 33
39 33 30 24 23 23 22 21 19 17 17 16 14 13 12 10 19 27 20 18 17 21 22 21 17 15 15 16 13 12 10 9 9 12 14 14 14 16 18 20 19 22 24 24 24 27 30 31 31 33 35 36 33 28
38 34 24 21 22 22 20 21 19 17 17 17 16 14 12 14 15 17 31 24 19 21 23 22 19 16 14 15 15 14 13 12 15 17 18 17 16 18 22 23 25 25 25 29 31 33 34 35 35 36 37 41 39 31
34 26 19 20 21 20 18 20 19 19 20 20 17 15 15 15 18 18 18 24 33 23 20 20 20 19 18 16 16 17 16 18 19 20 22 20 22 25 27 23 22 23 28 29 30 34 31 31 35 35 35 35 33 35
21 14 17 19 19 17 18 17 17 18 17 16 14 16 13 16 18 16 17 21 25 26 23 22 24 21 20 19 19 20 20 20 20 21 23 21 19 23 27 27 26 26 31 28 27 29 32 32 32 33 32 32 32 34
11 15 17 17 16 17 16 16 16 14 15 13 14 15 14 16 17 22 24 21 24 29 25 22 25 25 24 22 22 22 21 22 22 20 20 19 26 24 19 21 26 29 27 27 31 30 29 31 32 30 25 26 29 35
15 15 15 15 17 16 16 16 14 13 10 12 15 14 16 19 19 20 19 20 22 27 22 22 22 22 21 23 24 23 24 24 23 22 21 20 24 23 26 26 24 25 26 29 29 29 31 31 31 32 35 38 40 40
14 15 16 15 14 15 15 14 14 13 13 14 15 15 16 18 20 20 19 18 20 21 22 23 22 20 19 21 21 23 25 24 24 21 21 20 22 25 25 23 24 26 28 28 27 28 28 29 31 32 33 34 35 36
15 16 14 13 13 13 13 12 12 12 14 11 11 13 16 15 17 20 21 21 22 22 21 21 19 17 18 20 20 25 27 23 18 15 19 23 23 22 23 25 26 26 25 25 25 26 28 30 30 32 34 35 36 37
14 14 13 13 13 12 11 11 11 12 12 10 9 12 11 10 11 11 11 10 21 20 17 17 17 16 17 17 21 20 22 18 16 18 21 22 21 24 24 22 24 25 25 24 24 26 28 30 31 32 34 34 35 36
13 13 13 14 13 13 12 11 12 12 10 9 10 10 9 5 5 9 14 17 16 17 18 17 17 17 19 20 18 19 17 16 19 21 24 22 24 25 23 24 25 26 24 23 25 27 28 29 30 31 32 33 33 33
14 13 14 15 15 13 14 13 13 13 12 13 14 12 10 8 9 10 17 17 15 14 15 16 16 15 12 12 14 15 17 18 23 24 23 23 25 25 25 27 27 25 23 25 25 25 27 27 27 29 31 32 33 32
14 14 14 14 14 14 14 15 15 13 14 17 17 15 12 11 9 12 15 18 18 18 18 14 12 10 11 13 14 16 18 22 23 21 20 24 25 25 26 25 24 22 23 24 24 23 24 26 29 31 33 33 32 29
11 11 12 12 13 13 14 15 16 15 17 18 17 13 13 11 12 15 17 20 20 21 18 15 11 9 14 13 14 15 18 18 18 19 22 25 26 26 25 24 21 22 23 22 22 24 27 29 32 33 32 31 30 27
12 10 10 12 12 14 15 15 15 16 17 15 16 13 11 10 11 12 16 19 22 21 16 12 12 13 13 14 16 17 17 18 19 21 23 24 25 25 24 22 20 21 20 19 21 25 27 30 32 32 33 29 22 18
12 11 11 11 13 14 14 14 14 13 13 15 13 11 10 11 13 13 16 18 16 14 15 14 14 11 11 10 10 12 15 19 19 20 22 23 23 22 21 19 18 18 18 18 22 24 27 31 30 29 22 19 17 18
12 11 10 11 11 12 12 13 13 14 14 11 11 10 11 13 13 13 14 13 13 14 14 16 12 10 9 9 10 12 16 20 17 18 21 21 22 20 19 17 17 16 14 18 21 23 28 30 27 21 26 18 20 19
11 10 10 10 9 9 9 10 11 11 11 11 9 10 11 11 12 13 11 11 11 11 12 11 10 10 9 10 11 13 18 18 16 18 18 19 20 19 18 16 14 13 13 16 18 23 27 28 27 22 23 22 20 20
9 9 9 9 8 7 7 6 8 11 12 12 12 11 9 5 10 12 12 12 12 13 11 10 11 10 9 9 12 16 19 17 16 17 17 17 17 17 18 16 15 12 12 15 17 20 25 26 25 23 17 25 24 21
8 8 10 11 7 7 8 9 12 16 18 17 11 8 6 6 7 8 7 7 8 16 17 12 11 11 10 9 13 17 19 17 16 17 18 18 18 18 18 16 14 12 12 14 16 19 22 24 22 21 21 20 24 22
8 9 10 11 9 8 10 13 19 22 20 12 6 6 2 4 4 6 10 9 8 9 9 10 11 12 14 15 17 17 18 16 16 18 20 18 18 19 18 14 13 12 10 12 14 18 19 21 21 21 20 20 21 22
11 11 9 12 12 12 16 20 26 13 15 10 6 6 7 6 5 5 7 9 9 10 12 13 15 16 17 18 18 18 18 15 17 19 19 18 18 18 17 15 12 12 10 9 11 13 15 17 19 20 21 21 21 21
10 10 11 14 14 16 20 22 21 15 17 15 7 8 7 6 3 3 5 8 14 16 17 18 19 20 19 19 19 20 18 17 18 18 18 17 17 17 15 14 13 11 10 9 10 10 11 13 15 17 19 21 21 20
8 10 13 14 15 16 20 21 21 19 15 10 8 7 2 3 4 5 8 9 10 14 17 18 20 21 22 21 22 23 21 20 19 18 18 16 15 15 14 12 12 12 11 11 11 11 9 9 11 13 15 17 19 20
11 10 11 13 13 15 20 19 16 13 13 12 11 11 12 8 9 10 12 11 12 17 22 25 25 24 23 23 24 25 25 23 23 24 18 15 14 12 13 12 13 12 11 12 13 13 12 11 10 9 11 12 13 15
8 9 11 13 14 14 14 15 13 10 9 10 12 12 11 12 14 15 17 20 23 21 23 23 25 29 30 29 31 34 31 25 27 23 17 14 11 11 12 13 12 13 13 12 13 14 13 14 13 11 11 12 12 12
13 13 13 13 12 10 9 8 8 8 9 10 10 11 12 15 17 19 22 19 20 28 29 28 28 27 36 38 36 36 26 24 20 15 13 13 14 12 13 15 13 13 14 14 13 15 16 15 14 13 13 13 13 12
13 13 12 12 11 10 9 7 6 5 5 7 10 14 17 20 22 20 18 23 28 25 21 24 22 16 15 16 23 23 18 18 14 10 11 11 13 14 14 15 15 16 15 14 14 16 15 15 15 13 13 13 14 15

GFSWCAN_500_spd_093.txt.gz
Wind_Speed
40 40 43 46 48 36 25 27 25 21 19 17 16 14 11 9 7 6 20 20 13 12 10 7 5 1 2 4 5 6 5 5 5 4 5 6 7 7 7 6 8 10 13 17 20 20 22 23 26 28 29 30 31 35
53 55 54 49 43 34 23 23 23 20 19 16 16 13 11 11 10 11 8 27 19 15 15 11 9 6 3 1 3 5 6 5 5 5 4 4 6 6 6 6 7 9 10 11 11 12 13 16 19 20 22 26 26 26
48 45 40 41 36 31 19 20 21 20 18 15 15 14 12 10 10 13 13 27 24 19 18 15 14 11 8 4 2 1 1 2 3 4 4 4 3 2 3 3 4 5 6 7 8 10 11 13 14 15 18 20 21 23
42 42 39 40 35 30 17 16 19 20 19 16 15 13 12 13 14 17 17 27 27 22 19 18 17 15 12 8 6 7 5 3 3 2 2 2 2 3 4 5 6 7 7 7 7 8 8 9 10 11 13 15 18 20
37 37 37 34 36 30 17 13 18 19 19 18 15 12 13 15 16 19 17 32 28 23 18 20 19 15 12 10 8 9 11 7 5 6 6 6 6 7 7 9 11 7 9 10 11 9 11 12 13 13 14 15 15 15
32 32 32 33 34 28 18 13 18 19 19 18 15 11 11 12 13 16 25 31 22 21 20 19 19 16 16 14 11 10 10 8 6 6 6 7 9 10 10 11 10 9 10 12 12 14 15 15 17 18 21 24 25 24
26 29 34 36 33 30 17 13 17 18 18 16 14 12 9 9 8 15 26 22 18 20 21 21 20 18 18 18 16 16 14 10 8 8 10 12 12 12 14 17 16 16 17 19 22 23 23 24 25 26 26 28 32 33
27 31 29 28 33 26 16 14 17 18 18 16 13 12 10 8 7 15 27 22 19 19 22 22 20 20 19 18 18 19 17 14 11 12 15 14 16 17 17 17 18 19 20 21 19 20 23 26 30 33 34 33 32 35
35 31 30 29 26 17 12 14 18 18 18 18 16 13 14 13 14 18 22 27 28 25 21 20 21 24 22 20 18 16 16 15 14 16 17 17 20 21 17 17 17 19 19 19 23 25 29 32 31 29 30 33 35 36
30 31 26 23 15 10 11 16 16 16 16 17 15 14 15 15 18 19 25 23 19 21 28 24 23 24 23 23 20 18 17 16 17 18 17 18 18 22 20 22 22 16 17 23 28 29 28 27 29 30 31 30 32 34
25 20 16 10 6 8 14 15 14 15 15 14 13 14 14 15 18 19 21 19 18 19 21 27 27 22 23 23 21 19 20 19 18 17 20 19 20 24 22 21 21 23 27 26 26 27 28 30 30 28 30 31 31 31
19 11 7 6 10 13 12 13 14 13 12 12 13 12 11 14 17 18 19 20 21 21 20 27 25 20 20 23 24 24 23 22 21 20 21 21 22 22 20 22 25 26 25 26 27 27 28 29 29 29 30 30 32 34
10 6 8 11 12 11 11 11 11 11 12 11 11 11 14 14 17 20 20 19 19 15 21 23 24 22 20 21 21 21 21 20 20 21 22 22 18 18 22 23 23 24 27 27 27 28 28 28 28 29 31 33 35 35
6 10 12 12 10 11 11 9 9 11 13 13 11 11 14 15 16 18 19 18 16 14 19 23 22 19 18 17 15 17 17 17 18 16 17 15 18 21 20 20 24 26 26 27 27 26 25 26 30 32 33 33 34 36
11 12 12 11 11 11 10 9 10 12 12 12 11 11 11 10 12 13 14 15 16 18 18 20 17 16 14 14 15 14 15 17 17 13 15 19 21 22 20 23 25 24 24 23 23 23 25 28 30 31 32 33 33 35
13 11 11 12 12 12 9 8 10 12 12 11 10 8 8 8 7 9 10 12 15 19 17 15 14 14 15 14 14 18 15 14 13 16 17 19 22 21 21 23 22 23 23 24 23 23 26 27 29 29 30 33 35 37
11 11 12 12 12 12 10 9 10 11 12 11 9 8 8 7 5 7 12 16 17 19 18 18 17 18 16 15 13 13 13 13 16 15 17 19 19 20 22 22 24 24 24 23 23 24 25 25 27 31 34 36 39 41
9 10 12 13 13 13 13 13 12 13 14 14 11 9 9 10 9 9 13 18 19 20 19 17 15 13 14 14 15 12 13 15 15 16 17 17 20 22 23 23 24 24 23 22 22 21 22 25 29 32 36 39 40 38
12 11 12 13 13 14 14 14 14 15 16 15 15 13 12 12 14 15 17 18 22 23 20 18 13 10 14 15 14 13 14 14 15 16 17 19 21 22 23 23 24 24 22 21 20 19 23 26 31 36 40 29 28 24
10 12 11 11 12 13 13 13 14 15 16 16 16 13 13 16 16 15 17 20 24 24 20 14 12 16 15 12 14 16 15 15 15 16 18 20 21 22 23 23 24 22 20 19 18 20 23 28 33 34 25 26 25 22
9 11 10 10 10 11 12 13 13 13 13 14 14 14 16 16 15 15 17 19 20 19 17 17 19 16 13 15 15 14 13 13 14 17 19 20 21 21 22 22 22 20 18 16 15 18 22 29 30 27 21 24 24 22
11 10 9 10 9 10 11 11 12 12 13 11 12 14 16 14 13 15 15 15 14 17 19 20 18 15 16 16 14 11 11 11 15 17 19 20 20 20 20 19 20 18 17 14 15 17 21 26 26 23 20 23 23 22
9 8 9 8 8 9 10 11 11 11 11 12 13 14 14 13 13 13 12 13 16 18 17 16 16 17 16 15 12 10 11 13 15 18 19 20 18 17 18 19 18 16 14 13 14 16 19 23 22 22 19 21 21 22
7 8 8 8 9 8 8 8 9 12 14 14 12 12 11 10 9 9 11 12 14 13 13 13 13 14 14 13 11 11 11 13 16 18 18 19 17 16 18 18 17 16 13 13 13 14 17 20 20 21 22 21 21 21
8 8 9 10 10 9 10 8 8 10 13 14 13 12 6 2 4 6 8 10 11 13 15 15 12 11 11 11 11 12 13 15 17 19 19 18 18 16 16 17 16 15 13 12 12 13 14 17 20 19 20 21 22 22
8 7 9 12 9 8 10 11 14 18 20 19 13 8 4 5 4 5 6 5 3 2 6 14 12 10 11 12 14 17 18 19 21 22 20 18 18 16 15 16 16 14 12 11 13 12 11 13 15 18 19 21 20 20
8 8 9 13 11 10 13 16 20 17 8 6 14 14 6 6 5 5 7 7 6 6 6 7 9 12 14 16 17 18 18 19 21 22 21 20 19 18 16 15 16 16 12 10 12 13 10 11 13 14 16 18 20 20
8 10 9 13 13 14 20 24 19 7 16 6 10 9 9 7 4 2 2 3 7 11 13 16 18 19 20 21 22 21 22 23 24 25 23 21 19 19 16 15 16 15 14 12 11 13 13 10 11 12 12 14 15 17
8 9 12 17 16 17 22 29 24 11 12 13 4 3 5 5 3 2 4 6 8 10 11 12 13 17 22 25 26 26 27 26 26 26 26 25 22 23 18 12 14 14 13 13 12 12 14 14 13 13 13 13 13 13
10 11 14 16 15 16 19 21 22 17 13 12 8 7 9 8 7 7 8 10 13 13 17 19 21 23 25 23 24 30 32 31 32 33 31 25 24 22 16 10 11 12 13 14 13 12 14 16 15 15 15 16 16 13
12 13 14 16 17 17 19 17 15 13 11 10 10 10 10 12 13 16 17 17 19 20 21 21 22 25 28 26 20 25 30 32 38 38 34 29 24 15 11 9 10 12 12 12 12 12 13 16 16 16 16 17 18 18
9 11 11 11 10 9 11 12 12 11 11 10 9 10 12 14 16 18 21 22 22 23 22 25 29 28 26 25 22 19 19 17 26 37 27 15 14 15 13 11 11 12 11 11 11 14 16 16 15 15 17 18 18 18
14 14 13 13 12 11 10 9 8 6 5 5 7 10 13 14 17 20 21 22 21 23 25 23 23 24 20 16 16 20 20 13 12 11 10 10 8 8 9 10 11 10 9 11 13 15 15 17 16 14 15 17 19 20

GFSWCAN_500_spd_096.txt.gz
Wind_Speed
48 47 43 43 43 43 43 41 34 27 19 17 17 15 14 10 8 9 15 24 19 17 15 12 9 5 3 4 4 3 5 5 5 4 5 6 11 9 7 7 18 20 23 21 22 24 25 21 22 26 29 29 29 32
42 43 42 41 39 40 36 34 30 26 19 17 16 16 14 13 12 11 11 26 23 20 17 15 13 10 7 4 5 4 5 6 6 6 6 5 5 7 7 7 9 13 17 20 21 22 21 23 24 24 27 33 34 32
38 34 35 34 33 33 35 31 29 26 20 18 17 17 15 15 15 16 13 15 31 25 22 20 17 14 11 8 7 5 5 4 5 6 6 6 5 5 5 5 6 8 11 12 14 15 14 15 16 17 18 19 22 24
29 29 29 32 32 30 31 28 31 28 21 19 18 18 16 16 16 17 14 16 22 32 26 23 21 19 15 12 9 7 6 5 4 5 5 5 5 5 5 5 5 7 9 10 11 12 12 11 11 11 13 16 19 23
28 30 29 27 26 29 27 28 33 31 22 20 20 19 19 18 17 19 20 18 21 37 30 26 25 23 19 15 11 9 8 8 6 6 7 8 8 7 7 8 9 7 10 11 13 12 14 13 13 13 13 12 13 15
28 29 27 25 26 25 29 28 35 31 21 21 21 20 20 20 18 19 21 21 26 38 34 28 26 25 20 18 15 12 10 9 9 8 5 4 4 7 8 11 10 9 11 11 13 13 14 15 17 17 17 18 19 20
29 29 27 24 24 24 25 24 31 33 22 20 20 20 21 18 17 18 21 23 31 37 31 27 26 25 22 20 18 16 14 11 11 10 9 7 6 7 9 12 12 13 16 16 16 16 18 19 20 22 23 25 25 26
31 28 25 26 22 24 24 21 33 32 20 19 20 19 20 18 14 13 17 25 32 29 27 27 25 24 24 22 21 19 17 16 14 14 12 10 11 11 11 13 14 17 19 20 21 21 22 20 21 23 25 26 29 32
29 25 23 25 23 22 20 25 36 26 17 19 21 19 19 18 16 14 24 28 26 25 23 22 23 26 25 23 22 21 19 18 16 16 15 13 15 13 12 13 13 13 14 19 24 26 24 23 26 28 29 29 30 30
22 18 20 18 20 22 22 29 29 18 18 19 20 20 20 20 20 20 25 28 27 26 23 22 23 25 25 25 23 22 20 17 16 16 16 15 16 16 16 14 14 15 17 18 17 20 26 29 28 27 27 28 31 32
18 16 17 19 19 20 23 20 15 13 16 19 19 19 21 21 23 22 24 26 28 24 25 30 31 29 25 25 23 23 20 17 16 15 17 16 21 20 22 21 19 18 18 22 25 24 23 24 26 27 28 30 30 31
16 15 16 18 18 17 13 8 10 14 16 16 17 19 20 21 22 22 23 22 23 25 22 18 17 31 25 22 22 22 21 19 18 16 17 19 21 23 23 20 17 19 22 21 22 23 24 25 26 27 28 28 30 32
13 15 16 17 13 8 7 10 13 14 14 13 15 18 19 19 17 19 20 19 19 18 20 21 20 24 24 23 20 19 18 18 17 17 17 21 21 17 14 16 20 18 18 22 23 23 25 25 26 26 28 29 30 33
15 17 15 11 6 6 11 13 13 10 13 14 15 16 15 16 14 15 17 19 20 20 17 17 20 23 23 21 19 16 14 13 14 16 17 18 16 15 17 19 16 18 23 24 23 24 24 25 25 25 27 29 31 33
18 15 12 9 10 12 13 13 13 16 17 18 18 19 18 15 16 16 18 18 18 16 15 16 21 21 20 17 14 12 13 15 15 14 16 14 13 15 17 18 18 21 21 20 21 21 22 21 23 25 27 28 30 32
18 13 11 11 12 13 13 12 12 15 18 18 19 18 14 15 15 15 16 18 19 18 16 16 19 22 17 17 15 16 16 17 13 13 11 11 13 15 15 16 17 19 20 19 19 19 19 21 23 23 26 29 33 36
20 14 12 12 12 13 14 12 11 15 15 15 16 15 13 12 10 10 12 14 16 18 21 20 19 20 18 17 16 17 17 11 11 10 10 12 14 12 13 17 19 21 21 21 20 20 20 19 20 23 27 32 35 40
18 13 13 13 14 15 14 14 13 15 17 18 17 13 11 10 10 10 13 14 18 24 22 23 21 16 16 16 18 19 13 12 11 10 11 12 11 12 15 18 21 22 21 20 18 19 18 19 21 25 29 33 31 31
18 14 13 14 14 15 16 16 15 15 18 18 15 13 12 11 13 13 14 18 20 23 24 22 20 18 18 20 21 14 11 12 10 11 11 10 11 13 16 18 20 21 21 19 17 17 17 18 23 27 30 29 28 29
14 14 13 13 14 14 15 14 15 17 19 20 19 18 17 15 16 17 18 18 20 19 21 20 16 18 21 19 15 14 14 12 12 11 9 10 12 14 16 18 20 21 21 18 17 16 16 20 24 26 28 27 26 27
14 12 12 11 11 12 12 14 15 16 17 17 17 16 15 17 15 16 18 19 20 17 19 21 24 26 21 15 13 13 12 12 10 8 9 11 13 15 17 18 19 19 19 16 15 14 16 19 22 23 25 26 27 25
12 12 12 10 9 11 13 14 14 14 14 14 13 13 16 13 13 14 16 15 13 17 22 26 26 21 14 14 13 12 12 12 9 9 11 13 13 15 16 17 17 18 18 16 15 13 12 17 20 21 22 24 25 25
12 12 11 10 10 11 11 11 11 11 11 12 12 11 11 12 13 13 11 12 15 19 19 19 17 14 14 14 14 13 12 12 12 12 13 13 15 16 17 18 17 17 17 15 14 14 13 14 17 18 19 20 23 24
11 10 10 9 9 9 9 11 11 12 13 13 13 11 9 10 9 11 12 12 12 14 14 15 15 16 16 16 14 13 13 13 13 14 14 15 16 17 17 18 17 16 17 15 14 13 13 13 13 16 17 18 20 21
10 10 9 9 9 9 9 9 9 9 11 11 10 10 8 8 8 7 8 9 10 11 11 13 13 12 12 12 13 14 14 15 16 17 19 18 17 18 19 19 18 16 17 16 15 14 12 12 12 11 14 17 19 20
9 9 9 10 10 9 10 8 8 9 12 13 17 15 10 9 9 9 8 8 8 9 12 18 18 12 9 11 12 14 16 18 21 23 22 20 18 19 20 20 19 18 16 15 16 15 15 13 12 10 11 14 16 18
10 9 11 13 10 10 11 11 14 14 12 17 21 14 13 10 8 7 10 10 7 4 3 3 7 10 11 12 15 17 20 22 24 24 24 23 23 22 23 22 21 19 16 15 15 16 16 16 14 13 10 11 13 15
9 10 12 15 12 13 17 24 16 13 20 21 23 15 12 10 9 8 8 8 7 8 9 10 11 12 14 14 16 19 23 24 25 26 27 28 27 25 26 24 24 24 17 16 15 15 16 16 17 16 14 12 12 13
10 12 12 14 14 17 24 22 18 18 14 14 12 10 11 9 9 9 8 8 8 7 7 7 9 10 11 14 18 21 20 20 23 27 31 32 31 30 31 32 32 23 19 16 16 15 14 16 16 16 17 16 15 14
12 12 13 15 17 19 27 26 15 11 9 7 7 7 8 9 7 7 8 10 10 11 11 12 15 18 22 21 21 24 25 24 25 26 22 23 29 30 34 36 29 20 19 15 16 16 14 13 14 15 16 17 17 17
11 11 13 16 14 15 19 23 24 17 10 7 7 6 6 8 10 13 15 16 17 18 20 21 23 23 20 23 23 21 27 28 26 25 20 22 32 30 29 23 17 17 15 13 15 15 14 13 14 14 15 16 17 16
8 8 8 9 10 11 14 13 11 10 10 8 8 8 9 11 13 14 18 20 21 22 24 24 22 22 22 22 22 24 23 15 16 22 27 26 27 24 14 10 13 14 11 11 14 15 15 15 14 14 15 16 15 16
13 13 13 12 12 12 12 12 12 10 8 7 7 8 11 12 15 18 19 19 20 20 19 19 20 20 19 16 17 20 19 18 20 22 14 8 3 5 6 7 10 10 11 11 14 16 15 14 15 15 16 16 16 15

GFSWCAN_500_spd_099.txt.gz
Wind_Speed
41 41 41 40 38 37 37 39 40 39 39 35 29 24 23 17 15 15 17 26 28 25 21 19 15 11 7 4 5 5 3 2 4 4 4 3 8 11 12 12 16 17 21 21 17 16 25 24 15 23 25 33 34 33
36 36 35 34 34 33 35 36 38 38 38 30 29 25 23 19 17 18 19 24 30 28 23 20 20 16 11 8 5 6 6 6 6 6 5 7 7 7 7 6 7 17 21 23 25 27 25 20 20 22 23 24 28 30
31 32 29 27 28 30 31 32 33 35 35 31 31 25 23 20 19 21 20 21 33 28 27 24 23 20 16 13 11 9 8 7 7 7 7 7 7 8 8 8 7 9 12 17 21 25 23 22 22 23 24 24 27 29
29 30 28 27 27 27 28 30 30 34 33 34 32 26 26 22 21 20 23 24 26 34 27 28 24 25 21 18 15 12 10 9 8 7 7 7 8 7 7 7 7 7 10 14 16 16 17 16 18 18 19 21 24 24
28 27 27 27 27 26 24 24 25 27 30 33 34 28 26 25 23 21 23 26 27 27 35 35 29 26 24 21 18 15 12 12 11 10 11 11 10 10 10 11 11 10 11 12 15 12 14 15 15 15 15 14 15 16
27 26 25 25 26 26 26 26 26 26 22 27 35 30 27 27 25 23 23 27 27 26 29 38 36 29 27 23 21 18 15 13 14 14 12 11 11 11 11 12 13 11 15 17 18 17 17 16 17 18 18 19 19 20
24 23 23 22 24 26 26 26 25 27 25 28 36 31 26 27 26 26 25 23 29 29 31 39 39 32 28 25 22 21 18 15 14 13 12 11 10 9 9 10 8 12 15 15 15 17 18 18 20 20 23 23 25 26
22 24 25 27 29 26 27 26 24 26 26 29 36 30 26 26 26 26 25 28 30 32 35 40 39 30 28 26 24 23 22 19 18 15 15 15 13 10 10 12 13 15 16 18 20 22 24 23 26 25 27 29 30 31
22 25 26 27 29 27 26 27 24 25 26 33 37 28 23 24 25 24 24 24 29 34 37 37 32 31 27 27 27 24 23 22 19 20 20 18 16 13 11 12 13 14 16 17 17 19 23 25 27 27 27 28 30 32
23 23 24 27 27 25 24 23 20 22 27 34 30 24 22 22 24 22 20 18 24 29 31 28 29 23 28 25 25 24 23 22 20 20 19 20 17 16 13 13 15 16 18 17 18 19 20 20 21 25 31 33 34 35
21 22 24 26 25 20 18 17 17 21 28 27 23 21 22 22 23 21 19 20 23 26 29 28 28 27 28 26 26 27 24 23 22 20 20 18 18 15 16 17 18 19 19 19 18 20 23 25 26 27 29 30 32 33
21 23 25 24 19 16 17 18 20 23 23 20 17 18 18 21 23 22 24 24 25 28 27 25 24 24 26 26 25 22 23 23 23 21 19 16 17 15 16 18 20 16 15 19 21 21 22 25 28 29 30 30 32 33
22 23 21 17 15 17 17 18 17 16 15 14 15 18 19 22 22 20 20 20 23 27 27 29 28 24 22 30 32 25 23 23 21 24 19 17 15 16 17 14 13 15 18 18 20 23 25 25 26 27 27 29 29 30
22 21 16 15 15 16 15 12 8 9 11 14 17 16 18 17 15 15 17 20 24 22 25 27 24 19 18 21 27 26 23 19 21 20 18 17 15 15 14 15 17 17 16 20 23 23 24 25 25 26 27 26 27 29
20 16 16 15 15 17 13 13 17 16 11 17 17 16 13 13 12 13 14 17 21 19 18 16 16 19 20 22 24 21 17 17 14 14 17 13 12 11 13 14 13 15 17 20 22 23 22 22 22 21 23 24 25 27
18 15 15 18 16 15 15 16 18 15 16 21 18 15 14 15 15 16 17 19 19 19 18 14 13 16 21 22 21 19 16 14 15 15 15 12 13 12 11 10 11 14 16 20 20 19 20 18 18 18 18 21 24 29
15 16 15 15 14 16 16 17 18 19 21 20 19 18 18 16 15 17 18 17 20 19 19 20 18 19 20 20 21 21 18 18 15 15 14 13 11 10 11 11 13 14 17 22 21 19 18 17 16 16 18 23 25 28
17 17 17 15 16 17 17 17 15 15 19 21 21 19 18 17 16 15 15 17 19 21 23 18 16 18 21 22 21 21 18 16 15 16 13 12 11 12 11 11 14 16 19 22 21 19 17 16 15 16 20 23 24 27
16 17 18 17 18 18 18 17 15 14 15 17 17 18 16 16 15 13 13 14 15 20 26 27 22 23 23 23 21 19 15 16 17 15 13 13 12 11 11 12 15 16 19 22 21 18 17 16 16 18 20 21 23 26
18 19 17 17 17 18 18 16 16 15 17 18 18 17 16 16 15 15 14 13 13 15 23 23 24 21 20 21 23 18 17 16 16 14 14 12 10 10 12 14 15 16 18 20 20 18 16 16 17 18 20 20 21 24
22 19 17 17 17 17 17 17 17 18 18 18 19 19 18 16 15 15 15 14 14 14 18 22 25 25 27 25 16 16 15 15 15 14 16 13 11 12 15 15 16 18 18 19 20 18 17 17 18 17 18 19 20 21
17 16 16 15 14 14 13 15 15 16 15 15 14 14 14 13 14 13 13 14 14 16 21 24 27 29 26 20 17 16 15 14 13 15 15 13 13 14 16 17 18 19 19 18 18 18 18 17 17 17 17 17 18 20
17 16 15 14 13 12 12 13 13 13 13 13 13 14 15 14 14 13 11 12 16 18 20 22 25 25 23 19 17 17 14 15 15 16 16 15 16 16 18 20 20 20 20 19 18 17 17 17 16 16 16 17 16 18
15 14 14 13 11 10 11 13 13 13 13 13 13 11 11 12 12 12 13 12 11 9 9 13 18 19 19 18 17 15 14 15 16 17 16 15 17 19 20 21 23 23 21 20 19 18 17 17 17 16 15 15 15 16
13 13 12 11 10 10 10 11 12 13 10 9 12 12 11 9 9 9 9 7 4 9 10 12 14 16 17 16 15 14 15 16 17 18 18 20 22 23 25 25 25 24 22 22 21 20 19 17 17 17 14 15 16 16
12 13 12 12 12 12 11 10 8 8 9 11 14 14 13 12 11 10 7 10 12 10 11 12 13 14 13 12 12 12 14 15 17 19 20 23 24 25 27 27 27 26 26 24 24 22 20 19 18 18 16 15 15 14
12 12 12 14 12 13 13 10 13 12 13 16 18 18 15 12 11 12 11 11 9 8 6 8 13 18 17 12 12 13 14 17 20 24 24 26 27 27 28 30 30 29 28 26 30 26 19 20 19 18 19 17 16 16
12 12 16 14 12 13 14 15 14 9 11 17 18 17 14 14 8 12 13 14 12 10 8 7 7 9 12 15 16 17 19 19 21 22 21 25 27 30 31 32 34 32 31 31 37 32 21 19 19 18 19 19 19 18
12 13 15 14 14 18 24 14 16 22 21 22 21 14 17 12 12 7 5 6 6 7 9 11 13 13 14 16 17 17 19 22 22 26 27 27 26 26 26 25 25 29 30 34 38 33 22 17 16 16 18 18 18 18
13 14 14 16 15 19 18 19 19 16 15 17 15 10 8 8 7 6 6 6 8 9 12 14 15 16 18 18 20 23 24 25 27 25 30 29 25 22 17 20 22 24 28 29 29 28 18 15 15 16 16 16 16 17
11 13 13 15 16 17 23 14 14 11 6 3 2 4 6 4 4 7 9 11 12 13 14 16 18 20 22 24 22 22 24 28 29 29 25 18 17 20 22 26 27 29 24 20 22 19 13 12 16 18 17 16 16 16
11 12 15 16 14 13 17 20 19 16 13 11 9 9 10 9 9 10 11 13 15 16 18 19 19 19 20 21 22 23 24 25 28 21 18 17 17 21 26 17 13 10 11 12 11 11 13 15 17 18 18 17 17 17
13 14 14 13 12 13 14 15 15 13 11 10 9 10 10 11 13 14 16 18 19 19 18 17 16 16 17 17 18 19 19 19 17 22 22 21 9 3 5 4 5 9 10 10 12 12 13 14 16 17 18 18 18 17

GFSWCAN_500_spd_102.txt.gz
Wind_Speed
42 41 40 39 38 37 36 36 33 31 33 37 39 36 32 31 23 20 22 22 28 31 33 24 23 16 10 8 9 5 4 4 4 4 1 11 8 4 7 12 10 8 16 14 16 14 16 16 8 20 39 46 33 34
36 36 34 33 33 31 30 29 27 27 28 32 38 39 35 35 25 23 25 24 26 33 36 23 24 19 14 8 8 8 5 4 0 6 4 3 3 2 4 5 7 14 20 25 23 26 21 19 11 17 19 18 30 34
34 34 33 31 29 28 28 27 25 25 27 27 30 37 38 35 27 26 24 25 27 33 33 29 27 23 21 17 13 11 9 7 6 5 3 6 7 5 6 7 9 6 8 17 16 26 28 20 12 17 20 23 22 23
32 31 29 30 29 26 25 28 26 26 27 26 27 32 34 32 29 29 25 27 25 30 33 31 30 28 24 23 18 17 11 10 8 7 7 6 7 8 8 5 7 7 7 9 12 18 17 20 20 19 21 24 25 26
30 29 29 26 27 28 26 25 23 23 22 23 24 30 32 29 31 33 24 28 29 28 30 35 35 31 30 27 24 20 17 15 13 13 12 11 12 10 11 10 10 9 9 12 16 16 15 20 17 17 19 20 19 20
27 27 27 25 26 25 23 22 23 23 24 22 22 24 23 25 35 31 27 29 30 29 31 33 37 35 31 31 28 25 22 19 17 18 17 18 10 14 14 15 14 13 14 15 17 15 15 16 13 17 17 17 17 18
25 25 27 26 24 22 19 20 22 23 25 25 24 24 25 29 34 31 26 23 26 31 29 33 28 32 35 33 29 28 25 22 19 17 17 16 14 15 14 13 11 12 17 18 18 18 20 22 21 21 22 23 23 26
23 24 25 24 23 21 21 21 20 22 26 26 25 25 29 32 36 31 27 27 28 30 33 34 36 35 25 34 30 27 27 24 20 19 17 17 14 16 14 14 12 11 13 16 19 20 21 22 22 23 25 26 27 30
24 24 24 23 21 21 22 24 24 24 27 27 26 24 27 34 37 26 30 31 31 32 32 32 32 33 27 30 31 30 27 26 26 23 21 21 18 17 18 13 14 13 13 14 15 19 21 23 25 27 29 30 32 33
25 24 22 20 19 21 23 25 26 26 25 26 24 24 28 34 33 33 30 28 29 30 30 31 33 26 30 31 29 29 30 28 28 26 25 21 21 20 21 16 16 17 15 18 18 20 20 24 23 24 25 27 26 30
22 22 20 19 20 21 23 24 24 21 20 18 19 23 27 32 30 25 23 25 24 25 27 28 35 34 22 27 29 28 28 31 29 25 24 21 20 20 18 19 18 19 20 22 22 19 21 23 25 26 28 29 30 32
21 19 19 19 20 22 23 22 18 14 11 5 10 17 24 24 24 18 21 21 19 14 18 26 29 29 21 26 29 28 27 29 26 28 27 21 20 17 17 17 17 17 19 16 15 18 21 25 26 29 31 32 32 32
18 18 19 19 19 19 18 16 13 11 16 17 15 22 14 20 21 19 18 18 15 13 20 25 27 31 26 23 26 24 22 33 30 31 23 19 21 17 17 17 19 18 15 16 17 17 20 25 30 31 30 29 30 30
19 19 19 18 17 15 13 10 11 11 12 17 19 16 15 15 18 14 15 15 18 20 23 24 27 26 26 34 33 33 35 37 33 23 17 22 18 19 18 18 15 13 15 14 16 18 23 28 28 28 28 28 28 28
18 17 17 15 14 12 10 13 16 20 17 14 18 12 8 12 13 14 12 14 16 15 18 26 28 29 28 20 18 22 25 22 16 13 18 13 18 19 17 13 12 12 12 14 18 21 23 23 23 25 26 24 24 24
16 15 15 15 13 12 17 25 16 22 13 15 15 14 17 13 12 10 10 9 10 11 17 18 20 19 18 18 19 18 19 13 17 20 14 13 16 15 14 14 12 11 13 15 17 20 23 22 21 20 21 21 19 21
15 15 15 15 16 19 18 19 20 20 15 20 15 13 10 11 11 9 11 15 14 15 14 16 16 17 15 26 22 19 18 18 20 15 10 13 14 15 14 14 13 14 13 15 17 20 23 21 19 18 18 19 17 20
15 16 15 14 21 18 18 17 18 18 17 14 13 13 11 11 13 14 14 15 24 19 18 20 25 23 19 15 17 18 19 19 19 20 14 17 16 16 15 15 14 13 13 14 16 20 23 22 19 18 18 19 19 21
17 16 14 19 19 18 19 17 16 16 16 16 18 17 16 15 15 14 13 15 17 17 16 22 21 22 19 17 16 14 15 15 18 19 16 21 20 16 15 15 14 14 14 15 17 19 22 21 20 18 18 19 22 22
15 14 16 19 19 19 18 16 17 16 14 15 16 17 18 19 17 15 13 14 17 20 25 20 25 9 14 18 21 20 17 16 19 22 19 19 17 17 18 17 16 17 17 19 20 20 22 22 21 19 19 19 20 21
15 16 24 22 18 18 16 16 17 15 14 14 16 17 18 18 15 13 13 16 16 16 16 25 14 19 22 22 18 12 21 20 21 20 19 19 19 19 19 16 16 20 22 23 23 22 22 22 21 19 19 19 20 20
18 22 19 19 17 16 16 17 17 17 15 15 14 16 17 16 15 13 14 11 13 15 18 21 25 27 30 35 21 21 19 17 21 21 20 20 20 20 19 19 19 21 22 25 26 23 24 24 23 21 20 19 19 19
22 21 19 16 13 12 12 13 14 13 13 13 14 14 15 15 15 16 14 12 13 14 16 19 22 23 24 28 27 21 20 20 20 21 19 22 22 22 21 19 20 21 23 25 27 26 25 26 25 23 21 22 20 17
19 16 14 13 12 11 10 11 11 12 12 13 13 14 14 16 17 14 13 13 13 12 12 13 17 20 21 21 21 20 20 20 20 22 20 21 22 21 21 22 23 25 26 27 26 29 27 28 26 25 23 21 21 20
13 13 13 13 12 11 11 12 13 12 12 10 13 13 11 10 10 11 13 12 11 9 10 8 6 9 15 18 20 20 19 20 22 19 18 21 22 20 23 26 28 28 28 29 29 30 29 29 29 28 23 23 22 22
14 14 13 12 12 12 12 13 12 11 12 12 14 14 12 11 11 12 8 6 4 5 7 11 11 10 16 16 18 20 19 21 19 16 17 20 21 22 26 28 28 29 30 30 31 31 31 29 31 31 24 21 23 23
12 12 12 12 13 14 16 14 12 13 14 14 15 14 14 13 12 13 11 10 8 7 7 8 12 15 15 16 17 15 15 17 17 16 19 22 24 25 28 30 30 30 31 33 32 32 32 31 31 30 29 22 20 22
12 13 14 12 13 16 13 9 12 13 16 17 18 17 15 16 11 10 16 17 8 5 4 5 4 6 10 16 17 17 18 20 21 22 22 23 24 27 30 32 32 26 28 29 28 28 28 27 26 28 30 22 18 18
13 15 16 14 10 12 13 8 9 7 13 13 14 15 11 8 11 10 9 7 7 5 5 9 10 9 10 13 15 18 20 23 24 23 27 29 31 35 30 33 30 22 20 19 21 24 28 25 24 28 26 18 13 15
13 15 16 13 17 21 16 17 14 14 16 19 14 4 14 7 8 5 3 5 6 6 9 10 11 13 16 18 21 21 24 25 26 30 30 29 31 30 31 31 25 23 23 26 28 24 22 22 23 23 20 13 10 13
11 13 15 15 21 18 17 16 19 19 18 15 12 6 2 2 2 3 5 7 9 11 13 14 17 19 21 23 24 26 28 27 24 26 29 30 31 29 24 24 22 24 24 23 20 17 14 13 14 13 10 10 14 16
13 13 13 15 16 20 14 8 12 8 3 3 3 5 7 8 8 8 9 11 13 14 16 17 19 20 20 21 21 21 17 25 30 27 27 27 23 22 19 21 17 10 10 13 12 10 10 10 11 11 12 14 16 17
13 15 15 16 14 12 15 14 10 11 9 9 10 7 8 11 13 14 14 16 17 15 13 12 14 15 16 17 16 17 16 21 25 22 22 21 24 22 15 10 10 12 13 12 12 11 11 11 12 12 14 15 15 16

GFSWCAN_500_spd_105.txt.gz
Wind_Speed
39 37 38 37 36 35 35 34 32 31 28 29 29 31 30 31 31 30 29 23 24 30 36 39 35 25 16 14 12 6 10 7 8 4 3 3 3 9 7 4 7 8 5 8 18 28 21 28 22 38 34 37 40 39
35 35 34 32 31 32 33 32 29 27 23 21 23 25 27 28 31 31 30 25 23 28 31 37 30 20 18 16 9 7 6 8 5 7 3 1 2 4 6 7 9 8 4 9 10 11 10 2 17 18 28 26 34 39
35 35 33 31 30 30 29 27 25 24 21 20 22 23 22 22 28 32 32 27 26 27 31 33 28 24 20 21 17 12 11 5 1 2 5 5 6 4 5 5 6 8 7 15 16 18 15 11 14 10 7 10 24 34
33 32 30 28 28 29 25 24 23 21 21 21 20 21 22 21 23 30 28 28 29 29 29 27 29 32 28 25 23 17 12 8 8 5 3 3 5 4 3 2 2 2 6 8 10 14 12 11 12 13 14 15 15 20
32 30 30 29 26 24 24 23 23 24 22 20 17 17 17 16 22 22 23 28 33 34 27 27 32 32 28 29 25 22 19 15 13 11 9 9 8 5 8 7 10 7 5 8 8 9 7 9 10 11 14 14 17 23
30 32 29 28 27 23 22 23 21 19 19 19 18 15 14 15 16 19 27 33 36 32 25 27 30 33 32 31 28 26 22 21 19 16 17 17 10 12 12 12 13 13 12 14 14 12 12 11 7 10 13 14 16 19
35 32 28 25 24 22 21 22 20 18 17 17 18 16 12 16 19 21 28 30 30 29 26 30 30 30 34 33 33 30 29 25 24 22 19 20 12 16 14 16 12 12 15 13 17 17 17 19 17 15 16 15 16 17
28 28 25 23 23 22 22 21 21 17 17 19 19 19 18 18 19 22 27 31 33 30 30 33 33 29 27 34 33 32 29 30 27 25 23 19 14 16 14 17 13 12 12 12 13 15 17 20 21 21 23 24 25 27
24 23 21 20 23 22 22 21 20 18 16 16 17 19 21 22 22 26 28 36 35 35 32 32 30 31 29 20 19 31 33 29 31 30 27 22 19 17 15 18 16 14 16 14 13 13 15 18 20 22 25 27 29 31
22 17 21 24 24 22 22 19 19 16 14 15 15 16 18 19 18 23 26 37 36 32 31 27 29 32 28 27 24 24 29 34 31 29 29 26 22 20 20 22 19 18 16 17 17 16 18 21 20 19 22 24 27 30
19 20 21 24 24 23 21 19 15 13 12 12 13 12 11 15 19 25 30 39 35 34 29 24 29 30 29 27 27 31 31 33 32 29 29 27 22 24 22 20 21 21 20 20 20 20 24 21 20 22 24 27 30 31
23 22 23 22 22 20 18 15 11 10 11 9 6 8 8 14 19 22 26 35 34 28 23 23 31 33 26 28 27 30 25 29 29 27 32 25 22 24 21 20 19 19 20 19 18 16 13 15 19 22 26 28 32 32
22 23 24 22 20 17 14 9 9 8 6 6 5 9 7 12 15 15 18 23 23 19 21 23 31 31 32 24 32 23 29 27 24 29 28 19 23 25 25 20 20 18 19 20 16 14 16 18 20 25 28 30 31 30
21 23 21 19 17 14 10 9 8 7 9 13 13 20 16 12 9 15 16 20 14 14 14 16 29 28 26 21 18 25 25 24 27 18 18 22 19 20 24 21 19 19 18 15 15 16 14 17 21 24 24 24 26 26
22 21 19 16 15 11 10 10 10 11 13 7 12 11 11 12 12 15 10 9 12 14 17 17 18 16 19 22 21 20 23 25 24 20 21 23 16 24 22 21 18 17 16 15 15 13 14 15 22 24 23 22 22 21
21 20 18 15 12 11 12 13 12 15 14 15 17 11 8 13 13 13 14 12 17 20 20 24 22 19 20 22 19 19 19 18 17 21 16 16 18 22 19 17 16 17 16 14 14 14 15 15 22 24 24 20 21 21
20 18 15 13 12 13 14 14 20 16 19 14 15 11 13 15 12 12 14 15 16 19 20 18 18 16 12 18 19 21 7 16 20 15 15 20 19 17 16 15 16 16 15 16 16 16 15 17 20 24 23 20 18 21
18 16 14 14 14 15 14 16 19 19 23 13 15 13 17 12 14 9 10 13 14 15 20 17 15 13 14 9 12 17 18 20 18 16 16 19 16 18 17 15 17 17 16 17 17 17 18 19 21 23 26 24 20 20
15 14 14 14 14 17 17 14 11 13 16 10 10 14 13 14 13 16 13 11 20 17 19 25 18 13 12 14 14 16 12 13 14 18 18 20 19 18 17 16 16 16 17 18 19 21 22 23 23 24 25 27 25 21
15 15 15 14 18 18 15 14 12 12 11 10 11 13 13 14 13 13 13 14 18 16 20 19 19 21 21 28 24 18 15 23 20 13 12 11 15 15 16 16 16 18 19 21 23 24 25 27 26 26 26 26 27 24
15 16 15 15 18 15 15 13 13 12 11 10 11 12 12 13 13 12 14 15 16 14 14 13 19 19 11 19 28 30 24 21 7 11 10 13 14 15 17 18 19 21 21 23 24 23 24 28 28 27 28 28 27 26
17 16 17 16 17 15 14 13 11 12 12 12 11 11 13 12 14 13 13 10 9 12 14 17 16 20 22 17 16 16 16 27 28 21 14 14 18 19 21 21 22 23 24 24 24 23 26 27 27 28 29 29 27 25
18 18 19 15 15 14 13 12 12 13 12 11 12 12 12 12 13 14 10 12 13 13 14 16 19 21 25 28 28 23 21 12 14 17 14 16 19 22 25 25 26 26 26 26 25 25 26 29 29 28 28 29 27 25
22 24 20 16 15 12 11 11 11 12 12 12 13 13 14 15 16 15 14 12 11 11 12 14 17 20 22 23 22 21 22 23 21 22 19 19 21 26 27 26 27 28 29 28 28 30 28 28 29 31 29 29 32 30
21 19 16 14 13 13 11 11 11 12 12 12 13 14 13 12 12 12 13 14 14 14 14 14 13 14 16 20 21 21 22 23 24 24 20 22 25 24 24 26 28 28 28 30 32 34 32 29 29 33 32 31 30 28
16 16 15 14 12 10 9 8 9 11 13 11 13 14 11 9 9 11 11 12 7 12 13 11 13 7 10 12 16 15 20 22 22 22 19 24 23 23 24 24 25 28 30 30 33 35 36 34 32 32 31 32 29 27
15 14 13 12 10 9 11 13 12 12 12 13 12 10 10 10 12 13 9 7 10 5 7 8 6 10 10 12 15 18 19 19 21 18 22 24 23 22 24 25 26 27 29 36 39 36 34 34 30 26 27 27 24 24
14 14 14 11 9 12 17 13 11 12 14 12 11 12 13 11 11 11 9 11 14 13 6 7 5 6 8 11 13 13 14 15 16 17 22 23 25 28 26 27 33 33 39 37 37 33 28 25 25 26 27 26 22 23
14 14 14 14 13 14 10 8 9 11 14 12 10 10 8 7 9 6 4 8 17 11 7 7 6 5 4 4 6 9 13 18 20 22 24 25 26 27 30 31 31 35 35 35 30 26 27 31 30 31 25 20 24 22
13 15 14 15 14 14 8 10 9 11 14 10 6 4 8 9 13 4 4 2 2 5 9 8 7 8 10 11 14 17 21 22 23 25 26 27 29 31 30 25 29 35 34 28 26 29 32 28 24 21 19 19 16 14
14 15 14 14 18 15 17 18 14 20 11 6 5 9 10 9 7 6 4 4 4 8 10 9 12 15 16 18 22 23 24 24 25 24 21 24 22 22 23 24 24 24 30 31 33 23 18 16 14 12 11 10 9 11
14 17 15 18 18 14 15 18 16 16 10 5 3 6 6 7 6 4 4 6 9 11 14 17 18 20 19 18 18 19 19 20 19 15 23 29 32 29 26 23 21 20 18 15 14 15 15 14 14 14 13 12 11 12
15 15 15 15 18 15 9 10 7 1 3 4 6 8 8 8 9 11 12 12 12 11 12 14 16 17 18 19 20 20 20 20 20 19 25 30 27 20 17 22 20 14 13 15 17 17 16 15 14 14 14 14 14 14

GFSWCAN_500_spd_108.txt.gz
Wind_Speed
31 27 27 27 29 28 30 30 29 29 27 28 28 29 29 29 30 30 28 28 26 27 31 34 37 33 27 17 14 9 9 14 11 7 3 3 6 7 11 9 7 11 12 12 21 24 29 40 44 40 43 35 45 39
32 34 28 29 28 27 28 28 28 28 27 26 25 24 21 23 24 28 26 26 28 25 33 36 37 35 31 25 15 7 6 7 6 9 7 5 7 7 6 4 11 6 9 2 6 9 17 24 23 34 29 28 35 37
27 27 26 27 29 29 30 30 27 25 24 22 22 21 19 19 21 23 25 26 27 21 33 35 35 32 33 29 20 18 10 4 4 3 7 6 5 5 6 6 5 6 4 3 4 5 6 11 8 8 10 22 35 39
24 25 26 28 29 27 27 27 26 23 21 19 18 21 19 19 21 21 22 27 28 25 33 33 40 38 31 27 25 21 12 7 8 6 5 6 7 7 7 4 2 1 2 3 5 7 12 15 14 15 13 10 11 22
28 28 27 25 26 27 27 26 24 22 20 18 20 18 18 18 18 21 20 27 24 26 34 35 37 31 27 27 30 25 18 14 12 10 9 9 6 3 4 7 6 3 3 3 4 5 9 9 9 14 18 18 19 19
36 35 32 27 26 25 26 25 23 21 19 16 17 17 17 16 15 19 21 17 21 26 37 33 34 34 34 32 33 28 25 20 19 15 14 12 9 7 8 8 9 8 6 6 3 2 3 2 4 9 11 13 15 17
30 32 36 34 31 29 25 23 21 20 18 17 17 17 17 15 17 17 18 20 23 30 33 34 32 31 33 36 33 29 28 26 23 21 18 16 14 14 14 12 10 11 9 8 9 5 3 5 7 9 11 10 10 12
21 26 27 27 31 26 22 20 18 17 19 18 18 19 18 17 17 16 19 21 26 31 33 34 33 28 29 38 33 31 31 29 27 25 22 21 16 14 14 13 10 8 10 12 10 10 7 6 7 9 12 14 16 16
23 21 22 21 19 19 17 15 16 17 18 19 18 18 19 19 22 20 18 20 26 32 33 36 32 28 29 28 35 33 32 32 31 30 27 24 18 13 14 15 14 13 14 15 15 14 13 11 10 9 11 15 19 20
24 21 18 18 17 14 16 15 16 18 18 18 17 18 18 18 21 19 19 22 26 30 33 35 32 31 28 26 23 28 32 32 34 31 32 28 22 19 18 19 19 18 17 17 14 16 17 17 16 17 15 15 17 18
25 25 20 16 14 15 17 16 18 17 16 16 17 15 15 14 15 17 19 21 25 25 32 33 32 31 26 24 24 24 26 28 35 36 35 31 25 20 22 23 22 19 19 20 19 17 17 17 20 17 13 14 17 21
18 19 16 15 19 17 16 16 16 15 16 16 15 14 14 12 13 12 10 17 19 24 30 33 31 31 31 30 28 27 25 25 26 30 38 34 24 24 25 22 23 21 19 19 18 15 15 14 14 11 12 14 17 21
20 19 23 19 16 14 16 17 14 15 14 14 14 11 11 9 6 5 6 7 10 22 27 30 30 30 28 28 26 27 25 25 26 26 26 20 24 24 23 22 19 21 19 17 14 15 17 14 10 10 12 17 22 24
24 25 26 21 18 17 15 14 14 14 15 16 14 11 9 5 2 5 9 14 15 18 24 29 31 29 26 30 28 25 26 18 22 24 11 19 20 18 19 22 22 21 19 17 16 18 17 13 10 9 14 19 22 24
28 23 20 18 16 15 14 15 15 16 19 15 12 12 14 9 6 9 6 10 13 16 18 19 23 26 26 26 30 22 25 23 18 14 17 20 19 23 20 19 19 20 18 18 18 16 15 14 12 12 16 19 22 25
22 23 21 17 15 14 15 16 15 16 21 14 12 10 12 11 10 14 17 15 13 12 14 14 14 16 14 20 24 19 16 15 16 22 22 24 25 21 23 21 20 20 19 19 18 17 16 14 13 15 18 19 22 24
21 17 16 15 14 15 17 16 15 18 21 15 17 13 10 11 15 19 21 20 12 11 15 15 16 18 18 19 19 17 13 17 21 16 16 17 17 20 19 18 20 21 20 20 19 17 16 16 17 17 20 24 25 24
17 16 15 14 16 17 16 13 16 16 15 15 16 15 13 19 15 15 14 17 17 19 22 18 11 14 15 13 16 21 26 27 15 13 14 16 17 17 17 18 19 19 19 20 19 17 17 19 19 20 24 25 27 25
16 16 15 16 18 17 14 13 14 15 14 18 10 15 19 16 19 14 18 15 15 14 16 16 16 13 11 16 18 17 21 18 15 17 21 19 19 18 17 17 18 20 20 20 19 19 20 21 21 23 26 26 25 24
16 16 16 18 17 14 15 15 12 12 13 16 11 15 15 17 16 13 11 11 11 12 16 18 19 22 14 18 19 12 14 14 16 19 22 23 19 20 18 18 19 20 20 19 21 22 22 23 23 23 25 27 28 27
16 16 18 17 14 16 16 15 13 14 14 14 13 15 16 14 14 13 11 11 11 10 10 9 18 18 19 19 20 26 24 17 12 16 18 17 18 17 19 17 16 18 20 22 22 21 23 25 24 23 27 29 29 28
17 18 17 17 17 16 14 14 13 13 13 12 11 11 13 12 13 13 12 9 9 12 13 11 13 9 13 17 11 17 17 21 22 19 24 18 15 15 18 19 20 19 19 22 23 21 22 25 26 27 30 30 30 29
17 18 19 18 15 14 13 12 12 13 13 11 11 10 12 14 14 12 9 11 11 12 11 12 14 13 18 16 19 13 7 5 10 15 14 13 15 17 19 20 19 20 22 25 24 24 25 28 30 32 32 32 32 31
19 23 19 15 14 13 11 11 10 11 11 11 12 12 12 13 12 12 12 11 8 7 9 12 11 12 14 16 20 23 24 26 21 19 16 16 16 22 22 24 22 22 22 23 23 25 28 31 33 35 35 34 33 32
20 23 19 14 12 11 11 9 7 9 10 10 9 10 9 9 9 9 8 7 10 10 11 13 14 15 17 20 22 24 27 28 28 29 28 23 24 24 22 22 21 22 22 23 24 25 27 30 33 34 35 36 36 36
21 20 15 14 13 12 11 10 9 9 11 10 8 9 8 8 8 7 9 10 11 10 13 17 14 13 9 12 12 14 18 22 23 25 23 22 22 22 23 21 20 20 22 22 25 27 26 31 33 32 31 30 26 25
20 18 16 15 13 13 13 14 10 12 12 11 10 10 8 7 6 8 8 8 11 11 4 5 5 8 13 11 8 11 7 14 12 16 19 17 18 26 23 19 19 22 25 24 27 30 30 32 33 27 24 25 26 28
18 18 17 15 15 17 16 13 11 10 10 8 7 6 5 6 5 7 7 7 5 7 7 5 7 7 7 8 8 10 10 11 14 14 14 19 23 25 17 20 21 27 29 28 29 27 35 35 29 26 28 32 32 29
17 17 15 15 13 15 12 8 7 7 10 10 8 6 6 4 4 4 4 10 8 6 12 5 11 7 5 4 6 8 8 9 12 14 16 19 24 26 25 24 26 28 29 28 27 35 40 37 32 28 29 29 26 23
18 18 17 18 17 14 7 9 8 6 5 6 6 7 9 8 9 6 3 2 3 2 2 6 6 5 7 9 12 13 15 16 18 19 20 23 26 26 28 28 25 29 30 27 25 28 34 38 32 25 21 21 20 18
17 18 18 17 16 15 15 17 19 12 5 9 14 11 9 9 8 1 2 4 5 6 5 9 11 11 13 15 16 17 19 19 19 19 20 22 23 21 24 24 25 28 27 25 26 26 28 27 22 18 17 19 18 14
19 17 18 18 19 17 19 23 13 18 16 14 13 12 9 5 4 4 3 5 7 8 8 10 12 12 12 13 15 17 19 19 20 21 20 19 22 25 27 26 29 26 19 21 18 21 28 22 18 17 18 19 17 14
16 18 20 20 22 22 19 14 11 8 3 3 6 7 4 2 3 5 6 7 7 9 11 13 14 14 14 15 15 16 16 16 17 17 18 19 18 20 23 22 19 19 19 18 19 16 18 20 20 19 18 17 16 15

GFSWCAN_500_spd_111.txt.gz
Wind_Speed
30 28 27 28 23 22 23 23 24 25 28 28 30 30 29 29 31 33 31 31 29 30 30 33 31 33 35 27 19 13 15 10 5 8 7 6 9 13 12 12 6 6 5 9 11 23 28 32 35 35 31 36 33 39
30 29 27 25 30 25 24 25 24 24 23 24 26 26 26 26 27 27 26 27 29 32 35 35 33 33 35 30 16 8 9 7 4 7 10 6 6 6 5 4 4 7 2 3 5 14 21 21 26 27 33 36 37 31
28 27 26 25 23 24 25 25 25 26 25 24 24 23 22 23 22 21 19 24 29 33 39 34 28 39 37 35 28 23 13 9 8 5 7 10 7 5 5 5 2 2 1 1 5 6 13 14 15 16 18 32 37 40
29 28 26 24 25 24 23 24 24 23 22 21 21 21 21 23 22 22 19 23 32 34 38 34 31 36 41 36 27 28 17 9 10 8 6 8 9 5 4 2 2 6 5 3 3 9 9 10 6 8 6 11 23 28
29 28 29 28 26 24 24 24 22 22 21 20 21 22 22 22 24 21 20 24 29 33 36 36 28 34 38 33 28 27 23 16 13 12 12 9 7 7 6 3 1 2 5 4 4 6 9 7 7 7 10 13 15 17
29 29 29 29 32 29 24 19 20 21 21 19 19 20 21 22 23 20 19 22 26 36 38 39 32 36 43 41 33 31 28 21 18 18 16 12 9 6 4 2 2 3 2 3 2 3 2 2 5 8 9 12 13 12
28 30 30 28 29 30 31 26 22 21 21 20 19 18 18 17 19 18 18 23 29 29 35 38 33 34 38 40 41 37 30 26 22 21 20 16 12 10 9 7 5 3 5 4 4 4 5 8 8 8 8 9 11 13
28 29 25 26 27 25 30 30 27 22 20 18 19 19 17 16 20 19 21 25 28 29 32 32 36 36 34 39 41 38 31 29 26 25 23 21 18 14 11 8 4 6 7 5 5 4 4 4 6 9 11 12 12 13
27 25 22 21 20 17 17 19 22 19 18 18 19 19 19 18 21 21 22 22 26 28 28 28 33 34 32 29 32 36 32 33 31 28 27 25 23 16 13 12 8 7 8 9 8 7 7 6 5 3 4 6 9 11
22 20 20 20 15 16 15 16 15 14 14 17 18 19 19 19 21 22 24 25 24 26 24 29 33 33 30 29 30 36 32 34 32 32 32 31 26 20 18 16 14 12 11 12 12 11 8 8 8 9 10 11 11 10
22 26 21 20 15 14 14 15 16 16 13 16 18 19 21 22 22 24 26 26 24 20 22 29 34 34 32 29 29 30 37 40 35 35 35 33 27 24 22 21 19 16 15 14 16 13 12 11 11 12 10 7 7 9
22 22 22 24 18 18 15 12 11 13 17 18 18 19 20 20 21 22 22 24 20 18 22 31 35 35 35 34 28 28 28 32 37 37 35 34 30 27 26 26 23 19 17 16 15 15 15 13 11 9 8 6 8 10
12 14 14 17 19 18 18 15 15 14 16 17 17 17 17 17 15 13 11 11 15 18 24 26 30 32 35 37 34 33 34 27 28 30 34 26 30 32 33 30 25 21 17 16 16 16 16 13 13 11 7 9 10 14
16 16 16 20 20 19 15 14 17 18 17 17 17 14 13 12 12 11 14 17 19 16 16 20 27 31 32 35 36 34 29 27 26 24 13 18 25 32 31 28 24 20 20 18 19 18 18 17 14 11 11 6 9 15
17 20 23 23 21 16 15 15 15 16 16 15 16 15 14 14 10 8 12 9 9 11 13 17 20 23 28 29 30 32 27 24 17 13 20 22 20 24 22 24 23 20 20 21 20 19 18 17 15 16 14 11 14 15
20 22 22 17 17 15 13 14 15 15 16 18 17 13 14 17 11 14 13 7 9 11 12 14 13 17 25 29 25 27 26 22 18 13 17 22 23 18 24 25 23 19 19 23 21 19 19 17 19 19 16 16 16 17
16 15 20 22 21 15 14 14 14 15 14 18 16 15 13 16 14 17 18 17 14 15 16 14 13 16 15 20 28 27 22 17 19 19 22 22 21 20 22 24 23 22 22 22 21 21 19 19 21 21 19 19 17 19
24 22 19 20 17 16 16 14 14 12 19 23 19 15 14 13 12 18 21 16 16 21 13 14 12 9 9 11 15 22 21 19 21 24 20 18 17 18 19 20 22 23 24 23 23 20 19 22 22 21 21 22 21 22
23 21 17 17 17 16 15 14 13 15 19 20 15 15 13 11 13 15 17 14 15 11 11 13 11 8 9 13 19 23 24 27 23 16 17 18 19 19 19 18 18 21 22 22 21 20 21 21 22 22 24 25 25 26
21 19 18 17 17 15 14 14 15 18 19 17 16 13 16 17 14 11 13 9 9 8 9 10 8 8 14 16 17 17 20 20 21 17 17 20 22 24 21 20 20 20 21 21 20 20 22 23 24 25 26 27 28 29
20 19 18 16 14 15 16 17 16 14 17 18 14 16 18 18 15 10 10 9 9 6 7 11 10 13 17 11 11 14 13 17 19 18 18 19 21 24 21 22 22 21 21 21 21 22 24 26 27 27 27 28 28 29
19 18 16 17 15 17 20 17 14 14 17 19 16 17 18 16 15 13 11 11 13 13 14 10 7 10 16 15 13 15 17 21 23 21 13 13 14 19 19 21 23 22 22 21 22 23 25 26 27 25 26 28 29 30
17 17 17 18 18 19 18 17 16 14 14 15 15 15 14 15 14 12 12 15 17 14 12 10 10 14 12 15 19 19 13 7 17 22 22 19 23 19 19 22 23 24 23 23 23 23 25 26 27 28 28 27 28 31
17 18 20 19 18 18 16 15 14 15 15 14 13 12 13 15 12 13 17 16 9 5 6 8 8 9 12 11 16 18 16 15 10 9 14 15 18 21 21 20 21 23 25 23 23 25 25 26 27 26 25 26 27 30
19 22 21 18 18 17 16 14 12 12 13 13 12 11 10 11 11 11 11 8 7 7 7 6 6 7 8 9 11 13 15 16 19 20 20 20 22 21 25 23 20 24 22 24 25 25 24 22 23 24 25 24 27 29
23 21 19 18 16 14 13 12 10 12 12 11 11 12 10 10 9 7 6 5 7 7 7 8 8 9 9 10 8 12 14 17 21 22 25 26 28 29 27 26 22 22 23 24 24 23 21 23 23 24 27 25 26 25
23 20 15 14 13 13 14 13 11 13 14 14 11 11 9 8 7 5 5 4 5 5 4 1 4 7 9 11 11 9 9 12 13 13 14 19 22 24 23 20 22 23 27 25 22 23 25 26 27 30 28 27 28 26
19 16 15 14 12 12 14 12 13 13 12 10 9 8 7 8 6 5 5 5 5 8 8 6 3 4 4 5 8 8 8 8 9 11 11 11 15 20 18 22 23 27 24 20 23 27 29 30 30 29 30 31 34 27
18 18 16 15 15 13 12 12 11 10 10 9 8 8 7 6 3 1 5 7 5 9 12 10 9 7 5 5 5 7 7 8 9 12 13 15 18 20 22 24 25 24 22 24 28 27 25 36 31 37 39 41 26 20
19 19 19 20 16 8 7 8 8 8 8 7 6 6 6 7 6 7 7 4 4 6 7 7 5 5 7 10 12 13 14 15 15 17 18 20 23 24 25 26 27 27 25 23 28 24 20 24 31 38 42 28 28 24
20 23 24 18 22 20 21 19 13 12 10 7 7 7 6 4 3 1 2 2 3 5 6 7 8 10 11 14 15 17 18 19 20 20 20 20 20 22 22 23 24 22 23 24 27 33 29 30 26 31 36 28 19 16
25 24 20 19 19 20 18 20 26 22 21 20 16 14 9 6 5 4 3 5 8 9 10 10 11 12 14 16 18 19 20 19 21 21 21 20 20 21 22 24 24 25 25 25 22 20 24 26 24 27 30 22 17 18
22 22 22 21 22 16 11 10 14 14 12 10 8 6 5 3 1 3 4 3 4 7 8 9 9 10 11 12 12 12 11 11 11 13 14 14 16 17 17 18 19 21 23 23 24 24 20 17 15 17 19 20 19 18

GFSWCAN_500_spd_114.txt.gz
Wind_Speed
31 28 29 29 26 26 25 22 21 21 20 20 22 26 28 30 31 32 30 31 32 32 37 38 34 33 32 27 26 24 13 9 12 12 11 8 7 8 8 6 5 7 6 8 10 16 22 22 21 21 26 25 29 26
32 29 28 29 27 23 22 27 22 23 20 20 23 24 25 28 30 28 27 30 31 33 36 37 36 33 31 29 27 19 10 9 12 14 12 9 4 5 2 4 2 4 3 5 7 13 13 20 14 15 23 26 28 31
32 30 28 27 27 24 22 22 28 30 31 29 23 25 24 25 26 26 24 23 26 32 37 38 34 35 30 29 26 21 12 8 10 12 11 10 5 3 4 5 3 4 6 4 5 3 10 13 15 19 22 24 28 32
33 32 28 27 27 25 22 25 26 26 23 21 22 23 22 22 23 23 21 20 24 31 35 36 36 32 34 27 24 28 25 18 13 14 9 10 9 7 7 7 5 4 3 3 3 5 3 7 11 10 11 17 23 26
32 31 29 27 26 26 25 23 22 22 23 23 23 22 22 20 20 21 20 21 23 27 33 37 34 35 34 34 33 31 24 21 14 15 12 8 10 10 9 9 8 5 3 0 2 7 6 5 6 12 7 7 9 16
28 29 28 27 27 28 25 26 24 22 20 19 20 19 19 18 19 21 22 22 24 27 32 34 35 36 35 29 30 29 33 27 28 22 18 14 13 13 12 10 9 8 5 3 2 3 6 8 9 9 8 9 9 9
28 28 28 27 28 28 27 27 29 28 20 18 20 20 19 18 16 17 20 22 24 26 32 34 35 38 35 30 28 35 31 23 30 29 23 19 17 14 13 12 9 7 6 5 3 2 3 5 6 7 7 7 7 8
28 28 27 27 26 26 25 25 23 28 25 22 21 20 20 17 15 14 20 22 24 28 28 36 38 38 37 31 29 33 31 27 30 32 27 25 22 18 14 11 10 10 9 7 7 5 4 3 3 3 4 7 7 8
25 25 24 24 21 20 17 18 21 25 29 26 22 21 20 17 14 17 20 20 22 22 26 27 36 38 37 35 30 38 35 35 32 36 33 30 26 22 14 15 13 10 8 7 8 8 8 7 5 4 3 3 6 10
24 23 23 20 18 20 17 14 14 15 18 22 21 20 18 17 17 17 18 20 21 19 19 27 34 38 36 36 34 32 39 43 39 39 38 34 28 24 20 18 14 12 10 9 9 10 9 10 10 9 10 9 10 10
23 23 20 18 16 19 16 15 15 16 16 17 17 17 17 18 18 18 18 20 20 19 19 25 31 31 33 31 30 29 29 33 35 41 40 35 28 24 23 21 19 17 14 14 13 12 14 13 12 10 10 12 10 9
21 19 20 20 23 19 18 15 16 17 18 16 16 17 16 17 17 18 18 18 17 22 24 27 26 33 32 29 25 24 26 28 34 37 41 38 24 28 27 26 25 23 19 18 16 14 15 15 15 12 10 9 9 7
17 16 15 16 18 21 21 19 18 14 14 15 15 16 16 16 15 12 11 14 17 21 24 25 24 29 30 30 33 35 33 28 24 25 32 28 31 33 32 30 29 26 23 21 19 17 16 15 14 14 11 11 10 5
13 11 11 11 15 19 20 19 18 16 16 15 12 12 14 12 11 12 13 14 14 20 21 24 27 29 30 31 31 34 32 26 37 23 17 27 36 34 32 34 34 30 25 23 21 20 18 17 17 15 13 15 11 7
15 14 14 17 19 21 18 16 16 15 18 16 16 18 13 13 13 13 13 13 13 14 13 14 16 23 28 32 32 34 35 26 26 23 23 25 25 30 32 34 32 32 27 24 24 23 22 21 19 18 18 19 16 11
19 19 19 20 19 17 18 15 16 16 15 15 14 16 17 16 15 11 10 12 15 13 14 14 11 14 16 22 24 27 30 25 22 21 26 25 23 20 22 24 24 26 27 25 23 25 26 23 22 21 24 23 19 16
20 18 19 18 13 13 14 12 15 15 14 12 17 18 16 15 15 13 15 12 11 12 13 13 12 11 8 13 14 18 17 21 28 23 24 24 26 24 21 19 25 25 25 20 21 26 26 23 22 23 25 24 20 17
22 17 14 15 17 17 18 15 14 12 14 15 18 14 13 14 16 16 17 14 11 12 15 14 12 15 14 7 12 20 21 18 21 25 28 24 25 25 23 22 23 25 25 23 23 27 25 23 24 26 25 21 20 21
22 20 21 16 18 19 16 14 12 12 12 13 17 16 13 13 13 12 17 18 13 13 15 13 13 7 9 11 13 17 21 23 25 26 27 22 18 20 22 23 23 22 21 23 25 27 27 26 27 26 22 22 24 24
29 26 23 22 20 16 14 13 12 12 14 18 16 15 15 11 10 11 13 14 14 11 9 9 11 7 9 10 9 14 22 22 19 18 15 15 17 17 17 17 19 19 20 23 25 26 25 25 25 25 25 26 25 26
24 22 25 20 17 15 15 15 14 16 17 20 19 14 12 13 12 13 10 10 10 8 5 9 10 7 7 10 11 12 12 13 16 16 17 15 13 16 18 20 20 20 21 21 22 23 24 26 26 25 25 26 27 28
26 23 20 17 16 17 18 15 15 16 18 18 17 13 13 16 15 11 12 11 10 13 11 11 10 10 10 13 10 8 12 10 11 12 17 20 21 20 19 24 21 21 20 20 21 23 25 26 26 27 28 29 29 27
18 18 18 20 18 17 18 18 14 14 16 18 16 15 15 15 14 11 11 12 11 8 5 5 6 4 8 9 13 9 13 14 13 19 26 23 18 17 16 19 21 23 24 23 24 25 26 27 28 28 29 28 28 28
19 20 21 20 20 20 19 16 13 11 15 16 15 13 13 13 11 10 11 10 7 5 6 7 6 6 9 10 9 12 15 14 9 7 8 17 15 16 19 18 21 22 23 22 24 26 28 29 27 27 27 28 28 28
22 22 21 21 20 19 17 15 13 13 14 14 13 12 10 9 11 13 12 9 9 8 6 5 4 6 8 9 10 11 13 15 16 17 15 14 18 20 23 24 23 23 25 24 26 27 27 27 26 27 28 28 26 28
22 21 20 20 20 17 16 14 13 14 14 13 11 11 10 11 11 11 11 11 10 8 7 7 7 7 7 8 9 10 12 14 15 16 19 23 24 24 24 25 24 24 25 26 25 27 28 29 27 27 27 27 28 29
22 20 18 18 17 17 15 12 13 14 13 13 13 13 12 12 11 11 10 9 9 7 9 6 7 8 10 11 10 11 9 9 10 13 15 15 17 20 24 27 27 26 26 26 28 31 31 32 31 28 28 30 31 33
19 17 17 16 15 14 13 12 14 16 16 15 15 13 9 9 7 6 6 6 7 9 10 5 2 3 3 3 4 6 8 9 10 10 10 11 12 13 16 20 18 21 27 29 25 27 26 29 30 32 29 33 38 35
18 17 16 15 14 14 13 15 15 14 14 13 10 8 9 7 4 2 6 7 5 3 8 5 5 6 6 6 5 5 7 7 8 10 12 12 13 16 16 16 20 24 26 27 29 26 23 28 31 33 38 45 40 32
19 18 18 17 12 12 14 13 13 13 11 11 10 9 7 8 6 6 8 5 5 5 5 5 3 4 6 10 12 14 13 14 15 17 17 18 19 20 22 23 25 27 27 29 30 30 30 28 27 39 41 50 42 31
18 20 18 11 11 11 11 10 13 14 13 12 10 8 7 4 2 4 5 4 3 3 3 5 7 9 11 12 13 15 18 18 19 19 18 19 19 20 21 23 23 24 25 25 25 28 28 30 31 33 33 34 32 28
25 20 21 19 17 11 12 17 14 17 18 18 14 8 5 5 4 2 1 4 6 8 9 10 11 12 13 15 16 16 17 17 18 17 17 18 18 17 17 17 19 19 21 23 23 23 23 23 23 25 28 30 24 28
19 18 17 15 14 25 19 18 18 17 14 12 11 9 7 5 3 1 3 4 5 8 8 8 8 9 10 11 12 12 13 14 14 15 16 17 17 17 18 18 19 19 20 20 20 20 21 21 20 19 19 19 18 18

GFSWCAN_500_spd_117.txt.gz
Wind_Speed
32 33 30 29 29 28 26 24 23 23 21 17 16 16 16 18 19 19 20 22 27 29 31 30 31 32 33 30 28 27 26 19 16 15 11 11 10 9 9 12 10 7 7 4 4 7 13 16 18 20 20 28 33 31
32 32 31 30 29 29 27 23 21 21 23 18 18 16 16 18 20 22 24 26 26 28 32 32 33 31 33 28 28 27 21 17 14 16 12 11 13 8 7 5 5 4 2 4 5 8 12 12 15 13 15 22 31 28
31 32 33 31 30 29 29 23 19 19 20 24 24 26 20 20 20 23 25 26 27 28 36 31 36 36 30 31 31 30 23 17 15 11 9 10 13 9 12 8 6 8 5 4 6 5 4 8 13 15 16 17 23 32
31 32 33 32 31 29 29 25 20 20 22 21 23 22 22 24 22 23 23 23 25 26 27 33 36 38 34 30 31 31 32 24 17 11 10 10 11 10 10 11 9 6 3 3 4 4 0 4 10 13 15 16 17 18
31 32 32 32 29 28 28 25 22 22 21 21 21 21 20 18 21 21 21 20 23 24 24 28 33 34 31 31 33 34 31 29 20 17 14 12 11 12 13 12 10 7 4 1 2 2 2 2 2 10 11 9 15 19
29 28 27 26 26 26 28 27 24 23 24 23 21 20 18 19 19 19 19 18 23 21 21 23 28 31 32 33 33 31 31 27 23 22 19 16 14 15 16 15 13 11 7 5 4 4 5 5 3 7 5 8 8 6
26 26 26 26 26 26 28 27 25 25 23 26 23 18 16 17 17 16 18 21 22 23 20 22 26 30 31 31 31 31 31 36 34 27 25 21 19 18 17 15 15 13 10 8 7 7 7 5 5 9 7 7 7 9
26 26 26 25 25 27 26 25 25 24 23 24 28 21 16 17 17 16 16 17 20 20 22 24 25 28 30 30 29 31 30 25 29 29 32 29 25 22 19 17 14 13 11 11 10 8 7 7 7 7 8 8 9 11
25 24 24 22 22 24 23 22 20 17 19 22 24 23 17 17 17 17 15 14 15 17 19 23 23 29 28 29 29 27 21 28 28 27 36 34 30 25 21 21 17 16 15 13 12 11 9 8 7 6 5 5 7 9
24 23 23 21 21 21 21 20 17 16 16 22 24 22 19 18 18 17 15 12 13 16 16 22 25 25 27 27 28 30 28 34 32 34 34 36 32 26 24 24 22 19 16 14 11 12 11 11 11 10 9 8 7 6
23 22 22 22 22 20 18 19 17 15 14 12 15 21 21 19 17 17 15 12 12 15 17 20 23 28 27 26 29 31 33 33 38 38 40 37 34 29 30 28 25 21 18 16 14 11 12 13 12 12 12 11 11 11
23 22 21 19 18 16 16 18 17 15 14 13 13 14 15 16 15 16 14 14 14 17 19 20 18 23 27 29 30 29 30 32 33 34 43 36 28 35 34 33 30 27 23 20 17 15 15 16 17 15 15 13 10 9
21 20 19 17 19 21 20 17 16 15 15 14 14 14 13 14 12 13 15 16 17 19 22 27 26 22 22 25 25 25 26 21 19 21 18 22 33 41 38 36 33 31 28 26 22 19 18 18 20 18 18 15 12 13
21 18 14 12 13 15 19 21 19 17 16 13 11 11 13 11 11 13 14 12 12 15 18 21 24 23 22 24 24 25 28 27 30 16 12 13 31 37 42 32 32 32 31 28 26 24 23 20 23 21 20 17 18 17
19 16 12 12 10 15 19 20 22 23 17 14 13 12 9 7 9 11 12 12 11 10 7 9 13 17 18 21 27 29 28 29 27 23 26 28 18 23 30 36 32 32 32 31 30 29 26 24 24 25 23 21 22 21
19 16 15 14 16 15 16 15 13 13 14 13 17 14 18 15 14 13 10 9 11 12 12 10 8 9 14 16 23 24 26 24 25 29 24 25 25 23 24 26 31 34 34 35 35 33 30 27 26 28 27 25 26 25
19 17 19 18 19 17 15 13 16 16 14 11 14 15 16 17 17 12 9 10 10 9 10 11 11 10 10 11 10 11 12 21 27 31 25 25 25 21 20 18 22 27 25 27 32 32 29 27 28 28 27 27 27 27
19 18 18 18 18 14 12 11 12 10 12 15 14 18 18 16 14 14 11 11 11 13 12 10 12 10 6 7 9 9 15 22 25 29 26 24 24 19 19 18 16 21 22 25 26 26 24 25 28 29 30 29 28 27
20 20 16 15 13 14 15 11 13 12 14 14 13 19 16 13 14 13 13 13 11 10 10 12 11 11 10 14 14 16 14 20 21 23 28 27 22 16 18 20 21 20 21 25 26 26 25 25 29 30 30 29 28 27
24 25 20 15 13 12 14 16 13 13 13 13 17 17 14 12 13 12 12 14 12 7 6 11 11 10 7 6 6 9 13 17 16 17 20 21 21 18 18 20 21 22 23 23 26 28 27 27 29 29 28 28 28 27
28 24 20 19 18 17 16 14 15 13 13 18 17 14 11 10 10 10 11 12 11 10 11 11 13 10 7 6 6 5 12 15 14 15 15 16 18 20 18 17 18 18 19 18 20 23 26 27 29 29 29 29 29 28
31 24 22 19 21 16 16 15 14 14 13 17 17 13 11 14 15 13 11 10 10 11 8 10 12 10 11 9 10 8 9 12 15 16 16 19 20 17 14 15 18 20 23 21 19 19 22 25 26 27 27 28 29 29
23 20 22 21 19 18 17 16 15 14 14 16 16 13 13 14 13 13 14 12 9 7 5 5 7 8 9 9 13 10 9 9 10 10 9 11 15 19 17 15 18 18 21 24 23 22 22 23 24 25 26 27 28 29
23 22 20 19 18 15 17 16 13 12 14 14 14 15 14 14 13 13 11 5 5 7 8 7 7 8 9 9 11 13 10 11 14 10 5 7 16 25 23 19 18 21 25 24 22 23 23 25 26 25 25 26 27 27
20 20 21 20 16 15 17 15 12 13 16 16 14 13 13 14 12 9 8 8 7 6 3 5 7 8 9 10 10 8 10 13 16 13 12 12 9 14 17 14 17 20 18 18 20 23 24 26 27 27 28 28 28 29
22 23 20 20 18 17 15 13 12 12 14 12 11 10 9 10 11 10 9 7 6 5 4 3 3 5 7 8 7 7 7 9 11 14 15 16 18 18 17 17 17 19 22 23 23 25 27 27 27 29 31 31 32 33
23 20 19 19 18 17 14 13 12 12 11 11 10 11 10 11 10 10 9 9 8 7 7 7 7 6 9 10 10 9 10 9 9 12 12 14 15 17 21 25 25 26 24 26 27 29 28 26 29 33 33 34 35 35
20 18 19 19 17 16 13 12 13 13 13 13 13 11 11 10 10 10 10 10 10 10 8 5 3 2 3 4 6 7 10 12 12 11 12 11 11 13 15 17 18 21 24 28 29 27 27 31 28 23 31 33 38 34
18 18 17 16 15 13 12 14 15 15 13 14 12 10 9 10 9 8 7 7 7 6 11 11 4 5 6 7 6 5 6 6 7 9 10 11 13 14 15 15 17 18 20 24 26 27 27 27 26 25 22 29 33 39
18 18 16 16 14 13 15 16 15 14 12 11 10 10 9 5 8 7 6 5 5 5 6 6 3 1 2 4 7 9 11 12 12 13 15 17 18 19 20 20 20 22 24 26 28 29 31 30 30 28 28 31 33 33
20 21 18 14 16 15 14 12 12 12 11 10 8 10 10 7 7 8 8 8 6 4 2 1 3 5 6 8 9 11 13 13 14 15 16 16 17 18 19 21 22 23 24 26 27 27 27 28 28 28 29 31 33 33
19 15 15 18 17 13 12 13 14 13 11 11 11 7 4 4 4 2 2 2 3 3 4 6 8 8 9 10 11 12 13 14 14 14 14 14 15 15 17 17 18 19 19 19 20 22 23 24 25 26 28 28 28 29
18 19 13 8 11 21 21 16 14 14 14 10 8 4 1 2 1 1 3 3 3 4 4 5 6 8 9 10 11 11 12 13 14 14 15 15 16 16 17 17 17 17 18 19 19 20 21 23 23 23 23 22 22 21

GFSWCAN_500_spd_123.txt.gz
Wind_Speed
35 34 33 31 31 30 27 26 26 25 23 22 21 21 21 17 14 12 10 11 13 16 19 21 30 46 52 42 41 35 33 34 31 29 20 23 24 25 17 19 20 16 15 13 16 17 16 13 15 15 14 14 4 24
34 33 33 32 29 27 26 25 25 25 24 22 21 19 21 18 15 13 10 11 11 11 15 20 25 36 49 42 40 39 36 33 33 27 22 22 22 17 16 13 18 16 15 7 18 13 13 13 16 11 12 16 18 15
33 31 30 29 28 28 27 25 26 25 25 22 21 18 19 19 16 15 15 14 13 12 12 14 24 30 45 46 44 38 34 41 34 33 23 21 23 15 11 16 18 14 14 12 13 12 16 14 13 12 10 12 12 13
30 30 30 29 29 29 28 27 25 26 25 23 21 19 18 18 20 19 21 19 16 16 15 13 12 19 35 45 42 40 35 32 25 28 26 21 17 18 17 24 19 14 11 12 13 13 14 13 10 11 13 11 9 15
30 30 30 30 31 29 26 25 23 24 23 22 21 20 18 20 19 18 17 17 18 18 15 16 17 20 17 28 40 37 34 31 28 27 25 18 13 22 22 20 15 17 15 13 8 8 11 5 9 9 12 14 15 13
30 29 29 29 28 25 23 22 21 20 20 20 21 21 19 19 19 17 15 15 19 16 15 17 17 21 26 28 29 30 32 37 32 32 27 22 23 17 13 17 17 17 15 10 7 7 8 10 8 9 9 9 8 8
31 30 27 25 24 23 21 19 20 19 19 20 21 20 20 19 21 18 15 15 16 19 18 18 19 21 24 29 33 38 29 30 37 31 28 24 27 23 21 15 20 18 15 11 9 8 7 6 4 5 6 6 6 8
29 28 23 22 22 22 20 19 19 20 20 21 22 21 21 21 22 19 16 16 15 15 18 17 19 19 22 25 30 36 29 26 28 33 32 34 24 27 24 25 21 20 17 14 12 9 8 7 6 5 6 5 6 5
26 24 22 21 21 20 19 18 18 19 20 20 21 20 20 21 21 22 18 17 16 16 16 18 19 19 21 23 30 32 32 33 31 33 28 27 33 26 21 25 25 23 20 17 14 12 10 9 5 6 5 5 5 6
22 21 20 19 19 18 16 16 15 14 16 18 18 16 16 18 20 23 18 16 16 16 15 18 23 24 21 23 26 29 31 32 34 31 33 34 28 29 20 26 28 27 23 19 17 16 15 12 9 7 6 6 5 3
21 21 20 19 18 17 16 15 15 14 15 16 15 13 15 16 18 21 19 17 16 15 15 17 21 24 24 25 30 30 28 30 33 34 34 32 29 24 27 30 30 30 27 23 20 21 18 14 11 10 9 8 8 8
23 25 23 23 21 18 17 16 16 16 16 17 15 12 11 13 16 20 18 14 14 14 13 17 19 24 24 23 32 32 35 33 31 28 31 32 31 27 29 31 33 32 31 27 24 24 23 19 15 12 12 11 10 11
20 17 15 13 14 15 15 15 14 15 15 17 13 11 11 12 19 17 16 12 14 15 12 14 18 18 24 25 27 29 22 32 30 29 31 30 30 32 35 35 35 38 35 32 28 27 28 24 20 15 13 12 12 12
20 19 18 17 15 14 15 14 13 16 15 15 12 10 11 11 13 14 15 16 15 12 14 11 14 17 22 28 26 29 34 29 30 33 31 32 32 38 40 43 36 35 37 36 32 29 29 27 24 20 17 14 12 14
18 17 17 17 17 14 12 11 17 17 17 16 16 14 12 14 14 14 14 12 12 12 12 11 12 19 20 23 31 21 17 19 20 23 28 29 30 33 36 36 36 33 38 39 38 33 32 31 28 24 21 19 16 14
16 17 17 17 15 12 8 7 15 22 20 18 16 14 11 11 10 9 9 11 14 15 15 13 14 19 18 24 22 23 24 22 21 24 22 21 30 28 25 26 31 37 37 39 39 36 36 35 32 28 26 24 21 19
16 17 17 17 15 13 10 14 21 21 21 20 17 13 12 13 13 11 12 11 12 13 15 14 11 14 14 16 17 21 24 27 31 28 25 27 30 28 25 21 22 30 37 43 44 40 39 37 36 33 29 27 26 24
17 18 18 18 17 15 13 16 16 15 15 16 20 22 24 23 19 14 15 16 14 13 16 14 14 12 10 11 17 18 22 25 27 29 25 26 30 30 31 27 22 19 24 35 36 40 40 38 37 34 32 31 30 28
19 19 20 18 17 17 16 16 14 11 15 18 15 15 19 22 18 16 17 14 17 20 19 17 15 12 15 15 13 15 17 19 21 23 23 23 29 31 28 27 25 24 22 29 38 38 36 33 33 33 34 34 33 31
21 21 20 20 19 19 18 14 11 12 11 13 13 12 13 15 17 16 15 15 17 18 16 15 15 15 14 8 7 9 14 17 19 20 22 23 24 24 26 25 25 26 23 23 26 32 35 37 40 39 37 36 35 29
22 21 21 20 19 18 18 18 13 11 13 9 9 9 13 15 14 14 16 17 14 14 14 12 12 11 10 10 10 9 9 11 11 10 10 13 22 20 25 24 25 23 22 19 17 20 23 28 31 31 31 29 29 28
23 25 23 19 16 15 16 17 15 14 11 10 11 16 16 16 17 17 18 15 14 13 11 11 13 10 7 7 6 6 7 7 7 7 8 9 12 17 19 19 19 18 19 20 21 20 22 24 26 25 26 29 31 32
29 26 25 22 18 13 13 15 16 12 12 15 17 16 16 16 16 15 15 15 13 11 10 8 7 7 7 7 8 6 5 5 4 4 4 7 12 15 17 21 17 14 15 17 19 21 23 22 22 26 28 28 29 28
32 24 21 21 17 9 16 17 16 16 19 17 14 15 15 14 13 15 12 11 10 11 9 6 6 6 6 5 1 5 5 5 4 5 5 4 7 9 10 11 14 15 14 11 17 21 20 20 22 22 23 23 25 25
26 22 19 16 13 15 17 18 17 16 18 16 15 16 14 14 16 13 9 9 8 7 7 5 4 4 5 6 8 7 13 9 6 9 9 4 4 7 9 14 18 21 24 22 19 17 20 26 22 25 23 24 24 25
17 16 17 18 16 19 20 16 17 17 17 18 16 14 15 14 13 11 10 7 5 5 4 4 3 2 3 3 6 8 8 8 8 10 13 14 13 13 11 10 12 14 17 19 22 22 23 24 27 27 24 22 23 25
20 21 18 20 22 20 17 20 20 19 16 15 14 12 15 14 11 10 9 7 5 6 5 4 4 6 6 6 6 6 5 5 5 7 8 9 12 15 16 15 15 14 19 19 21 23 19 23 22 26 29 22 25 31
23 23 22 21 19 20 18 19 19 16 15 14 15 12 13 12 11 10 9 9 9 8 8 6 5 4 3 4 4 3 4 6 8 9 10 11 12 12 12 11 11 13 14 16 19 22 24 26 29 33 33 31 33 34
24 24 19 17 23 19 17 18 16 16 16 16 13 11 11 10 9 9 8 9 9 7 8 6 5 3 3 4 1 2 2 5 6 6 8 11 11 7 7 11 14 16 16 17 19 20 19 20 22 25 29 29 37 38
22 22 19 17 17 16 16 15 15 14 13 12 9 7 6 7 8 9 8 7 8 7 6 8 8 7 6 5 5 6 7 9 11 12 14 15 16 16 16 18 19 21 22 23 24 25 27 30 31 31 33 35 35 35
19 17 16 15 14 14 13 14 14 14 12 9 7 5 8 8 6 7 7 7 7 6 5 6 7 4 4 6 7 7 9 10 12 13 14 15 16 16 17 17 18 18 19 20 21 22 23 25 26 28 29 30 29 28
21 16 15 15 16 16 16 15 13 10 8 9 11 9 11 13 11 8 7 6 6 5 4 2 2 2 3 5 6 7 8 9 10 11 13 14 15 15 16 17 18 18 19 20 22 23 24 25 25 26 27 28 28 28
15 16 18 17 16 15 13 10 8 16 13 10 10 9 10 9 7 5 5 5 4 4 2 1 2 3 4 5 7 7 8 9 11 13 14 16 17 17 18 18 19 20 21 22 22 22 23 24 24 25 26 27 28 28